[[[{"header":{"parameterUnit":"kt","parameterCategory":2,"dx":1,"dy":1,"la1":29.587661999999998,"la2":31.0,"lo1":-88.76705300000003,"lo2":-86.6583820000003,"nx":115,"ny":88,"refTime":"2022-10-09T06:00:00:Z","depth":0,"parameterNumber":1,"parameterNumberName":"U-component_of_WINDS"},"data":[-6.4959,-6.4959,-6.4959,-6.4959,-6.4959,-6.4959,-6.4959,-6.4959,-6.4959,-6.4959,-6.5187,-6.5718,-6.6136,-6.6326,-6.7807,-6.868,-6.887,-6.9325,-6.9667,-7.0009,-7.0047,-7.0047,-7.0047,-7.0047,-7.0047,-7.0047,-7.0047,-7.0047,-7.0047,-7.0047,-7.0047,-7.0047,-7.0047,-7.0047,-7.0047,-7.0047,-7.0047,-7.0047,-7.0047,-7.0047,-7.0502,-7.0996,-7.1945,-7.2543,-7.3069,-7.2824,-7.2483,-7.1769,-7.0441,-6.9082,-6.7659,-6.7338,-6.7017,-6.6625,-6.6233,-6.6091,-6.5948,-6.577,-6.5734,-6.5734,-6.5734,-6.5948,-6.6126,-6.6661,-6.7445,-6.8265,-6.8693,-6.9085,-6.9548,-6.9834,-7.0119,-6.9584,-6.9085,-6.8018,-6.6858,-6.2969,-5.7664,-5.496,-5.2931,-5.0096,-4.7889,-4.7889,-4.7889,-4.7889,-4.7889,-4.7889,-4.7889,-4.7889,-4.7889,-4.7967,-4.8045,-4.8616,-4.9239,-4.9161,-4.9057,-5.0096,-5.059,-5.0663,-5.0715,-5.0875,-5.1135,-5.1239,-5.1317,-5.1317,-5.1317,-5.1317,-5.1317,-5.1317,-5.1317,-5.1317,-5.1317,-5.1317,-5.1317,-5.1317,-5.1317,-6.4959,-6.4959,-6.4959,-6.4959,-6.4959,-6.4959,-6.4959,-6.4959,-6.4959,-6.4959,-6.4997,-6.5111,-6.5605,-6.6022,-6.663,-6.7655,-6.8452,-6.8984,-6.9553,-6.9857,-7.0009,-7.0047,-7.0047,-7.0047,-7.0047,-7.0047,-7.0047,-7.0047,-7.0047,-7.0047,-7.0047,-7.0047,-7.0047,-7.0047,-7.0047,-7.0047,-7.0047,-7.0047,-7.0047,-7.0047,-7.0085,-7.0236,-7.092,-7.1332,-7.164,-7.1634,-7.1489,-7.0858,-6.9685,-6.8294,-6.7053,-6.6804,-6.6518,-6.6269,-6.6019,-6.5912,-6.5805,-6.577,-6.5734,-6.5734,-6.5734,-6.5734,-6.577,-6.6198,-6.691,-6.7552,-6.8016,-6.8479,-6.9049,-6.9513,-7.0047,-7.0047,-6.9655,-6.8908,-6.774,-6.5731,-5.8883,-5.2821,-5.0688,-4.8579,-4.7889,-4.7889,-4.7889,-4.7889,-4.7889,-4.7889,-4.7889,-4.7889,-4.7915,-4.8045,-4.8278,-4.885,-4.9525,-4.9629,-4.9499,-5.0044,-5.0663,-5.0611,-5.0637,-5.0823,-5.1083,-5.1213,-5.1317,-5.1317,-5.1317,-5.1317,-5.1317,-5.1317,-5.1317,-5.1317,-5.1317,-5.1317,-5.1317,-5.1317,-5.1317,-6.5204,-6.4959,-6.4959,-6.4959,-6.4959,-6.4959,-6.4959,-6.4959,-6.4959,-6.4959,-6.4959,-6.4997,-6.5149,-6.5453,-6.606,-6.7047,-6.7921,-6.8528,-6.9211,-6.9781,-7.0047,-7.0047,-7.0047,-7.0047,-7.0047,-7.0047,-7.0047,-7.0047,-7.0047,-7.0047,-7.0047,-7.0047,-7.0047,-7.0047,-7.0047,-7.0047,-7.0047,-7.0047,-7.0047,-7.0047,-7.0047,-7.054,-7.1034,-7.1527,-7.1952,-7.2441,-7.2154,-7.1452,-7.0134,-6.8743,-6.7185,-6.6726,-6.6126,-6.5948,-6.577,-6.5734,-6.5734,-6.5734,-6.5734,-6.5734,-6.5734,-6.5734,-6.577,-6.577,-6.6447,-6.691,-6.7374,-6.7909,-6.8443,-6.9192,-6.9727,-7.0117,-6.9797,-6.8583,-6.7231,-6.5328,-5.9687,-5.3764,-5.0819,-4.8816,-4.8019,-4.8019,-4.8071,-4.8071,-4.7941,-4.7941,-4.7889,-4.7889,-4.8019,-4.8174,-4.8564,-4.9083,-4.9836,-5.007,-4.9862,-5.007,-5.0559,-5.0611,-5.0611,-5.0745,-5.1031,-5.1187,-5.1317,-5.1317,-5.1317,-5.1317,-5.1317,-5.1317,-5.1317,-5.1317,-5.1317,-5.1317,-5.1317,-5.1317,-5.1317,-6.5327,-6.4959,-6.4959,-6.4959,-6.4959,-6.4959,-6.4959,-6.4959,-6.4959,-6.4959,-6.4959,-6.4959,-6.4997,-6.5111,-6.5643,-6.6288,-6.7199,-6.7921,-6.8908,-6.9439,-6.9971,-7.0009,-7.0047,-7.0047,-7.0047,-7.0047,-7.0047,-7.0047,-7.0047,-7.0047,-7.0047,-7.0047,-7.0047,-7.0047,-7.0047,-7.0047,-7.0047,-7.0047,-7.0047,-7.0047,-7.0047,-7.0654,-7.1034,-7.1451,-7.215,-7.2669,-7.1902,-7.1458,-7.054,-6.905,-6.7567,-6.6512,-6.5805,-6.577,-6.5734,-6.5734,-6.5734,-6.5734,-6.5734,-6.5734,-6.5734,-6.5734,-6.5734,-6.5734,-6.5912,-6.634,-6.6804,-6.7303,-6.7909,-6.8657,-6.9335,-6.9761,-6.9758,-6.8108,-6.6322,-6.3546,-6.0526,-5.6064,-5.1868,-4.9974,-4.8515,-4.8226,-4.8304,-4.8226,-4.8071,-4.8019,-4.8019,-4.8045,-4.8226,-4.8772,-4.9239,-4.9447,-5.0148,-5.0585,-5.0148,-5.02,-5.0533,-5.0611,-5.0637,-5.0693,-5.0979,-5.1135,-5.1317,-5.1317,-5.1317,-5.1317,-5.1317,-5.1317,-5.1317,-5.1317,-5.1317,-5.1317,-5.1317,-5.1317,-5.1317,-6.4959,-6.4959,-6.4959,-6.4959,-6.4959,-6.4959,-6.4959,-6.4959,-6.4959,-6.4959,-6.4959,-6.4959,-6.4959,-6.4997,-6.5149,-6.5718,-6.6554,-6.7389,-6.8262,-6.8908,-6.9629,-7.0009,-7.0047,-7.0047,-7.0047,-7.0047,-7.0047,-7.0047,-7.0047,-7.0047,-7.0047,-7.0047,-7.0047,-7.0047,-7.0047,-7.0047,-7.0047,-7.0047,-7.0047,-7.0047,-7.0085,-7.0085,-7.016,-7.0464,-7.1316,-7.2051,-7.1128,-7.0581,-7.0393,-6.8662,-6.7327,-6.6623,-6.6004,-6.5869,-6.5734,-6.5734,-6.5734,-6.5734,-6.5734,-6.5734,-6.5734,-6.5734,-6.5734,-6.5734,-6.5734,-6.5984,-6.6304,-6.6768,-6.7659,-6.8479,-6.9121,-6.9548,-6.8711,-6.7012,-6.4849,-6.1995,-5.8922,-5.5237,-5.1821,-5.0032,-4.8876,-4.8824,-4.8876,-4.8642,-4.8512,-4.8538,-4.8512,-4.8408,-4.8772,-4.9551,-4.9785,-4.981,-5.046,-5.0875,-5.059,-5.0486,-5.0715,-5.0663,-5.0689,-5.0719,-5.0979,-5.1161,-5.1291,-5.1317,-5.1317,-5.1317,-5.1317,-5.1317,-5.1317,-5.1317,-5.1317,-5.1317,-5.1317,-5.1317,-5.1317,-6.5327,-6.4959,-6.5327,-6.5327,-6.4959,-6.4959,-6.4959,-6.4959,-6.4959,-6.4959,-6.4959,-6.4959,-6.4959,-6.4959,-6.4997,-6.5415,-6.6212,-6.7009,-6.7845,-6.8718,-6.9629,-6.9895,-7.0009,-7.0047,-7.0047,-7.0047,-7.0047,-7.0047,-7.0047,-7.0047,-7.0047,-7.0047,-7.0047,-7.0047,-7.0047,-7.0047,-7.0047,-7.0047,-7.0047,-7.0047,-7.0047,-7.0047,-7.0047,-7.0312,-7.111,-7.1392,-7.1008,-7.0542,-7.0382,-6.9467,-6.8018,-6.7079,-6.6542,-6.6407,-6.6273,-6.5734,-6.5734,-6.5734,-6.5734,-6.5734,-6.5734,-6.5734,-6.5734,-6.5734,-6.5734,-6.5734,-6.5948,-6.634,-6.7338,-6.8265,-6.8907,-6.9085,-6.76,-6.5934,-6.3236,-6.0533,-5.7288,-5.3894,-5.192,-5.0031,-4.9577,-4.9551,-4.9369,-4.9135,-4.9005,-4.9083,-4.9083,-4.9031,-4.9499,-5.0148,-5.0252,-5.033,-5.0849,-5.1239,-5.1161,-5.1005,-5.0979,-5.0927,-5.0797,-5.0771,-5.1005,-5.1187,-5.1265,-5.1317,-5.1317,-5.1317,-5.1317,-5.1317,-5.1317,-5.1317,-5.1317,-5.1317,-5.1317,-5.1317,-5.1317,-6.5327,-6.4959,-6.5449,-6.5327,-6.4959,-6.4959,-6.4959,-6.4959,-6.4959,-6.4959,-6.4959,-6.4959,-6.4959,-6.4959,-6.4959,-6.5301,-6.5984,-6.6744,-6.7617,-6.8414,-6.9135,-6.9667,-6.9933,-7.0047,-7.0047,-7.0047,-7.0047,-7.0047,-7.0047,-7.0047,-7.0047,-7.0047,-7.0047,-7.0047,-7.0047,-7.0047,-7.0047,-7.0047,-7.0047,-7.0047,-7.0047,-7.0047,-7.0047,-7.0236,-7.092,-7.1034,-7.0937,-7.0609,-7.0264,-6.9845,-6.8675,-6.7919,-6.7213,-6.6945,-6.6676,-6.6138,-6.5734,-6.5734,-6.5734,-6.5734,-6.5734,-6.5734,-6.5734,-6.5734,-6.5734,-6.5734,-6.5734,-6.6198,-6.691,-6.773,-6.8443,-6.7413,-6.5835,-6.3499,-6.0811,-5.7999,-5.4903,-5.2317,-5.1809,-5.0434,-5.0382,-5.0304,-5.0174,-4.9888,-4.9551,-4.9681,-4.9785,-4.9836,-5.0148,-5.0538,-5.0745,-5.0953,-5.1291,-5.1265,-5.1239,-5.1031,-5.1135,-5.1213,-5.0979,-5.0849,-5.1057,-5.1213,-5.1265,-5.1317,-5.1317,-5.1317,-5.1317,-5.1317,-5.1317,-5.1317,-5.1317,-5.1317,-5.1317,-5.1317,-5.1317,-6.4959,-6.4959,-6.4959,-6.4959,-6.4959,-6.4959,-6.4959,-6.4959,-6.4959,-6.4959,-6.4959,-6.4959,-6.4959,-6.4959,-6.4959,-6.5035,-6.5301,-6.6022,-6.6782,-6.7579,-6.8604,-6.9287,-6.9705,-6.9971,-7.0047,-7.0047,-7.0047,-7.0047,-7.0047,-7.0047,-7.0047,-7.0047,-7.0047,-7.0047,-7.0047,-7.0047,-7.0047,-7.0047,-7.0047,-7.0047,-7.0047,-7.0047,-7.0047,-7.0198,-7.0578,-7.0654,-7.0654,-7.0558,-7.0253,-6.976,-6.9023,-6.8452,-6.7882,-6.7213,-6.6945,-6.6542,-6.6004,-6.5869,-6.5734,-6.5734,-6.5734,-6.5734,-6.5734,-6.5734,-6.5734,-6.5734,-6.5734,-6.6055,-6.659,-6.7303,-6.7632,-6.6103,-6.4505,-6.1748,-5.8898,-5.5733,-5.2817,-5.1594,-5.1236,-5.1057,-5.0979,-5.0927,-5.0745,-5.0486,-5.007,-5.02,-5.0304,-5.0408,-5.0642,-5.1005,-5.1109,-5.1291,-5.1291,-5.1291,-5.1057,-5.0797,-5.0849,-5.0979,-5.0823,-5.0849,-5.1109,-5.1291,-5.1317,-5.1317,-5.1317,-5.1317,-5.1317,-5.1317,-5.1317,-5.1317,-5.1317,-5.1317,-5.1317,-5.1317,-5.1317,-6.4959,-6.4959,-6.4959,-6.4959,-6.4959,-6.4959,-6.4959,-6.4959,-6.4959,-6.4959,-6.4959,-6.4959,-6.4959,-6.4959,-6.4959,-6.4959,-6.5035,-6.5832,-6.6554,-6.6782,-6.8072,-6.8832,-6.9363,-6.9705,-6.9971,-7.0047,-7.0047,-7.0047,-7.0047,-7.0047,-7.0047,-7.0047,-7.0047,-7.0047,-7.0047,-7.0047,-7.0047,-7.0047,-7.0047,-7.0047,-7.0047,-7.0047,-7.0047,-7.0123,-7.0236,-7.035,-7.0198,-7.0198,-7.0179,-6.9895,-6.9517,-6.9081,-6.8149,-6.7481,-6.7079,-6.6407,-6.5869,-6.5734,-6.5734,-6.5734,-6.5869,-6.5869,-6.5734,-6.5734,-6.5734,-6.5869,-6.5734,-6.5948,-6.6483,-6.7231,-6.7457,-6.575,-6.3791,-6.1281,-5.8327,-5.5031,-5.2439,-5.1699,-5.1213,-5.1213,-5.1187,-5.1213,-5.1135,-5.0823,-5.0538,-5.0668,-5.0797,-5.0979,-5.1161,-5.1213,-5.1265,-5.1291,-5.1265,-5.1057,-5.0771,-5.046,-5.046,-5.0845,-5.0745,-5.0745,-5.1005,-5.1317,-5.1317,-5.1317,-5.1317,-5.1317,-5.1317,-5.1317,-5.1317,-5.1317,-5.1317,-5.1317,-5.1317,-5.1317,-5.1317,-6.4959,-6.4959,-6.4959,-6.5149,-6.5377,-6.5377,-6.5225,-6.4997,-6.4959,-6.4959,-6.4959,-6.4959,-6.4959,-6.4959,-6.4959,-6.4959,-6.5035,-6.5718,-6.6136,-6.6364,-6.7617,-6.8338,-6.9022,-6.9591,-7.0009,-7.0047,-7.0047,-7.0047,-7.0047,-7.0047,-7.0047,-7.0047,-7.0047,-7.0047,-7.0047,-7.0047,-7.0047,-7.0047,-7.0047,-7.0047,-7.0047,-7.0047,-7.0047,-7.0047,-7.0047,-7.0085,-7.0047,-7.0047,-7.0123,-6.9914,-6.9914,-6.9346,-6.8549,-6.7882,-6.7347,-6.6407,-6.5734,-6.5734,-6.5734,-6.6273,-6.6273,-6.6273,-6.6407,-6.6542,-6.6138,-6.6138,-6.6138,-6.6282,-6.6333,-6.6982,-6.6686,-6.4833,-6.2788,-6.0267,-5.682,-5.3688,-5.2492,-5.1752,-5.1317,-5.1317,-5.1317,-5.1317,-5.1317,-5.1031,-5.0953,-5.1057,-5.1057,-5.1239,-5.1187,-5.1213,-5.1161,-5.1161,-5.0979,-5.0719,-5.0356,-4.9836,-4.9707,-5.0252,-5.0512,-5.0642,-5.0953,-5.1265,-5.1317,-5.1317,-5.1317,-5.1317,-5.1317,-5.1317,-5.1317,-5.1317,-5.1317,-5.1317,-5.1317,-5.1317,-5.1317,-6.4997,-6.4959,-6.5035,-6.5529,-6.6212,-6.625,-6.5756,-6.5187,-6.4997,-6.4959,-6.4959,-6.4959,-6.4959,-6.4959,-6.4959,-6.4959,-6.5035,-6.5073,-6.5415,-6.6098,-6.7009,-6.7883,-6.8642,-6.9401,-6.9819,-6.9971,-7.0047,-7.0047,-7.0047,-7.0047,-7.0047,-7.0047,-7.0047,-7.0047,-7.0047,-7.0047,-7.0047,-7.0047,-7.0047,-7.0047,-7.0047,-7.0047,-7.0047,-7.0047,-7.0047,-7.0047,-7.0047,-7.0047,-7.0047,-7.0047,-7.0047,-6.9649,-6.8948,-6.8282,-6.7614,-6.6945,-6.6273,-6.6004,-6.5869,-6.7079,-6.7213,-6.6945,-6.7213,-6.7213,-6.6945,-6.681,-6.6676,-6.6542,-6.6147,-6.659,-6.5047,-6.2897,-6.1107,-5.8449,-5.4464,-5.1598,-5.1752,-5.1317,-5.1317,-5.1317,-5.1317,-5.1317,-5.1317,-5.1317,-5.1317,-5.1317,-5.1317,-5.1239,-5.1109,-5.1031,-5.0901,-5.0771,-5.0512,-5.0226,-4.9862,-4.9265,-4.9213,-4.9862,-5.0304,-5.0538,-5.0823,-5.1187,-5.1317,-5.1317,-5.1317,-5.1317,-5.1317,-5.1317,-5.1317,-5.1317,-5.1317,-5.1317,-5.1317,-5.1317,-5.1317,-6.5301,-6.5832,-6.587,-6.6326,-6.6971,-6.6478,-6.606,-6.5756,-6.5225,-6.4959,-6.4959,-6.4959,-6.4959,-6.4959,-6.4959,-6.4959,-6.4959,-6.4997,-6.5149,-6.5605,-6.6288,-6.7047,-6.7883,-6.8718,-6.9515,-6.9971,-7.0047,-7.0047,-7.0047,-7.0047,-7.0047,-7.0047,-7.0047,-7.0047,-7.0047,-7.0047,-7.0047,-7.0047,-7.0047,-7.0047,-7.0047,-7.0047,-7.0047,-7.0047,-7.0047,-7.0047,-7.0047,-7.0047,-7.0047,-7.0047,-6.9914,-6.9649,-6.9251,-6.8719,-6.8282,-6.7748,-6.7347,-6.7176,-6.7347,-6.7614,-6.7748,-6.7748,-6.7882,-6.7882,-6.7481,-6.7079,-6.6676,-6.6676,-6.6075,-6.5385,-6.4125,-6.1292,-5.9137,-5.7822,-5.3813,-5.1752,-5.1752,-5.1598,-5.1444,-5.1444,-5.1317,-5.1317,-5.1317,-5.1317,-5.1317,-5.1317,-5.1291,-5.1213,-5.1057,-5.0849,-5.0693,-5.0408,-5.0018,-4.9655,-4.9569,-4.9083,-4.8902,-4.9525,-4.994,-5.0252,-5.0745,-5.1109,-5.1317,-5.1317,-5.1317,-5.1317,-5.1317,-5.1317,-5.1317,-5.1317,-5.1317,-5.1317,-5.1317,-5.1317,-5.1317,-6.5453,-6.625,-6.6592,-6.6971,-6.7427,-6.6895,-6.6516,-6.6136,-6.5339,-6.4959,-6.4959,-6.4959,-6.4959,-6.4959,-6.4959,-6.4959,-6.4959,-6.4959,-6.4959,-6.5225,-6.5756,-6.644,-6.7237,-6.8148,-6.9022,-6.9477,-6.9895,-7.0047,-7.0047,-7.0047,-7.0047,-7.0047,-7.0047,-7.0047,-7.0047,-7.0047,-7.0047,-7.0047,-7.0047,-7.0047,-7.0047,-7.0047,-7.0047,-7.0047,-7.0047,-7.0047,-7.0047,-7.0047,-7.0047,-7.0047,-7.0047,-6.9649,-6.9118,-6.8948,-6.8549,-6.7882,-6.7748,-6.7748,-6.7748,-6.8282,-6.8682,-6.8682,-6.8682,-6.8549,-6.8282,-6.664,-6.6102,-6.54,-6.4319,-6.3218,-6.224,-5.9898,-5.7672,-5.6445,-5.4906,-5.2951,-5.2212,-5.2059,-5.1905,-5.1905,-5.1752,-5.1291,-5.1317,-5.1317,-5.1317,-5.1291,-5.1265,-5.1187,-5.0927,-5.0693,-5.046,-5.02,-4.9343,-4.8876,-4.8979,-4.8824,-4.8642,-4.9031,-4.9473,-5.0018,-5.059,-5.0979,-5.1317,-5.1317,-5.1317,-5.1317,-5.1317,-5.1317,-5.1317,-5.1317,-5.1317,-5.1317,-5.1317,-5.1317,-5.1317,-6.5377,-6.6212,-6.7009,-6.7351,-6.7427,-6.7389,-6.6895,-6.6174,-6.5339,-6.4959,-6.4959,-6.4959,-6.4959,-6.4959,-6.4959,-6.4959,-6.4959,-6.4959,-6.4959,-6.5225,-6.5718,-6.6098,-6.6782,-6.7731,-6.8718,-6.8984,-6.9667,-7.0009,-7.0047,-7.0047,-7.0047,-7.0047,-7.0047,-7.0047,-7.0047,-7.0047,-7.0047,-7.0047,-7.0047,-7.0047,-7.0047,-7.0047,-7.0047,-7.0047,-7.0047,-7.0047,-7.0047,-7.0047,-7.0047,-7.0047,-7.0047,-6.9649,-6.9384,-6.9251,-6.8948,-6.8549,-6.8415,-6.8415,-6.8549,-6.9081,-6.9744,-6.9876,-6.9744,-6.9346,-6.8015,-6.5797,-6.4517,-6.4113,-6.2327,-6.099,-6.0048,-5.9076,-5.7646,-5.6317,-5.4754,-5.341,-5.2951,-5.2672,-5.2365,-5.2212,-5.1905,-5.1444,-5.1291,-5.1624,-5.1778,-5.1444,-5.1265,-5.1572,-5.1258,-5.0668,-5.0382,-4.9577,-4.8668,-4.8486,-4.8616,-4.8616,-4.8564,-4.8824,-4.9317,-4.9888,-5.0585,-5.0875,-5.1291,-5.1317,-5.1317,-5.1317,-5.1317,-5.1317,-5.1317,-5.1317,-5.1317,-5.1317,-5.1317,-5.1317,-5.1317,-6.4542,-6.5339,-6.6174,-6.6895,-6.7389,-6.6782,-6.6402,-6.6136,-6.5339,-6.4959,-6.4959,-6.4959,-6.4959,-6.4959,-6.4959,-6.4959,-6.4959,-6.4959,-6.4959,-6.4997,-6.5225,-6.5681,-6.6326,-6.7161,-6.8148,-6.8832,-6.9515,-6.9857,-6.9971,-7.0047,-7.0047,-7.0047,-7.0047,-7.0047,-7.0047,-7.0047,-7.0047,-7.0047,-7.0047,-7.0047,-7.0047,-7.0047,-7.0047,-7.0047,-7.0047,-7.0047,-7.0047,-7.0047,-7.0047,-7.0047,-7.0047,-6.9914,-6.9782,-6.9649,-6.9517,-6.9346,-6.9213,-6.9213,-6.9479,-6.9649,-6.9914,-7.0047,-6.9876,-6.9213,-6.7176,-6.5528,-6.4145,-6.1979,-6.0277,-5.9304,-5.8455,-5.7881,-5.675,-5.5619,-5.463,-5.4173,-5.3562,-5.2978,-5.2545,-5.2519,-5.2212,-5.1598,-5.1752,-5.2085,-5.1931,-5.1598,-5.1598,-5.1905,-5.1363,-5.0745,-5.0018,-4.8798,-4.8304,-4.8434,-4.833,-4.82,-4.8434,-4.8668,-4.9239,-4.9785,-5.0304,-5.0771,-5.1187,-5.1317,-5.1317,-5.1317,-5.1317,-5.1317,-5.1317,-5.1317,-5.1317,-5.1317,-5.1317,-5.1317,-5.1317,-6.3365,-6.4504,-6.5339,-6.6174,-6.682,-6.644,-6.6212,-6.606,-6.5339,-6.4959,-6.4959,-6.4959,-6.4959,-6.4959,-6.4959,-6.4959,-6.4959,-6.4959,-6.4959,-6.4959,-6.4997,-6.5225,-6.5832,-6.6554,-6.7351,-6.8186,-6.8984,-6.9515,-6.9629,-6.9781,-7.0047,-7.0047,-7.0047,-7.0047,-7.0047,-7.0047,-7.0047,-7.0047,-7.0047,-7.0047,-7.0047,-7.0047,-7.0047,-7.0047,-7.0047,-7.0047,-7.0047,-7.0047,-7.0047,-7.0047,-7.0047,-7.0047,-7.0047,-7.0047,-7.0047,-7.0047,-7.0047,-7.0047,-7.0047,-7.0047,-7.0047,-7.0047,-6.9876,-6.9213,-6.7517,-6.5271,-6.2394,-5.9855,-5.8688,-5.763,-5.667,-5.6633,-5.5779,-5.5402,-5.5238,-5.4934,-5.4782,-5.3742,-5.3005,-5.2672,-5.2519,-5.2519,-5.2672,-5.2825,-5.2825,-5.2519,-5.2519,-5.2365,-5.19,-5.1175,-5.0075,-4.8527,-4.8501,-4.8501,-4.8332,-4.8032,-4.8345,-4.8501,-4.9074,-4.9707,-5.02,-5.0668,-5.1109,-5.1317,-5.1317,-5.1317,-5.1317,-5.1317,-5.1317,-5.1317,-5.1317,-5.1317,-5.1317,-5.1317,-5.1317,-6.2112,-6.3516,-6.4428,-6.5263,-6.587,-6.6022,-6.606,-6.5946,-6.5263,-6.4959,-6.4959,-6.4959,-6.4959,-6.4959,-6.4959,-6.4959,-6.4959,-6.4959,-6.4959,-6.4959,-6.4959,-6.4997,-6.5149,-6.5832,-6.6744,-6.7389,-6.8376,-6.8756,-6.9022,-6.9553,-6.9857,-7.0009,-7.0047,-7.0047,-7.0047,-7.0047,-7.0047,-7.0047,-7.0047,-7.0047,-7.0047,-7.0047,-7.0047,-7.0047,-7.0047,-7.0047,-7.0047,-7.0047,-7.0047,-7.0047,-7.0047,-7.0047,-7.0047,-7.0047,-7.0047,-7.0047,-7.0047,-7.0047,-7.0047,-7.0047,-7.0047,-7.0047,-7.0047,-6.9744,-6.7724,-6.4699,-6.112,-5.7889,-5.6377,-5.5508,-5.5766,-5.5987,-5.6064,-5.5998,-5.5846,-5.5846,-5.5846,-5.4658,-5.4048,-5.3742,-5.359,-5.359,-5.341,-5.3562,-5.3715,-5.3437,-5.3131,-5.2852,-5.2359,-5.1898,-5.079,-4.9634,-4.9277,-4.9092,-4.8722,-4.8462,-4.845,-4.8254,-4.8892,-4.9629,-5.0122,-5.059,-5.1005,-5.1291,-5.1317,-5.1317,-5.1317,-5.1317,-5.1317,-5.1317,-5.1317,-5.1317,-5.1317,-5.1317,-5.1317,-6.1466,-6.1884,-6.3365,-6.4086,-6.4352,-6.4921,-6.5225,-6.5187,-6.5035,-6.4959,-6.4959,-6.4959,-6.4959,-6.4959,-6.4959,-6.4959,-6.4959,-6.4959,-6.4959,-6.4959,-6.4959,-6.4959,-6.5187,-6.5756,-6.6451,-6.6782,-6.7883,-6.8794,-6.8718,-6.9022,-6.9477,-6.9857,-7.0047,-7.0047,-7.0047,-7.0047,-7.0047,-7.0047,-7.0047,-7.0047,-7.0047,-7.0047,-7.0047,-7.0047,-7.0047,-7.0047,-7.0047,-7.0047,-7.0047,-7.0047,-7.0047,-7.0047,-7.0047,-7.0047,-7.0047,-7.0047,-7.0047,-7.0047,-6.9876,-6.9876,-6.9479,-6.9479,-6.9876,-6.8511,-6.6515,-6.3465,-6.0412,-5.6701,-5.5388,-5.5466,-5.5751,-5.6064,-5.6121,-5.6121,-5.6121,-5.6149,-5.5846,-5.5418,-5.4658,-5.4658,-5.4685,-5.4353,-5.402,-5.4173,-5.4478,-5.4353,-5.4048,-5.3742,-5.3203,-5.2529,-5.1598,-5.0512,-4.9806,-4.9535,-4.9151,-4.8892,-4.8606,-4.8515,-4.8959,-4.9421,-4.994,-5.0486,-5.0901,-5.1291,-5.1291,-5.1317,-5.1317,-5.1317,-5.1317,-5.1317,-5.1317,-5.1317,-5.1317,-5.1317,-5.1317,-6.0897,-6.1352,-6.2188,-6.2985,-6.3744,-6.42,-6.458,-6.4921,-6.4959,-6.4959,-6.4959,-6.4959,-6.4959,-6.4959,-6.4959,-6.4959,-6.4959,-6.4959,-6.4959,-6.4959,-6.4959,-6.4959,-6.5073,-6.5377,-6.5794,-6.6402,-6.7047,-6.7655,-6.8148,-6.8528,-6.9249,-6.9819,-7.0047,-7.0047,-7.0047,-7.0047,-7.0047,-7.0047,-7.0047,-7.0047,-7.0047,-7.0047,-7.0047,-7.0047,-7.0047,-7.0047,-7.0047,-7.0047,-7.0047,-7.0047,-7.0047,-7.0047,-7.0047,-7.0047,-7.0047,-7.0047,-7.0047,-7.0047,-6.9876,-6.8511,-6.8112,-6.7845,-6.6299,-6.5088,-6.3499,-6.1529,-5.9276,-5.7227,-5.6433,-5.5722,-5.5722,-5.6007,-5.5978,-5.5865,-5.6007,-5.6121,-5.5998,-5.5418,-5.5418,-5.5418,-5.5418,-5.5114,-5.4782,-5.4934,-5.5114,-5.5114,-5.4962,-5.4505,-5.3922,-5.298,-5.1907,-5.1018,-5.0333,-5.0136,-4.9723,-4.9321,-4.8775,-4.879,-4.9146,-4.9283,-4.9681,-5.0252,-5.0719,-5.1187,-5.1291,-5.1291,-5.1317,-5.1317,-5.1317,-5.1317,-5.1317,-5.1317,-5.1317,-5.1317,-5.1317,-6.0441,-6.1087,-6.1201,-6.2036,-6.3251,-6.3668,-6.4162,-6.4731,-6.4883,-6.4959,-6.4959,-6.4959,-6.4959,-6.4959,-6.4959,-6.4959,-6.4959,-6.4959,-6.4959,-6.4959,-6.4959,-6.4959,-6.4959,-6.5111,-6.5377,-6.587,-6.6098,-6.6554,-6.7275,-6.8148,-6.8832,-6.9629,-6.9933,-7.0047,-7.0047,-7.0047,-7.0047,-7.0047,-7.0047,-7.0047,-7.0047,-7.0009,-6.9971,-6.9705,-6.9933,-6.9895,-6.9857,-6.9895,-7.0047,-7.0047,-7.0047,-7.0047,-7.0047,-7.0047,-6.9611,-6.9346,-6.9479,-6.9479,-6.8948,-6.7407,-6.6604,-6.5223,-6.4277,-6.2612,-6.045,-5.888,-5.7808,-5.7159,-5.6168,-5.558,-5.5182,-5.5609,-5.5666,-5.5609,-5.5751,-5.6149,-5.5969,-5.5609,-5.5373,-5.5846,-5.6026,-5.5998,-5.5694,-5.5694,-5.5722,-5.5722,-5.5373,-5.4779,-5.4187,-5.3197,-5.2279,-5.1612,-5.1092,-5.0736,-5.0435,-4.9892,-4.9348,-4.9365,-4.9133,-4.9273,-4.9551,-5.007,-5.059,-5.1083,-5.1291,-5.1317,-5.1317,-5.1317,-5.1317,-5.1317,-5.1317,-5.1317,-5.1317,-5.1317,-5.1317,-6.0138,-6.0289,-6.0973,-6.139,-6.1846,-6.3137,-6.3744,-6.4048,-6.4655,-6.4845,-6.4959,-6.4959,-6.4959,-6.4959,-6.4959,-6.4959,-6.4959,-6.4959,-6.4959,-6.4959,-6.4959,-6.4959,-6.4959,-6.4959,-6.5111,-6.5111,-6.5225,-6.5718,-6.6516,-6.7275,-6.8186,-6.8984,-6.9629,-6.9933,-7.0009,-7.0047,-7.0047,-7.0047,-7.0047,-7.0047,-7.0047,-7.0009,-6.9705,-6.9439,-6.9591,-6.9629,-6.9325,-6.9515,-6.9933,-7.0047,-7.0047,-7.0047,-7.0047,-6.9876,-6.9176,-6.6604,-6.8245,-6.8112,-6.6872,-6.7274,-6.7274,-6.5797,-6.4683,-6.2476,-5.879,-5.7163,-5.6373,-5.5382,-5.48,-5.4698,-5.4381,-5.5097,-5.5353,-5.5381,-5.5779,-5.6121,-5.6064,-5.5544,-5.5506,-5.6035,-5.6149,-5.6064,-5.6064,-5.6007,-5.6092,-5.6092,-5.5515,-5.4876,-5.4268,-5.3468,-5.2736,-5.2035,-5.1905,-5.1514,-5.1459,-5.1032,-5.0178,-4.9912,-4.9172,-4.9341,-4.9525,-4.9966,-5.0408,-5.0927,-5.1265,-5.1317,-5.1317,-5.1317,-5.1317,-5.1317,-5.1317,-5.1317,-5.1317,-5.1317,-5.1317,-6.0062,-6.01,-6.0441,-6.0859,-6.1352,-6.2074,-6.2681,-6.3213,-6.3972,-6.4314,-6.439,-6.4807,-6.4959,-6.4959,-6.4959,-6.4959,-6.4959,-6.4959,-6.4959,-6.4959,-6.4959,-6.4959,-6.4959,-6.4959,-6.4959,-6.4959,-6.4959,-6.5453,-6.6098,-6.6706,-6.7503,-6.8756,-6.9135,-6.9591,-6.9971,-7.0047,-7.0047,-7.0047,-7.0047,-7.0047,-7.0047,-7.0009,-6.9743,-6.9629,-6.9325,-6.9249,-6.8756,-6.8794,-6.8946,-6.9135,-6.8908,-6.8832,-6.9118,-6.7879,-6.6739,-6.552,-6.5896,-6.4412,-6.3293,-6.3157,-6.2749,-6.0835,-5.9322,-5.7136,-5.5642,-5.5131,-5.4627,-5.3966,-5.3874,-5.4012,-5.393,-5.4642,-5.4806,-5.4863,-5.5296,-5.5836,-5.6035,-5.5922,-5.5893,-5.6064,-5.6092,-5.5978,-5.5779,-5.5637,-5.5609,-5.5296,-5.4749,-5.4312,-5.3707,-5.3168,-5.2781,-5.2416,-5.2423,-5.2338,-5.2168,-5.1743,-5.0862,-5.0171,-4.921,-4.8959,-4.9317,-4.9785,-5.0226,-5.0693,-5.1109,-5.1187,-5.1317,-5.1317,-5.1317,-5.1317,-5.1317,-5.1317,-5.1317,-5.1317,-5.1317,-6.0062,-6.0062,-6.0062,-6.0403,-6.0973,-6.1201,-6.1656,-6.234,-6.3137,-6.3479,-6.363,-6.4124,-6.4466,-6.4655,-6.4617,-6.4807,-6.4959,-6.4959,-6.4959,-6.4959,-6.4959,-6.4959,-6.4959,-6.4959,-6.4959,-6.4959,-6.4959,-6.5301,-6.5832,-6.6212,-6.6971,-6.8148,-6.8528,-6.9135,-6.9705,-6.9857,-7.0047,-7.0047,-7.0047,-7.0047,-7.0047,-7.0009,-7.0009,-6.9895,-6.9249,-6.8794,-6.8414,-6.7807,-6.718,-6.6467,-6.5692,-6.5304,-6.5703,-6.4547,-6.3404,-6.2914,-6.1762,-6.1109,-6.0286,-5.9322,-5.7661,-5.7522,-5.5881,-5.3159,-5.2792,-5.3192,-5.3277,-5.3305,-5.3618,-5.3589,-5.339,-5.4329,-5.4698,-5.4551,-5.4948,-5.5694,-5.5808,-5.5666,-5.5466,-5.5609,-5.5666,-5.558,-5.5125,-5.5068,-5.4721,-5.4295,-5.3979,-5.3573,-5.3146,-5.2664,-5.2328,-5.1961,-5.1939,-5.2054,-5.2168,-5.2168,-5.1316,-5.0375,-4.8998,-4.8278,-4.9005,-4.9551,-5.0018,-5.046,-5.0901,-5.1135,-5.1291,-5.1317,-5.1317,-5.1317,-5.1317,-5.1317,-5.1317,-5.1317,-5.1317,-6.0062,-6.0062,-6.0062,-6.01,-6.0289,-6.0935,-6.1239,-6.1542,-6.2302,-6.2643,-6.2719,-6.2757,-6.3327,-6.3858,-6.3858,-6.4238,-6.4921,-6.4807,-6.4883,-6.4959,-6.4959,-6.4959,-6.4959,-6.4959,-6.4959,-6.4959,-6.4959,-6.5073,-6.5301,-6.587,-6.6326,-6.6895,-6.811,-6.8718,-6.9135,-6.9629,-6.9971,-7.0009,-7.0047,-7.0047,-7.0047,-7.0047,-7.0047,-6.9933,-6.9287,-6.8642,-6.7958,-6.6917,-6.4882,-5.9679,-5.9189,-6.0014,-6.0566,-6.0883,-5.9744,-5.8147,-5.9313,-5.9363,-5.7907,-5.8737,-5.9184,-5.6827,-5.616,-5.5351,-5.3046,-5.2565,-5.2679,-5.2679,-5.2622,-5.2764,-5.2821,-5.3674,-5.4069,-5.4381,-5.5296,-5.5666,-5.5324,-5.4386,-5.393,-5.4267,-5.4381,-5.4528,-5.4442,-5.4295,-5.4239,-5.3728,-5.3211,-5.2809,-5.2179,-5.1901,-5.1706,-5.1281,-5.1341,-5.1601,-5.2026,-5.2338,-5.1316,-5.0435,-4.8892,-4.8188,-4.8918,-4.9213,-4.9733,-5.0278,-5.0693,-5.1005,-5.1213,-5.1317,-5.1317,-5.1317,-5.1317,-5.1317,-5.1317,-5.1317,-5.1317,-6.0062,-6.0062,-6.0062,-6.0062,-6.01,-6.0403,-6.0555,-6.0707,-6.1428,-6.1808,-6.1922,-6.2381,-6.2719,-6.3023,-6.3061,-6.3516,-6.42,-6.4276,-6.4542,-6.4845,-6.4921,-6.4921,-6.4959,-6.4959,-6.4959,-6.4959,-6.4959,-6.4959,-6.5035,-6.5301,-6.5794,-6.6288,-6.6971,-6.7845,-6.8642,-6.9173,-6.9515,-6.9801,-7.0047,-7.0047,-7.0047,-7.0047,-6.9876,-6.9933,-6.9705,-6.9097,-6.7928,-6.567,-6.2368,-5.8545,-5.7352,-5.7651,-5.835,-5.7268,-5.6159,-5.5688,-5.5352,-5.5166,-5.4284,-5.5141,-5.5461,-5.465,-5.4258,-5.3553,-5.2876,-5.248,-5.248,-5.248,-5.248,-5.248,-5.2565,-5.2906,-5.3561,-5.4215,-5.4636,-5.4954,-5.4608,-5.4069,-5.413,-5.4069,-5.4154,-5.4069,-5.3817,-5.3817,-5.3618,-5.3189,-5.2619,-5.1961,-5.1276,-5.1198,-5.0917,-5.0402,-5.0205,-5.089,-5.1459,-5.1316,-5.0435,-5.015,-4.9178,-4.8345,-4.8672,-4.8694,-4.9239,-4.9785,-5.0382,-5.0849,-5.1109,-5.1317,-5.1317,-5.1317,-5.1317,-5.1317,-5.1317,-5.1317,-5.1317,-6.0062,-6.0062,-6.0062,-6.0062,-6.0062,-6.0062,-6.0062,-6.0138,-6.0707,-6.0935,-6.1049,-6.1618,-6.1922,-6.2188,-6.2188,-6.2643,-6.3289,-6.3441,-6.3858,-6.4542,-6.4466,-6.4428,-6.4617,-6.4845,-6.4959,-6.4959,-6.4959,-6.4959,-6.4959,-6.4997,-6.5301,-6.5908,-6.6174,-6.6933,-6.7958,-6.83,-6.8609,-6.8499,-6.8442,-6.8251,-6.7601,-6.7407,-6.7675,-6.7675,-6.7541,-6.6968,-6.6163,-6.3132,-5.9793,-5.6583,-5.5452,-5.4969,-5.5027,-5.3637,-5.2913,-5.3127,-5.2229,-5.1314,-5.1709,-5.222,-5.2422,-5.2423,-5.2734,-5.248,-5.248,-5.248,-5.248,-5.248,-5.248,-5.248,-5.248,-5.2508,-5.2992,-5.3874,-5.4101,-5.3983,-5.3781,-5.3522,-5.3381,-5.3235,-5.3324,-5.3127,-5.2844,-5.2703,-5.2706,-5.2252,-5.1685,-5.0973,-5.0287,-4.9892,-4.975,-4.9321,-4.9464,-5.0178,-5.0578,-5.0293,-5.0008,-4.9865,-4.9321,-4.8489,-4.8385,-4.8304,-4.8746,-4.9317,-4.994,-5.0689,-5.0875,-5.0906,-5.1291,-5.1317,-5.1317,-5.1317,-5.1317,-5.0675,-5.0521,-6.0062,-6.0062,-6.0062,-6.0062,-6.0062,-6.0062,-6.0062,-6.0062,-6.0138,-6.0213,-6.0176,-6.0365,-6.0707,-6.1239,-6.1352,-6.1808,-6.2491,-6.2605,-6.3023,-6.3365,-6.3137,-6.3175,-6.382,-6.439,-6.4693,-6.4845,-6.4921,-6.4959,-6.4959,-6.4959,-6.4997,-6.4817,-6.5421,-6.6326,-6.5873,-6.6945,-6.6116,-6.4943,-6.4654,-6.3776,-6.2272,-6.2136,-6.2136,-6.2272,-6.2306,-6.2171,-6.1492,-5.9648,-5.7595,-5.5044,-5.165,-5.0096,-4.9658,-4.9722,-5.0085,-5.02,-5.0397,-5.083,-5.1342,-5.1513,-5.1797,-5.2281,-5.2366,-5.248,-5.2451,-5.248,-5.248,-5.248,-5.248,-5.248,-5.248,-5.248,-5.2764,-5.3333,-5.3447,-5.3158,-5.2524,-5.1961,-5.1535,-5.0968,-5.1143,-5.1542,-5.1483,-5.157,-5.1542,-5.1174,-5.032,-4.9892,-4.9178,-4.9035,-4.8606,-4.8606,-4.8892,-4.9464,-5.0035,-4.975,-4.9464,-4.9178,-4.8749,-4.8176,-4.7993,-4.8019,-4.8278,-4.8876,-4.9473,-5.0246,-5.0412,-5.0138,-5.0189,-4.9599,-4.9804,-5.1137,-5.0675,-4.9571,-4.9083,-6.0062,-6.0062,-6.0062,-6.0062,-6.0062,-6.0062,-6.0062,-6.0062,-6.0062,-6.0062,-6.0062,-6.0062,-6.0213,-6.0441,-6.0517,-6.0973,-6.1694,-6.1732,-6.1922,-6.2074,-6.1808,-6.2188,-6.2947,-6.3327,-6.3668,-6.4162,-6.4693,-6.4959,-6.4959,-6.4836,-6.4061,-6.254,-6.2708,-6.2446,-6.1332,-6.1357,-6.1589,-6.1332,-6.1171,-6.0778,-6.0283,-6.0449,-6.0547,-6.0614,-6.1013,-6.108,-6.0541,-5.6084,-5.3233,-5.2003,-5.042,-4.9095,-4.8754,-4.8924,-4.9038,-4.9152,-4.9607,-5.0062,-5.0318,-5.0745,-5.12,-5.1712,-5.1882,-5.2025,-5.2366,-5.248,-5.248,-5.248,-5.248,-5.248,-5.248,-5.248,-5.2565,-5.2793,-5.2821,-5.2679,-5.2365,-5.1713,-5.1032,-5.0293,-5.0293,-5.0578,-5.0578,-5.0578,-5.0578,-5.0578,-5.0008,-4.9607,-4.9035,-4.8749,-4.8462,-4.8319,-4.8319,-4.8749,-4.9321,-4.9178,-4.8892,-4.8032,-4.7314,-4.6569,-4.6281,-4.6281,-4.6451,-4.703,-4.7357,-4.7763,-4.814,-4.8237,-4.7643,-4.6583,-4.5704,-4.6238,-4.6332,-4.6022,-4.6737,-6.0062,-6.0062,-6.0062,-6.0062,-6.0062,-6.0062,-6.0062,-6.0062,-6.0062,-6.0062,-6.0062,-6.0062,-6.0062,-6.0062,-6.0062,-6.0365,-6.0744,-5.9937,-5.9205,-5.8508,-5.8392,-5.8793,-5.9568,-5.9714,-6.0235,-6.104,-6.1808,-6.2051,-6.1964,-6.2183,-6.151,-6.001,-5.9633,-5.8901,-5.7971,-5.7651,-5.7465,-5.7566,-5.7499,-5.7101,-5.6693,-5.7006,-5.7125,-5.7292,-5.7707,-5.7993,-5.7656,-5.2988,-5.0425,-5.0261,-4.9692,-4.9152,-4.881,-4.8725,-4.8725,-4.8754,-4.9123,-4.9379,-4.9635,-5.0062,-5.0546,-5.1058,-5.1228,-5.1541,-5.2053,-5.2138,-5.2224,-5.2451,-5.248,-5.248,-5.248,-5.248,-5.248,-5.248,-5.231,-5.2083,-5.1941,-5.1174,-5.0293,-4.958,-4.958,-4.9723,-4.9723,-4.9723,-4.9723,-4.9723,-4.9437,-4.9151,-4.8749,-4.8462,-4.8319,-4.8032,-4.7889,-4.8176,-4.8462,-4.8462,-4.6544,-4.4356,-4.3632,-4.2907,-4.3342,-4.3487,-4.3777,-4.4136,-4.4473,-4.4832,-4.5186,-4.5117,-4.4212,-4.335,-4.2541,-4.1963,-4.1313,-4.1731,-4.2775,-5.9872,-5.991,-6.0062,-5.9683,-5.9342,-5.9342,-5.9835,-5.9456,-5.9569,-5.9456,-5.9456,-5.9683,-5.9569,-6.0062,-5.9797,-5.9835,-5.9075,-5.7318,-5.5315,-5.3565,-5.3297,-5.3701,-5.4275,-5.4547,-5.4954,-5.5821,-5.604,-5.6377,-5.6693,-5.7302,-5.726,-5.6819,-5.6786,-5.6504,-5.6504,-5.6092,-5.5485,-5.4171,-5.38,-5.281,-5.0869,-5.1198,-5.1499,-5.1227,-5.1227,-5.1421,-5.1148,-5.014,-4.9721,-4.9635,-4.9123,-4.8885,-4.8857,-4.8725,-4.8725,-4.8857,-4.8725,-4.9038,-4.9493,-4.9607,-4.992,-5.046,-5.0574,-5.0858,-5.1399,-5.1598,-5.1826,-5.2252,-5.2423,-5.248,-5.248,-5.2338,-5.2168,-5.231,-5.1743,-5.1289,-5.1032,-5.0035,-4.8775,-4.8319,-4.8606,-4.8918,-4.9062,-4.9062,-4.9088,-4.8972,-4.8515,-4.8032,-4.8032,-4.8032,-4.7889,-4.7889,-4.7314,-4.6713,-4.7145,-4.7289,-4.3632,-4.0848,-4.0411,-4.0411,-4.0994,-4.114,-4.1431,-4.1308,-4.1634,-4.1724,-4.2048,-4.1187,-4.0392,-4.0106,-3.9983,-3.9285,-3.8456,-3.7932,-3.889,-5.6533,-5.733,-5.7403,-5.6483,-5.4978,-5.4978,-5.4978,-5.4978,-5.4978,-5.5905,-5.6943,-5.5674,-5.6979,-5.9456,-5.8241,-5.6598,-5.4944,-5.413,-5.3312,-5.2525,-5.2525,-5.2625,-5.2825,-5.2858,-5.3377,-5.4011,-5.4311,-5.4678,-5.5301,-5.5912,-5.524,-5.3533,-5.3849,-5.3168,-5.1645,-5.1385,-5.1084,-5.0476,-5.0301,-5.0124,-4.9589,-4.9721,-4.9948,-4.9891,-4.9522,-4.9493,-4.992,-4.9586,-4.9635,-4.9607,-4.9436,-4.9152,-4.8754,-4.8725,-4.8725,-4.8725,-4.8725,-4.8942,-4.8981,-4.901,-4.9266,-4.9863,-4.9948,-5.0204,-5.083,-5.1257,-5.157,-5.1854,-5.2167,-5.248,-5.231,-5.1573,-5.0862,-5.0862,-5.072,-5.0578,-5.0435,-4.9607,-4.8918,-4.8632,-4.8462,-4.8529,-4.862,-4.8411,-4.8437,-4.8895,-4.8267,-4.7889,-4.7889,-4.7889,-4.7889,-4.7602,-4.5993,-4.4814,-4.4067,-4.231,-3.8844,-3.8447,-3.8155,-3.8782,-3.9242,-3.9096,-3.895,-3.8803,-3.8699,-3.8615,-3.8212,-3.7199,-3.6626,-3.6271,-3.5951,-3.5639,-3.4652,-3.414,-3.4366,-5.3488,-5.4525,-5.4688,-5.4013,-5.2525,-5.2525,-5.2525,-5.2525,-5.2525,-5.3429,-5.4362,-5.3229,-5.428,-5.7209,-5.4595,-5.2576,-5.1282,-5.1079,-5.0606,-4.9776,-4.9776,-4.9776,-4.9776,-4.9776,-5.0028,-5.0375,-5.0559,-5.0907,-5.1757,-5.2299,-5.18,-5.0376,-5.0453,-4.9764,-4.846,-4.8372,-4.8486,-4.8514,-4.8743,-4.8725,-4.8782,-4.9095,-4.9294,-4.9266,-4.8896,-4.9028,-4.9266,-4.9294,-4.9294,-4.9294,-4.9294,-4.9123,-4.8885,-4.8725,-4.8725,-4.8725,-4.8725,-4.8725,-4.8725,-4.8725,-4.8896,-4.9266,-4.9294,-4.9578,-5.0012,-5.0329,-5.0531,-5.0813,-5.1181,-5.1237,-5.09,-5.0421,-4.9824,-4.9851,-4.973,-4.975,-4.958,-4.9035,-4.8606,-4.8489,-4.8202,-4.8122,-4.8512,-4.8616,-4.8564,-4.8694,-4.8434,-4.7545,-4.6645,-4.6137,-4.5391,-4.4356,-4.2739,-4.1028,-4.0016,-3.6972,-3.5066,-3.5085,-3.5181,-3.52,-3.4815,-3.4391,-3.4649,-3.4206,-3.4243,-3.4132,-3.3836,-3.3066,-3.2803,-3.2475,-3.2112,-3.1433,-2.9964,-3.1561,-3.1285,-5.0808,-5.1542,-5.2043,-5.2107,-5.2055,-5.1937,-5.2022,-5.1669,-5.1937,-5.214,-5.229,-5.1904,-5.2055,-5.2022,-4.9926,-4.8616,-4.8616,-4.8616,-4.7418,-4.5519,-4.5277,-4.5035,-4.4914,-4.4914,-4.5035,-4.5698,-4.5727,-4.5865,-4.6195,-4.6729,-4.6763,-4.6917,-4.7129,-4.7003,-4.699,-4.7474,-4.7858,-4.7786,-4.8429,-4.8771,-4.8771,-4.8743,-4.8583,-4.8714,-4.8771,-4.8771,-4.88,-4.8828,-4.8725,-4.8725,-4.8754,-4.8725,-4.8857,-4.8725,-4.8725,-4.8725,-4.8725,-4.8697,-4.8771,-4.88,-4.8697,-4.88,-4.8857,-4.8981,-4.955,-4.9183,-4.9059,-4.9533,-4.9372,-4.8926,-4.8518,-4.8621,-4.9085,-4.8972,-4.8866,-4.8822,-4.8759,-4.8136,-4.7837,-4.7811,-4.7837,-4.8096,-4.8616,-4.904,-4.8341,-4.7741,-4.781,-4.6658,-4.3514,-4.2865,-4.183,-3.9777,-3.8426,-3.6972,-3.34,-3.1656,-2.9843,-2.9893,-3.0759,-2.9844,-2.933,-2.9048,-2.933,-2.9612,-3.024,-3.0223,-2.9447,-2.933,-2.9596,-2.9607,-2.953,-2.9553,-2.9601,-2.9901,-2.9948,-4.8472,-5.0321,-4.9547,-4.8272,-4.7028,-4.6937,-4.6937,-4.6937,-4.6937,-4.8018,-4.9569,-4.7778,-4.6937,-4.6937,-4.6365,-4.6003,-4.6003,-4.6003,-4.5519,-4.5035,-4.4914,-4.4914,-4.4914,-4.4914,-4.4914,-4.4914,-4.4914,-4.4999,-4.5227,-4.5824,-4.6108,-4.6222,-4.6592,-4.6819,-4.6819,-4.6962,-4.7075,-4.7132,-4.7701,-4.8144,-4.7957,-4.7687,-4.7331,-4.736,-4.7915,-4.8014,-4.8042,-4.86,-4.8725,-4.8697,-4.8725,-4.8725,-4.8725,-4.8725,-4.8725,-4.8725,-4.8725,-4.8657,-4.8172,-4.8571,-4.8657,-4.8128,-4.86,-4.8914,-4.8981,-4.8818,-4.8752,-4.8649,-4.732,-4.6444,-4.6176,-4.676,-4.7103,-4.713,-4.7096,-4.7087,-4.7,-4.7199,-4.7291,-4.7317,-4.7266,-4.7967,-4.7782,-4.6018,-4.3995,-4.205,-4.1132,-3.9894,-3.9215,-3.9094,-3.881,-3.7912,-3.5627,-3.3238,-2.9973,-2.8581,-2.8309,-2.8243,-2.829,-2.848,-2.8669,-2.8464,-2.8369,-2.8669,-2.8448,-2.8385,-2.848,-2.8432,-2.8531,-2.8685,-2.8985,-2.9222,-2.9285,-2.9301,-2.9395,-4.6748,-4.7445,-4.7981,-4.6938,-4.5006,-4.4914,-4.4914,-4.4914,-4.4914,-4.5761,-4.6937,-4.564,-4.4914,-4.4914,-4.4914,-4.4914,-4.4914,-4.4914,-4.4914,-4.4914,-4.4914,-4.4914,-4.4885,-4.4658,-4.4686,-4.4885,-4.4658,-4.4658,-4.4942,-4.5312,-4.5483,-4.5539,-4.5852,-4.6023,-4.6051,-4.6307,-4.6421,-4.645,-4.7047,-4.6452,-4.4953,-4.4435,-4.4381,-4.4408,-4.4705,-4.4941,-4.4725,-4.5124,-4.5205,-4.4988,-4.4961,-4.5345,-4.5985,-4.6363,-4.676,-4.7559,-4.7786,-4.7758,-4.7388,-4.7601,-4.7371,-4.7032,-4.7085,-4.7263,-4.7515,-4.7192,-4.6987,-4.6855,-4.5551,-4.4746,-4.5006,-4.5525,-4.5863,-4.5889,-4.6071,-4.6227,-4.6227,-4.6512,-4.6694,-4.658,-4.5967,-4.5419,-4.5338,-4.3038,-4.0303,-3.8783,-3.8203,-3.738,-3.5734,-3.5553,-3.5127,-3.3689,-3.1851,-2.9626,-2.8194,-2.7738,-2.7848,-2.788,-2.7959,-2.8085,-2.8306,-2.8164,-2.8101,-2.8322,-2.8211,-2.8117,-2.8022,-2.8069,-2.8164,-2.8496,-2.8795,-2.8938,-2.908,-2.9095,-2.9245,-4.529,-4.408,-4.6905,-4.6998,-4.4914,-4.4914,-4.4914,-4.4914,-4.4914,-4.4885,-4.4565,-4.4679,-4.4558,-4.4344,-4.4521,-4.4428,-4.4185,-4.4307,-4.4307,-4.4185,-4.4372,-4.4222,-4.4017,-4.3577,-4.3697,-4.397,-4.3514,-4.333,-4.3896,-4.4157,-4.4307,-4.4307,-4.4428,-4.4241,-4.4391,-4.4896,-4.5148,-4.53,-4.5835,-4.4075,-4.0203,-4.0373,-4.0621,-4.0621,-4.0799,-4.0575,-4.043,-4.0154,-4.0079,-3.9553,-3.9702,-4.0268,-4.1822,-4.2494,-4.3534,-4.5081,-4.5835,-4.6116,-4.6116,-4.5541,-4.5062,-4.526,-4.4708,-4.4651,-4.5136,-4.4175,-4.3604,-4.3917,-4.3239,-4.2815,-4.3829,-4.4235,-4.4298,-4.3755,-4.462,-4.5631,-4.5001,-4.538,-4.5431,-4.5405,-4.2814,-4.1672,-4.2015,-3.962,-3.7648,-3.6871,-3.618,-3.4804,-3.265,-3.2207,-3.1375,-2.8925,-2.7594,-2.7245,-2.7106,-2.7312,-2.7469,-2.7533,-2.7754,-2.7911,-2.7959,-2.7959,-2.7975,-2.7943,-2.7927,-2.7864,-2.788,-2.8006,-2.8085,-2.829,-2.8511,-2.8701,-2.8938,-2.9064,-2.9245,-4.4101,-4.5525,-4.5278,-4.4938,-4.4914,-4.4914,-4.4914,-4.4914,-4.4914,-4.3653,-4.1833,-4.3381,-4.2499,-4.0141,-4.1802,-4.1866,-4.0515,-4.0366,-4.0366,-4.034,-3.9931,-3.9726,-3.9796,-3.9377,-3.9171,-3.9325,-3.9514,-3.9599,-3.9899,-4.0161,-4.0366,-4.0366,-4.0366,-4.0392,-4.0392,-4.0494,-4.0571,-4.0571,-4.0699,-4.0326,-3.9331,-3.9331,-3.953,-3.9555,-3.9927,-4.0003,-3.9605,-3.9954,-3.9954,-3.9553,-3.9503,-3.9627,-3.9997,-4.0247,-4.0421,-4.0818,-4.1045,-4.1122,-4.1024,-4.0355,-4.0028,-4.0527,-4.1264,-4.1798,-4.1592,-3.822,-3.6911,-3.9351,-3.8172,-3.7828,-3.9627,-4.0585,-3.9944,-3.7965,-3.9742,-4.0588,-3.8705,-3.8446,-3.8806,-3.8712,-3.872,-3.8431,-3.7859,-3.5389,-3.3248,-3.2605,-3.067,-2.9138,-2.8595,-2.835,-2.821,-2.7356,-2.7138,-2.7027,-2.7027,-2.7106,-2.7154,-2.7154,-2.7248,-2.7422,-2.758,-2.7438,-2.7375,-2.7596,-2.7469,-2.7343,-2.7296,-2.7469,-2.7706,-2.7864,-2.8243,-2.859,-2.8717,-2.8922,-2.9229,-4.3039,-4.4304,-4.3788,-4.3776,-4.4089,-4.4089,-4.4089,-4.397,-4.239,-4.0673,-3.9319,-4.0552,-3.9972,-3.8232,-3.9471,-3.9478,-3.8414,-3.8662,-3.8663,-3.8639,-3.8488,-3.8339,-3.8265,-3.7615,-3.7515,-3.7988,-3.7823,-3.8095,-3.8711,-3.9009,-3.9158,-3.9158,-3.9158,-3.9158,-3.9158,-3.9158,-3.9158,-3.9034,-3.7275,-3.628,-3.628,-3.628,-3.6188,-3.6081,-3.6335,-3.6274,-3.551,-3.5863,-3.5887,-3.5631,-3.5399,-3.5736,-3.6815,-3.6453,-3.6429,-3.7272,-3.7007,-3.6884,-3.6884,-3.6411,-3.6189,-3.6177,-3.6545,-3.6224,-3.5098,-3.3497,-3.3604,-3.5781,-3.4998,-3.4786,-3.669,-3.722,-3.6852,-3.5139,-3.6567,-3.7074,-3.5817,-3.58,-3.601,-3.6082,-3.5365,-3.4593,-3.4374,-3.1375,-2.9276,-2.8967,-2.7699,-2.6563,-2.6743,-2.6791,-2.6838,-2.6996,-2.7027,-2.7027,-2.7027,-2.7027,-2.7027,-2.7027,-2.7154,-2.728,-2.7248,-2.7359,-2.728,-2.7296,-2.7169,-2.7027,-2.7027,-2.7185,-2.7375,-2.7533,-2.8006,-2.8369,-2.859,-2.8859,-2.9213,-4.2183,-4.2211,-4.2866,-4.3122,-4.3122,-4.2889,-4.2772,-4.2511,-3.8994,-3.7155,-3.6802,-3.7112,-3.7018,-3.657,-3.6998,-3.7141,-3.6953,-3.7176,-3.7394,0.0,-3.7321,-3.7273,-3.7224,-3.6347,-3.6396,-3.7176,-3.6765,-3.708,-3.8073,-3.8119,-3.8167,-3.8143,-3.8267,-3.8143,-3.8291,-3.8167,-3.8291,-3.8167,-3.4782,-3.3027,-3.2964,-3.2964,-3.2776,-3.242,-3.2459,-3.1897,-3.1262,-3.1177,-3.0997,-3.0879,-3.0387,-3.1022,-3.2884,-3.2109,-3.2395,-3.382,-3.341,-3.3063,-3.3063,-3.3063,-3.2727,-3.1858,-3.1462,-3.0118,-2.7628,-2.9336,-3.1147,-3.2422,-3.2027,-3.2374,-3.3735,-3.3881,-3.3663,-3.3226,-3.3699,-3.3946,-3.358,-3.3661,-3.3648,-3.3853,-3.2028,-3.0526,-3.0247,-2.8136,-2.6587,-2.6254,-2.615,-2.6017,-2.627,-2.6364,-2.6522,-2.6854,-2.698,-2.7027,-2.7027,-2.7027,-2.7027,-2.7027,-2.7264,-2.7312,-2.7106,-2.7312,-2.7438,-2.7169,-2.7217,-2.7217,-2.7217,-2.7201,-2.7438,-2.7627,-2.8038,-2.8338,-2.8543,-2.8795,-2.9001,-4.2183,-4.224,-4.2866,-4.3122,-4.3005,-4.1549,-4.0937,-4.0622,0.0,0.0,0.0,-3.44,-3.3555,-3.0906,-3.3746,-3.4307,-3.2771,-3.2857,-3.29,-3.2879,-3.2489,-3.2413,-3.2273,-3.1732,-3.1753,-3.2413,-3.2619,-3.2952,-3.3615,-3.3983,-3.4052,-3.4178,-3.4052,-3.4052,-3.4178,-3.4052,-3.4178,-3.4052,-3.3425,-3.288,-3.2524,-3.2627,-3.2462,-3.2399,-3.2022,-3.175,-3.1583,-3.1325,-3.0525,-2.9461,-2.9263,-2.9222,-2.9312,-2.9497,-2.9824,-3.0427,-2.9803,-2.9353,-2.9353,-2.9353,-2.8576,-2.6681,-2.7832,-2.7277,-2.4044,-2.4496,-2.5915,-2.8673,-2.6909,-2.6593,-2.8937,-2.9611,-2.8948,-2.6885,-2.9096,-2.9832,-2.7982,-2.7667,-2.7934,-2.7734,-2.75,-2.6866,-2.6722,-2.6097,-2.5543,-2.5338,-2.5449,-2.5591,-2.5622,-2.5701,-2.5922,-2.6475,-2.6806,-2.7012,-2.7012,-2.7012,-2.7027,-2.7027,-2.709,-2.709,-2.709,-2.7327,-2.7517,-2.7422,-2.7706,-2.7785,-2.7864,-2.7959,-2.8227,-2.8006,-2.8464,-2.8843,-2.8653,-2.8638,-2.8748,-4.1699,0.0,-4.2041,-4.2155,0.0,-4.03,-3.841,-3.6513,-3.4049,-3.178,-2.9708,-3.0399,-2.957,-2.797,-2.9813,-3.0386,-3.0052,-3.0296,-3.0756,-3.1331,-3.122,-3.1114,-3.1114,-3.0536,-3.0557,-3.1114,-3.1367,-3.1604,-3.2043,-3.2503,-3.2713,-3.2713,-3.2943,-3.2943,-3.2734,-3.2943,-3.2044,-3.0158,-2.8888,-2.8828,-3.0088,-2.8927,-2.871,-2.9715,0.0,0.0,0.0,0.0,0.0,0.0,0.0,0.0,0.0,0.0,0.0,-2.7315,-2.625,-2.5844,-2.608,-2.5762,-2.517,-2.4195,-2.477,-2.4383,-2.2771,-2.2939,-2.3867,-2.5398,-2.4498,-2.432,-2.5704,-2.6137,-2.583,-2.4657,-2.5824,-2.6453,-2.552,-2.5354,-2.5464,-2.5464,-2.5607,-2.5591,-2.5243,-2.5196,-2.5133,-2.4991,-2.5101,-2.5259,-2.5401,-2.5449,-2.5543,-2.5922,-2.6412,-2.6622,-2.6775,-2.6885,-2.7027,-2.7043,-2.7185,-2.7201,-2.7059,-2.7312,-2.7501,-2.7327,-2.7406,-2.7533,-2.7533,-2.7517,-2.7548,-2.7564,-2.7801,-2.8006,-2.8085,-2.8069,-2.8164,-3.9962,-3.9962,-3.9963,-4.0018,-3.9796,-3.7543,-3.4888,-3.2062,-3.0148,-2.868,-2.7512,-2.6494,-2.5917,-2.5685,-2.6148,-2.6762,-2.7511,-2.8148,-2.8908,-2.9788,-2.9671,-2.9788,-3.0119,-2.9156,-2.9256,-3.0248,-2.9795,-2.9779,-3.0238,-3.0598,-3.0757,-3.088,-3.1097,-3.1097,-3.0797,0.0,0.0,0.0,-2.423,-2.4382,-2.6574,-2.4734,-2.4465,-2.5961,-2.4105,0.0,-2.8341,-2.6605,-2.5891,-2.6776,-2.6538,0.0,0.0,0.0,0.0,0.0,0.0,0.0,0.0,0.0,0.0,0.0,-2.1859,-2.1668,-2.1694,-2.2365,-2.2828,-2.3144,-2.3191,-2.3286,-2.3507,-2.357,-2.3649,-2.3712,-2.3791,-2.3949,-2.4296,-2.458,-2.4627,-2.4754,-2.4991,-2.5054,-2.4801,-2.4817,-2.4849,-2.4833,-2.4912,-2.5054,-2.5322,-2.5338,-2.5385,-2.548,-2.5938,-2.6182,-2.6412,-2.6633,-2.6759,-2.6854,-2.709,-2.7106,-2.6869,-2.709,-2.7217,-2.6996,-2.698,-2.7043,-2.7043,-2.6869,-2.6901,-2.6996,-2.7106,-2.6906,-2.6406,-2.6325,-2.6431,-3.5231,-3.5282,-3.5628,-3.583,-3.5448,-3.1323,-2.9271,-2.8718,-2.6872,-2.544,-2.4303,-2.4208,-2.3293,-2.2041,-2.4527,-2.5042,-2.4284,-2.5416,-2.5696,-2.5206,-2.4616,-2.5171,-2.6692,-2.4197,-2.4517,-2.7506,-2.499,-2.411,-2.5077,-2.4637,-2.4776,-2.5143,-2.4702,-2.4579,-2.4547,-2.3949,-2.3148,-2.2175,-2.2194,-2.2209,-2.242,-2.2059,-2.2044,-2.2224,-2.1716,-2.1655,-2.243,-2.1819,-2.1109,-2.0437,-2.0284,-1.9998,-1.9653,-1.9667,-1.9899,0.0,-1.9502,0.0,0.0,0.0,0.0,0.0,0.0,0.0,0.0,-2.0972,-2.2102,-2.2465,-2.2481,-2.237,-2.2102,-2.237,-2.2686,-2.2986,-2.327,-2.3602,-2.3933,-2.4028,-2.4059,-2.4059,-2.4091,-2.4107,-2.4091,-2.4312,-2.4486,-2.4533,-2.4738,-2.4784,-2.5007,-2.4878,-2.5117,-2.5417,-2.5543,-2.5749,-2.6001,-2.6112,-2.6159,-2.6143,-2.6238,-2.6175,-2.6159,-2.6307,-2.6512,-2.648,-2.6515,-2.6703,-2.7027,-2.7077,-2.7124,-2.6734,-2.6859,-2.5833,-2.2726,-2.1824,-2.1643,-3.2815,-3.3406,-3.2943,-3.145,-2.9258,-2.7451,-2.6698,-2.6587,-2.5831,-2.4274,-2.2361,-2.2249,-2.1018,-1.8884,-2.0008,-2.0644,-2.0733,-2.1273,-2.1847,-2.2161,-2.1859,-2.231,-2.3238,-2.1834,-2.2103,-2.3709,-2.2242,-2.1655,-2.2144,-2.2026,-2.2144,-2.238,-2.251,-2.0706,-1.7307,-1.658,-1.6058,-1.5863,-1.7706,-1.8752,-1.8882,-1.7747,-1.77,-1.8986,-1.7551,-1.7988,-2.0892,-1.9327,-1.8547,-1.8667,-1.8641,-1.8143,-1.7244,-1.7177,-1.7496,0.0,0.0,0.0,0.0,0.0,0.0,0.0,0.0,0.0,0.0,0.0,-1.9138,-2.0413,-2.1679,-2.1777,-2.0361,-2.1756,-2.2544,-2.2323,-2.2607,-2.2796,-2.2765,-2.3112,-2.327,-2.3081,-2.3381,-2.3633,-2.3633,-2.3759,-2.398,-2.4375,-2.4407,-2.4375,-2.4391,-2.4549,-2.4707,-2.4865,-2.5038,-2.5291,-2.5638,-2.5859,-2.5985,-2.5985,-2.5985,-2.5585,-2.4517,-2.4382,-2.4065,-2.297,-2.2931,-2.3014,-2.3014,-2.3014,-2.3,-2.2959,-2.3012,-2.2159,-2.0139,-1.9821,-1.9937,-2.9827,-3.0367,-2.8147,-2.5954,-2.4056,-2.3715,-2.3621,-2.3495,-2.3621,-2.2187,-1.9764,-1.9764,-1.8447,-1.6379,-1.6306,-1.6526,-1.7114,-1.7554,-1.8181,-1.9079,-1.8748,-1.9137,-1.9852,-1.8856,-1.9011,-1.9848,-1.895,-1.8587,-1.8748,-1.8802,-1.8957,-1.9085,-1.9205,-1.6845,-1.2034,-1.1383,-1.1223,-1.131,-1.3521,-1.4931,-1.5347,-1.3733,-1.3722,-1.5559,-1.3675,-1.4376,-1.8065,-1.6392,-1.5623,-1.6385,-1.6246,-1.5642,-1.4611,-1.4211,0.0,0.0,0.0,0.0,0.0,0.0,0.0,0.0,0.0,-1.4026,-1.4456,0.0,-1.6442,0.0,-1.9675,-2.0213,-1.9049,-2.0394,0.0,0.0,-2.1565,-2.1558,-2.1283,-2.2187,-2.2623,-2.226,-2.2765,-2.3112,-2.3017,-2.3103,-2.3586,-2.4075,-2.3886,-2.3744,-2.3917,-2.3767,-2.3672,-2.3563,-2.3384,-2.337,-2.3593,-2.4006,-2.401,-2.4171,-2.4156,-2.3647,-2.2071,-2.1862,-2.1373,-1.9917,-1.9556,-1.9604,-1.9604,-1.9363,-1.9172,-1.8058,-1.7681,-1.7425,-1.7363,-1.7574,-1.7729,-2.469,-2.4298,-1.8798,-1.8446,-2.1386,-1.9074,-1.8167,-1.8153,-1.8167,-1.723,-1.5688,-1.5688,-1.5482,-1.5264,-1.5021,0.0,-1.3315,-1.476,-1.5147,-1.4632,-1.397,-1.4742,-1.6514,-1.3753,-1.3977,-1.7005,-1.3954,-1.2837,-1.3217,-1.2837,-1.293,-1.3376,-1.22,-1.1329,-1.0866,-1.0905,-1.0921,-1.077,-1.114,-1.1253,-1.1201,-1.1148,-1.1123,-1.1351,-1.1229,-1.1253,-1.1527,-1.1287,-1.1168,-1.1262,-1.0787,-1.0586,-1.0525,0.0,0.0,0.0,0.0,0.0,0.0,0.0,0.0,0.0,0.0,0.0,0.0,0.0,0.0,0.0,-1.5878,0.0,-1.821,-1.7353,0.0,0.0,0.0,-1.9911,-1.9639,-2.1306,-2.226,-2.1897,0.0,0.0,-2.1991,-2.2781,-2.3412,-2.3459,-2.3191,-2.3207,-2.3838,-2.2305,-2.121,-2.1334,-1.9878,-1.8912,-1.9374,-1.9287,-1.9325,-1.9437,-1.895,-1.9024,-1.8787,-1.8821,-1.8828,-1.8355,-1.8649,-1.8686,-1.8686,-1.8685,-1.7868,-1.3582,-1.2832,-1.2732,-1.3018,-1.3323,-1.365,-2.0018,-1.9594,-1.8224,-1.8006,-1.859,-1.7519,-1.6665,-1.6061,-1.5894,-1.4912,-1.3402,-1.3402,-1.2713,-1.1585,-1.1509,0.0,0.0,0.0,-1.1622,-1.1598,-1.1272,-1.1652,-1.2706,-1.142,-1.1524,-1.2901,-1.1475,-1.1011,-1.1485,-1.1011,-1.0829,-1.0931,0.0,0.0,-0.8542,-0.9701,-0.9854,-0.8788,-0.9958,-1.0731,-1.0745,-1.0834,-1.0753,-1.0847,-1.0753,-1.0731,-1.0564,-1.0556,-1.0461,-1.0247,-1.0038,-0.9873,0.0,0.0,0.0,0.0,0.0,0.0,0.0,0.0,0.0,0.0,0.0,-0.8978,-0.9179,0.0,0.0,0.0,-1.2134,-1.251,-1.4343,-1.5558,0.0,0.0,0.0,0.0,0.0,0.0,0.0,-1.8119,-1.96,-2.0558,-2.0555,-1.9897,-1.9248,-1.9057,-1.9132,-1.9362,-1.9605,0.0,-1.8955,-1.9076,-1.8603,-1.8331,-1.8331,-1.834,-1.8388,-1.8231,-1.8331,-1.796,-1.6733,-1.6426,-1.599,-1.4999,-1.469,-1.4747,-1.4621,-1.4709,-1.3968,-1.2276,-1.1866,-1.1882,-1.1829,-1.2104,-1.2279,-1.5651,0.0,0.0,0.0,0.0,-1.5242,-1.4588,-1.3866,-1.368,-1.2641,-1.1115,-1.1115,0.0,0.0,0.0,0.0,0.0,0.0,-0.9421,-0.9699,-0.9683,-1.0,-1.0302,-1.0128,-1.0199,-1.0469,-1.0132,-1.0085,-1.0203,-0.8941,-0.8195,-0.8034,0.0,0.0,0.0,0.0,-0.8563,-0.744,-0.9296,-1.0524,-1.0818,-1.0699,-1.0699,-1.0706,-1.0651,-1.0509,-1.039,-0.9752,-0.9272,-0.9046,-0.8966,0.0,0.0,0.0,0.0,0.0,0.0,0.0,0.0,0.0,0.0,0.0,0.0,0.0,0.0,0.0,0.0,0.0,0.0,0.0,-1.0878,-1.2892,-1.4254,0.0,0.0,0.0,0.0,0.0,0.0,0.0,0.0,0.0,-1.7932,-1.697,-1.6317,0.0,0.0,-1.6708,-1.6895,-1.6716,-1.6637,-1.6637,-1.6478,0.0,-1.6267,-1.642,-1.6474,-1.63,-1.6278,-1.5788,-1.4316,-1.4033,-1.3638,-1.2227,-1.1874,-1.1834,-1.1739,-1.162,-1.154,-1.1421,-1.146,-1.1612,-1.1628,-1.1747,-1.1921,0.0,0.0,0.0,0.0,0.0,0.0,0.0,0.0,-1.0833,-0.9964,0.0,-0.858,0.0,0.0,0.0,0.0,0.0,-0.8667,0.0,0.0,-0.9493,-0.9762,-0.981,-0.9755,-0.9778,-0.9945,-0.9826,-0.9653,-0.9135,-0.5681,0.0,0.0,0.0,0.0,0.0,0.0,-0.6972,-0.6991,-0.8921,-1.0187,-1.0477,-1.0477,-1.0477,-1.0477,-1.031,-1.0101,-1.0085,-0.8027,-0.6966,-0.6949,-0.6315,0.0,0.0,0.0,0.0,0.0,0.0,0.0,0.0,0.0,0.0,0.0,0.0,0.0,0.0,0.0,0.0,0.0,0.0,0.0,0.0,-0.8966,0.0,0.0,0.0,0.0,0.0,0.0,0.0,0.0,0.0,0.0,-1.3537,-1.4456,-1.5763,-1.6509,0.0,0.0,0.0,0.0,-1.416,-1.416,-1.2698,-1.1756,-1.1756,-1.1764,-1.1772,-1.1756,0.0,0.0,-1.1636,-1.1492,-1.1444,-1.1485,-1.1517,-1.1405,-1.108,-1.091,-1.0902,-1.0902,-1.1144,-1.1247,-1.1263,-1.1374,-1.1548,0.0,0.0,0.0,0.0,0.0,0.0,0.0,0.0,0.0,-0.8338,0.0,-0.785,0.0,0.0,0.0,0.0,0.0,0.0,0.0,0.0,-0.8315,-0.7792,-0.5671,-0.6929,-0.6915,0.0,-0.564,-0.5517,0.0,0.0,0.0,0.0,0.0,0.0,0.0,0.0,-0.3927,-0.2709,-0.4747,-0.663,-0.8154,-0.8268,-0.8926,-1.0461,-1.018,-0.9347,-0.7906,-0.7197,-0.5974,0.0,0.0,0.0,0.0,0.0,0.0,0.0,0.0,0.0,0.0,0.0,0.0,0.0,0.0,0.0,0.0,0.0,0.0,0.0,0.0,0.0,0.0,0.0,-0.9002,0.0,0.0,0.0,0.0,0.0,0.0,0.0,0.0,0.0,-1.0814,-1.1307,-1.1913,-1.2366,-1.2573,-1.2613,-1.2799,0.0,0.0,0.0,0.0,0.0,0.0,0.0,-1.1294,-1.1059,-1.1255,-1.1294,-1.1059,-1.1104,-1.0973,-1.1144,0.0,0.0,-1.0842,-1.0682,-1.069,-1.0794,-1.0763,-1.0763,-1.0866,-1.0858,-1.0937,0.0,0.0,0.0,0.0,0.0,0.0,0.0,0.0,0.0,-0.7143,-0.7069,0.0,0.0,0.0,0.0,0.0,0.0,0.0,0.0,0.0,0.0,0.0,-0.3521,-0.4826,0.0,0.0,0.0,0.0,0.0,0.0,0.0,0.0,0.0,0.0,0.0,0.0,-0.1664,-0.0406,-0.2391,-0.4239,-0.5712,-0.5856,-0.653,-0.8051,-0.803,-0.7118,-0.5489,0.0,0.0,0.0,0.0,0.0,0.0,0.0,0.0,0.0,0.0,0.0,0.0,0.0,0.0,0.0,0.0,0.0,0.0,0.0,0.0,0.0,0.0,0.0,0.0,0.0,-0.8096,0.0,0.0,0.0,0.0,0.0,0.0,0.0,0.0,0.0,0.0,0.0,-0.9794,-1.0038,-1.0342,-1.0485,-1.0612,-1.077,-1.0882,0.0,0.0,0.0,0.0,0.0,0.0,0.0,0.0,0.0,0.0,0.0,0.0,0.0,0.0,-1.0297,-1.0286,-1.027,-1.0286,-1.035,0.0,0.0,0.0,0.0,0.0,0.0,0.0,0.0,0.0,0.0,0.0,0.0,0.0,0.0,0.0,0.0,0.0,0.0,-0.4423,0.0,0.0,0.0,0.0,0.0,0.0,0.0,0.0,0.0,0.0,0.0,0.0,0.0,0.0,0.0,0.0,0.0,0.0,0.0,0.0,0.0,0.0,-0.0189,-0.0294,-0.2032,-0.3128,-0.3501,-0.3453,-0.3482,-0.3585,-0.3531,-0.3468,-0.3402,0.0,0.0,0.0,0.0,0.0,0.0,0.0,0.0,0.0,0.0,0.0,0.0,0.0,0.0,0.0,0.0,0.0,0.0,0.0,0.0,0.0,0.0,0.0,0.0,0.0,0.0,-0.7228,-0.7729,-0.8169,0.0,0.0,0.0,0.0,0.0,0.0,0.0,0.0,0.0,0.0,-0.9928,-0.9952,-1.0297,-1.0486,-1.0588,-1.0699,-1.0729,-1.0839,-1.0839,-1.0839,-1.0847,0.0,0.0,0.0,0.0,0.0,0.0,0.0,0.0,0.0,0.0,0.0,0.0,0.0,0.0,0.0,0.0,0.0,0.0,0.0,0.0,0.0,0.0,0.0,0.0,0.0,0.0,0.0,0.0,0.0,0.0,0.0,0.0,0.0,0.0,0.0,0.0,0.0,0.0,0.0,0.0,0.0,0.0,0.0,0.0,0.0,0.0,0.0,0.0,0.0,0.0,0.0,0.0,0.0,0.0,0.2035,0.2115,0.1615,0.0521,-0.1062,-0.108,-0.184,-0.3421,-0.3468,-0.3389,0.0,0.0,0.0,0.0,0.0,0.0,0.0,0.0,0.0,0.0,0.0,0.0,0.0,0.0,0.0,0.0,0.0,0.0,0.0,0.0,0.0,0.0,0.0,0.0,0.0,0.0,0.0,0.0,-0.5484,-0.6875,-0.8161,0.0,0.0,0.0,0.0,0.0,0.0,0.0,0.0,0.0,0.0,-0.8021,-0.8086,-0.8021,-0.8659,-1.0314,-0.9248,-0.8725,-1.0391,-1.0612,-1.0572,-1.0337,0.0,0.0,0.0,0.0,0.0,0.0,0.0,0.0,0.0,0.0,0.0,0.0,0.0,0.0,0.0,0.0,0.0,0.0,0.0,0.0,0.0,0.0,0.0,0.0,0.0,0.0,0.0,0.0,0.0,0.0,0.0,0.0,0.0,0.0,0.0,0.0,0.0,0.0,0.0,0.0,0.0,0.0,0.0,0.0,0.0,0.0,0.0,0.0,0.0,0.0,0.0,0.0,0.0,0.3006,0.3083,0.3183,0.2689,0.1366,0.1275,0.064,-0.0743,-0.0824,-0.0903,0.0,0.0,0.0,0.0,0.0,0.0,0.0,0.0,0.0,0.0,0.0,0.0,0.0,0.0,0.0,0.0,0.0,0.0,0.0,0.0,0.0,0.0,0.0,0.0,0.0,0.0,0.0,0.0,-0.3743,-0.4972,-0.6019,0.0,0.0,0.0,0.0,0.0,0.0,0.0,0.0,0.0,0.0,-0.6926,-0.6948,-0.695,0.0,0.0,-0.844,-0.7649,-0.9928,-1.0302,-1.0223,-1.0007,-0.9991,0.0,0.0,0.0,0.0,0.0,0.0,0.0,0.0,0.0,0.0,0.0,0.0,0.0,0.0,0.0,0.0,0.0,0.0,0.0,0.0,0.0,0.0,0.0,0.0,0.0,0.0,0.0,0.0,0.0,0.0,0.0,0.0,0.0,0.0,0.0,0.0,0.0,0.0,0.0,0.0,0.0,0.0,0.0,0.0,0.0,0.0,0.0,0.0,0.0,0.0,0.0,0.0,0.0,0.2881,0.3203,0.3252,0.3305,0.331,0.3336,0.3484,0.3228,0.3037,0.0,0.0,0.0,0.0,0.0,0.0,0.0,0.0,0.0,0.0,0.0,0.0,0.0,0.0,0.0,0.0,0.0,0.0,0.0,0.0,0.0,0.0,0.0,0.0,0.0,0.0,0.0,0.0,0.0,0.0,0.0,0.0,0.0,0.0,0.0,0.0,0.0,0.0,0.0,0.0,0.0,-0.6224,-0.6684,-0.6543,-0.7231,0.0,0.0,-0.7086,-0.9308,-0.9697,-0.9684,-0.9464,0.0,0.0,0.0,0.0,0.0,0.0,0.0,0.0,0.0,0.0,0.0,0.0,0.0,0.0,0.0,0.0,0.0,0.0,0.0,0.0,0.0,0.0,0.0,0.0,0.0,0.0,0.0,0.0,0.0,0.0,0.0,0.0,0.0,0.0,0.0,0.0,0.0,0.0,0.0,0.0,0.0,0.0,0.0,0.0,0.0,0.0,0.0,0.0,0.0,0.0,0.0,0.0,0.0,0.0,0.2814,0.3045,0.3193,0.335,0.3291,0.3281,0.3209,0.3167,0.0,0.0,0.0,0.0,0.0,0.0,0.0,0.0,0.0,0.0,0.0,0.0,0.0,0.0,0.0,0.0,0.0,0.0,0.0,0.0,0.0,0.0,0.0,0.0,0.0,0.0,0.0,0.0884,0.0,0.0,0.0,0.0,0.0,0.0,0.0,0.0,0.0,0.0,0.0,0.0,0.0,0.0,-0.2753,-0.4159,-0.2932,-0.3283,0.0,0.0,-0.4347,-0.521,-0.6631,-0.7113,0.0,0.0,0.0,0.0,0.0,0.0,0.0,0.0,0.0,0.0,0.0,0.0,0.0,0.0,0.0,0.0,0.0,0.0,0.0,0.0,0.0,0.0,0.0,0.0,0.0,0.0,0.0,0.0,0.0,0.0,0.0,0.0,0.0,0.0,0.0,0.0,0.0,0.0,0.0,0.0,0.0,0.0,0.0,0.0,0.0,0.0,0.0,0.0,0.0,0.0,0.0,0.0,0.0,0.0,0.2706,0.2706,0.288,0.3108,0.3188,0.3172,0.3146,0.3106,0.3055,0.2952,0.0,0.0,0.0,0.0,0.0,0.0,0.0,0.0,0.0,0.0,0.0,0.0,0.0,0.0,0.0,0.0,0.0,0.0,0.0,0.0,0.0,0.0,0.0,0.0,0.0,0.0,0.0,0.0,0.0,0.0,0.0,0.0,0.0,0.0,0.0,0.0,0.0,0.0,0.0,0.0,0.0,0.0,-0.2016,-0.0984,0.0,0.0,0.0,-0.2214,-0.3487,0.0,0.0,0.0,0.0,0.0,0.0,0.0,0.0,0.0,0.0,0.0,0.0,0.0,0.0,0.0,0.0,0.0,0.0,0.0,0.0,0.0,0.0,0.0,0.0,0.0,0.0,0.0,0.0,0.0,0.0,0.0,0.0,0.0,0.0,0.0,0.0,0.0,0.0,0.0,0.0,0.0,0.0,0.0,0.0,0.0,0.0,0.0,0.0,0.0,0.0,0.0,0.0,0.0,0.0,0.0,0.0,0.0,0.2693,0.2806,0.301,0.3111,0.2927,0.2989,0.3126,0.2934,0.2843,0.0,0.0,0.0,0.0,0.0,0.0,0.0,0.0,0.0,0.0,0.0,0.0,0.0,0.0,0.0,0.0,0.0,0.0,0.0,0.0,0.0,0.0,0.0,0.0,0.0,0.0,0.0,0.0,0.0,0.0,0.0,0.0,0.0,0.0,0.0,0.0,0.0,0.0,0.0,0.0,0.0,0.0,-0.0375,0.0,-0.0582,0.0,0.0,-0.068,-0.2427,-0.2914,0.0,0.0,0.0,0.0,0.0,0.0,0.0,0.0,0.0,0.0,0.0,0.0,0.0,0.0,0.0,0.0,0.0,0.0,0.0,0.0,0.0,0.0,0.0,0.0,0.0,0.0,0.0,0.0,0.0,0.0,0.0,0.0,0.0,0.0,0.0,0.0,0.0,0.0,0.0,0.0,0.0,0.0,0.0,0.0,0.0,0.0,0.0,0.0,0.0,0.0,0.0,0.0,0.0,0.0,0.0,0.0,0.2719,0.2835,0.2931,0.2997,0.2886,0.2949,0.3006,0.2891,0.2809,0.0,0.0,0.0,0.0,0.0,0.0,0.0,0.0,0.0,0.0,0.0,0.0,0.0,0.0,0.0,0.0,0.0,0.0,0.0,0.0,0.0,0.0,0.0,0.0,0.0,0.0,0.0,0.0,0.0,0.0,0.0,0.0,0.0,0.0,0.0,0.0,0.0,0.0,0.0,0.0,0.0,0.1442,-0.0177,0.1175,0.0,0.0,0.0,0.0,0.1464,0.0177,0.0,0.0,0.0,0.0,0.0,0.0,0.0,0.0,0.0,0.0,0.0,0.0,0.0,0.0,0.0,0.0,0.0,0.0,0.0,0.0,0.0,0.0,0.0,0.0,0.0,0.0,0.0,0.0,0.0,0.0,0.0,0.0,0.0,0.0,0.0,0.0,0.0,0.0,0.0,0.0,0.0,0.0,0.0,0.0,0.0,0.0,0.0,0.0,0.0,0.0,0.0,0.0,0.0,0.0,0.0,0.0,0.2737,0.2804,0.2865,0.292,0.2926,0.2896,0.2838,0.2862,0.2798,0.0,0.0,0.0,0.0,0.0,0.0,0.0,0.0,0.0,0.0,0.0,0.0,0.0,0.0,0.0,0.0,0.0,0.0,0.0,0.0,0.0,0.0,0.0,0.0,0.0,0.0,0.0,0.0,0.0,0.0,0.0,0.0,0.0,0.0,0.0,0.0,0.0,0.0,0.0,0.0,0.2539,0.2153,0.1282,0.0,0.0,0.0,0.0,0.0,0.0,0.1926,0.1467,0.0,0.0,0.0,0.0,0.0,0.0,0.0,0.0,0.0,0.0,0.0,0.0,0.0,0.0,0.0,0.0,0.0,0.0,0.0,0.0,0.0,0.0,0.0,0.0,0.0,0.0,0.0,0.0,0.0,0.0,0.0,0.0,0.0,0.0,0.0,0.0,0.0,0.0,0.0,0.0,0.0,0.0,0.0,0.0,0.0,0.0,0.0,0.0,0.0,0.0,0.0,0.0,0.0,0.0,0.0,0.2657,0.2767,0.2804,0.2862,0.2854,0.283,0.2706,0.283,0.2772,0.2531,0.0,0.0,0.0,0.0,0.0,0.0,0.0,0.0,0.0,0.0,0.0,0.0,0.0,0.0,0.0,0.0,0.0,0.0,0.0,0.0,0.0,0.0,0.0,0.0,0.0,0.0,0.0,0.0,0.0,0.0,0.0,0.0,0.0,0.0,0.0,0.0,0.0,0.0,0.0,0.2518,0.2539,0.0,0.0,0.0,0.0,0.0,0.0,0.0,0.0,0.2769,0.0,0.0,0.0,0.0,0.0,0.0,0.0,0.0,0.0,0.0,0.0,0.0,0.0,0.0,0.0,0.0,0.0,0.0,0.0,0.0,0.0,0.0,0.0,0.0,0.0,0.0,0.0,0.0,0.0,0.0,0.0,0.0,0.0,0.0,0.0,0.0,0.0,0.0,0.0,0.0,0.0,0.0,0.0,0.0,0.0,0.0,0.0,0.0,0.0,0.0,0.0,0.0,0.0,0.0,0.0,0.0,0.2666,0.2743,0.2711,0.2753,0.2748,0.2701,0.2751,0.2671,0.2549,0.0,0.0,0.0,0.0,0.0,0.0,0.0,0.0,0.0,0.0,0.0,0.0,0.0,0.0,0.0,0.0,0.0,0.0,0.0,0.0,0.0,0.0,0.0,0.0,0.0,0.0,0.0,0.0,0.0,0.0,0.0,0.0,0.0,0.0,0.0,0.0,0.0,0.0,0.2517,0.2515,0.0,0.0,0.0,0.0,0.0,0.0,0.0,0.0,0.2639,0.0,0.0,0.0,0.0,0.0,0.0,0.0,0.0,0.0,0.0,0.0,0.0,0.0,0.0,0.0,0.0,0.0,0.0,0.0,0.0,0.0,0.0,0.0,0.0,0.0,0.0,0.0,0.0,0.0,0.0,0.0,0.0,0.0,0.0,0.0,0.0,0.0,0.0,0.0,0.0,0.0,0.0,0.0,0.0,0.0,0.0,0.0,0.0,0.0,0.0,0.0,0.0,0.0,0.0,0.0,0.0,0.0,0.0,0.2714,0.2743,0.2777,0.2777,0.274,0.2708,0.2555,0.0,0.0,0.0,0.0,0.0,0.0,0.0,0.0,0.0,0.0,0.0,0.0,0.0,0.0,0.0,0.0,0.0,0.0,0.0,0.0,0.0,0.0,0.0,0.0,0.0,0.0,0.0,0.0,0.0,0.0,0.0,0.0,0.0,0.0,0.0,0.0,0.0,0.0,0.0,0.0,0.0,0.0,0.0,0.0,0.0,0.0,0.0,0.0,0.0,0.0,0.0,0.0,0.0,0.0,0.0,0.0,0.0,0.0,0.0,0.0,0.0,0.0,0.0,0.0,0.0,0.0,0.0,0.0,0.0,0.0,0.0,0.0,0.0,0.0,0.0,0.0,0.0,0.0,0.0,0.0,0.0,0.0,0.0,0.0,0.0,0.0,0.0,0.0,0.0,0.0,0.0,0.0,0.0,0.0,0.0,0.0,0.0,0.0,0.0,0.0,0.0,0.0,0.0,0.0,0.0,0.0,0.0,0.0,0.2695,0.2722,0.2788,0.279,0.2722,0.2565,0.248,0.0,0.0,0.0,0.0,0.0,0.0,0.0,0.0,0.0,0.0,0.0,0.0,0.0,0.0,0.0,0.0,0.0,0.0,0.0,0.0,0.0,0.0,0.0,0.0,0.0,0.0,0.0,0.0,0.0,0.0,0.0,0.0,0.0,0.0,0.0,0.0,0.0,0.0,0.0,0.0,0.0,0.0,0.0,0.0,0.0,0.0,0.0,0.0,0.2488,0.0,0.0,0.0,0.0,0.0,0.0,0.0,0.0,0.0,0.0,0.0,0.0,0.0,0.0,0.0,0.0,0.0,0.0,0.0,0.0,0.0,0.0,0.0,0.0,0.0,0.0,0.0,0.0,0.0,0.0,0.0,0.0,0.0,0.0,0.0,0.0,0.0,0.0,0.0,0.0,0.0,0.0,0.0,0.0,0.0,0.0,0.0,0.0,0.0,0.0,0.0,0.0,0.0,0.0,0.0,0.0,0.0,0.0,0.0,0.2595,0.2688,0.2611,0.2606,0.2685,0.258,0.2429,0.0,0.0,0.0,0.0,0.0,0.0,0.0,0.0,0.0,0.0,0.0,0.0,0.0,0.0,0.0,0.0,0.0,0.0,0.0,0.0,0.0,0.0,0.0,0.0,0.0,0.0,0.0,0.0,0.0,0.0,0.0,0.0,0.0,0.0,0.0,0.0,0.0,0.0,0.0,0.0,0.0,0.0,0.0,0.0,0.0,0.0,0.0,0.0,0.0,0.0,0.0,0.0,0.0,0.0,0.0,0.0,0.0,0.0,0.0,0.0,0.0,0.0,0.0,0.0,0.0,0.0,0.0,0.0,0.0,0.0,0.0,0.0,0.0,0.0,0.0,0.0,0.0,0.0,0.0,0.0,0.0,0.0,0.0,0.0,0.0,0.0,0.0,0.0,0.0,0.0,0.0,0.0,0.0,0.0,0.0,0.0,0.0,0.0,0.0,0.0,0.0,0.0,0.0,0.0,0.0,0.0,0.0,0.0,0.2511,0.2639,0.2606,0.2608,0.2639,0.2496,0.2385,0.0,0.0,0.0,0.0,0.0,0.0,0.0,0.0,0.0,0.0,0.0,0.0,0.0,0.0,0.0,0.0,0.0,0.0,0.0,0.0,0.0,0.0,0.0,0.0,0.0,0.0,0.0,0.0,0.0,0.0,0.0,0.0,0.0,0.0,0.0,0.0,0.0,0.0,0.0,0.0,0.0,0.0,0.0,0.0,0.0,0.0,0.0,0.0,0.0,0.0,0.0,0.0,0.0,0.0,0.0,0.0,0.0,0.0,0.0,0.0,0.0,0.0,0.0,0.0,0.0,0.0,0.0,0.0,0.0,0.0,0.0,0.0,0.0,0.0,0.0,0.0,0.0,0.0,0.0,0.0,0.0,0.0,0.0,0.0,0.0,0.0,0.0,0.0,0.0,0.0,0.0,0.0,0.0,0.0,0.0,0.0,0.0,0.0,0.0,0.0,0.0,0.0,0.0,0.0,0.0,0.0,0.0,0.0,0.0,0.2515,0.258,0.2588,0.2512,0.244,0.229,0.0,0.0,0.0,0.0,0.0,0.0,0.0,0.0,0.0,0.0,0.0,0.0,0.0,0.0,0.0,0.0,0.0,0.0,0.0,0.0,0.0,0.0,0.0,0.0,0.0,0.0,0.0,0.0,0.0,0.0,0.0,0.0,0.0,0.0,0.0,0.0,0.0,0.0,0.0,0.0,0.0,0.0,0.0,0.0,0.0,0.0,0.0,0.0,0.0,0.0,0.0,0.0,0.0,0.0,0.0,0.0,0.0,0.0,0.0,0.0,0.0,0.0,0.0,0.0,0.0,0.0,0.0,0.0,0.0,0.0,0.0,0.0,0.0,0.0,0.0,0.0,0.0,0.0,0.0,0.0,0.0,0.0,0.0,0.0,0.0,0.0,0.0,0.0,0.0,0.0,0.0,0.0,0.0,0.0,0.0,0.0,0.0,0.0,0.0,0.0,0.0,0.0,0.0,0.0,0.0,0.0,0.0,0.0,0.0,0.2525,0.2565,0.257,0.2528,0.2382,0.2274,0.0,0.0,0.0,0.0,0.0,0.0,0.0,0.0,0.0,0.0,0.0,0.0,0.0,0.0,0.0,0.0,0.0,0.0,0.0,0.0,0.0,0.0,0.0,0.0,0.0,0.0,0.0,0.0,0.0,0.0,0.0,0.0,0.0,0.0,0.0,0.0,0.0,0.0,0.0,0.0,0.0,0.0,0.0,0.0,0.0,0.0,0.0,0.0,0.0,0.0,0.0,0.0,0.0,0.0,0.0,0.0,0.0,0.0,0.0,0.0,0.0,0.0,0.0,0.0,0.0,0.0,0.0,0.0,0.0,0.0,0.0,0.0,0.0,0.0,0.0,0.0,0.0,0.0,0.0,0.0,0.0,0.0,0.0,0.0,0.0,0.0,0.0,0.0,0.0,0.0,0.0,0.0,0.0,0.0,0.0,0.0,0.0,0.0,0.0,0.0,0.0,0.0,0.0,0.0,0.0,0.0,0.0,0.0,0.0,0.2304,0.2337,0.2377,0.2408,0.2276,0.2213,0.2144,0.0,0.0,0.0,0.0,0.0,0.0,0.0,0.0,0.0,0.0,0.0,0.0,0.0,0.0,0.0,0.0,0.0,0.0,0.0,0.0,0.0,0.0,0.0,0.0,0.0,0.0,0.0,0.0,0.0,0.0,0.0,0.0,0.0,0.0,0.0,0.0,0.0,0.0,0.0,0.0,0.0,0.0,0.0,0.0,0.0,0.0,0.0,0.0,0.0,0.0,0.0,0.0,0.0,0.0,0.0,0.0,0.0,0.0,0.0,0.0,0.0,0.0,0.0,0.0,0.0,0.0,0.0,0.0,0.0,0.0,0.0,0.0,0.0,0.0,0.0,0.0,0.0,0.0,0.0,0.0,0.0,0.0,0.0,0.0,0.0,0.0,0.0,0.0,0.0,0.0,0.0,0.0,0.0,0.0,0.0,0.0,0.0,0.0,0.0,0.0,0.0,0.0,0.0,0.0,0.0,0.0,0.0,0.0,0.207,0.2265,0.232,0.2282,0.2192,0.2079,0.0,0.0,0.0,0.0,0.0,0.0,0.0,0.0,0.0,0.0,0.0,0.0,0.0,0.0,0.0,0.0,0.0,0.0,0.0,0.0,0.0,0.0,0.0,0.0,0.0,0.0,0.0,0.0,0.0,0.0,0.0,0.0,0.0,0.0,0.0,0.0,0.0,0.0,0.0,0.0,0.0,0.0,0.0,0.0,0.0,0.0,0.0,0.0,0.0,0.0,0.0,0.0,0.0,0.0,0.0,0.0,0.0,0.0,0.0,0.0,0.0,0.0,0.0,0.0,0.0,0.0,0.0,0.0,0.0,0.0,0.0,0.0,0.0,0.0,0.0,0.0,0.0,0.0,0.0,0.0,0.0,0.0,0.0,0.0,0.0,0.0,0.0,0.0,0.0,0.0,0.0,0.0,0.0,0.0,0.0,0.0,0.0,0.0,0.0,0.0,0.0,0.0,0.0,0.0,0.0,0.0,0.0,0.0,0.1836,0.1941,0.2176,0.2279,0.2164,0.2149,0.2008,0.0,0.0,0.0,0.0,0.0,0.0,0.0,0.0,0.0,0.0,0.0,0.0,0.0,0.0,0.0,0.0,0.0,0.0,0.0,0.0,0.0,0.0,0.0,0.0,0.0,0.0,0.0,0.0,0.0,0.0,0.0,0.0,0.0,0.0,0.0,0.0,0.0,0.0,0.0,0.0,0.0,0.0,0.0,0.0,0.0,0.0,0.0,0.0,0.0,0.0,0.0,0.0,0.0,0.0,0.0,0.0,0.0,0.0,0.0,0.0,0.0,0.0,0.0,0.0,0.0,0.0,0.0,0.0,0.0,0.0,0.0,0.0,0.0,0.0,0.0,0.0,0.0,0.0,0.0,0.0,0.0,0.0,0.0,0.0,0.0,0.0,0.0,0.0,0.0,0.0,0.0,0.0,0.0,0.0,0.0,0.0,0.0,0.0,0.0,0.0,0.0,0.0,0.0,0.0,0.0,0.0,0.0,0.0,0.0,0.1831,0.0,0.2149,0.0,0.2131,0.2048,0.0,0.0,0.0,0.0,0.0,0.0,0.0,0.0,0.0,0.0,0.0,0.0,0.0,0.0,0.0,0.0,0.0,0.0,0.0,0.0,0.0,0.0,0.0,0.0,0.0,0.0,0.0,0.0,0.0,0.0,0.0,0.0,0.0,0.0,0.0,0.0,0.0,0.0,0.0,0.0,0.0,0.0,0.0,0.0,0.0,0.0,0.0,0.0,0.0,0.0,0.0,0.0,0.0,0.0,0.0,0.0,0.0,0.0,0.0,0.0,0.0,0.0,0.0,0.0,0.0,0.0,0.0,0.0,0.0,0.0,0.0,0.0,0.0,0.0,0.0,0.0,0.0,0.0,0.0,0.0,0.0,0.0,0.0,0.0,0.0,0.0,0.0,0.0,0.0,0.0,0.0,0.0,0.0,0.0,0.0,0.0,0.0,0.0,0.0,0.0,0.0,0.0,0.0,0.0,0.0,0.0,0.0,0.0,0.0,0.1744,0.1927,0.2044,0.208,0.2048,0.2028,0.0,0.0,0.0,0.0,0.0,0.0,0.0,0.0,0.0,0.0,0.0,0.0,0.0,0.0,0.0,0.0,0.0,0.0,0.0,0.0,0.0,0.0,0.0,0.0,0.0,0.0,0.0,0.0,0.0,0.0,0.0,0.0,0.0,0.0,0.0,0.0,0.0,0.0,0.0,0.0,0.0,0.0,0.0,0.0,0.0,0.0,0.0,0.0,0.0,0.0,0.0,0.0,0.0,0.0,0.0,0.0,0.0,0.0,0.0,0.0,0.0,0.0,0.0,0.0,0.0,0.0,0.0,0.0,0.0,0.0,0.0,0.0,0.0,0.0,0.0,0.0,0.0,0.0,0.0,0.0,0.0,0.0,0.0,0.0,0.0,0.0,0.0,0.0,0.0,0.0,0.0,0.0,0.0,0.0,0.0,0.0,0.0,0.0,0.0,0.0,0.0,0.0,0.0,0.0,0.0,0.0,0.0,0.0,0.0,0.0,0.1738,0.1795,0.1968,0.1973,0.1888,0.0,0.0,0.0,0.0,0.0,0.0,0.0,0.0,0.0,0.0,0.0,0.0,0.0,0.0,0.0,0.0,0.0,0.0,0.0,0.0,0.0,0.0,0.0,0.0,0.0,0.0,0.0,0.0,0.0,0.0,0.0,0.0,0.0,0.0,0.0,0.0,0.0,0.0,0.0,0.0,0.0,0.0,0.0,0.0,0.0,0.0,0.0,0.0,0.0,0.0,0.0,0.0,0.0,0.0,0.0,0.0,0.0,0.0,0.0,0.0,0.0,0.0,0.0,0.0,0.0,0.0,0.0,0.0,0.0,0.0,0.0,0.0,0.0,0.0,0.0,0.0,0.0,0.0,0.0,0.0,0.0,0.0,0.0,0.0,0.0,0.0,0.0,0.0,0.0,0.0,0.0,0.0,0.0,0.0,0.0,0.0,0.0,0.0,0.0,0.0,0.0,0.0,0.0,0.0,0.0,0.0,0.0,0.0,0.0,0.0,0.1723,0.0,0.1786,0.1794,0.1784,0.1598,0.0,0.0,0.0,0.0,0.0,0.0,0.0,0.0,0.0,0.0,0.0,0.0,0.0,0.0,0.0,0.0,0.0,0.0,0.0,0.0,0.0,0.0,0.0,0.0,0.0,0.0,0.0,0.0,0.0,0.0,0.0,0.0,0.0,0.0,0.0,0.0,0.0,0.0,0.0,0.0,0.0,0.0,0.0,0.0,0.0,0.0,0.0,0.0,0.0,0.0,0.0,0.0,0.0,0.0,0.0,0.0,0.0,0.0,0.0,0.0,0.0,0.0,0.0,0.0,0.0,0.0,0.0,0.0,0.0,0.0,0.0,0.0,0.0,0.0,0.0,0.0,0.0,0.0,0.0,0.0,0.0,0.0,0.0,0.0,0.0,0.0,0.0,0.0,0.0,0.0,0.0,0.0,0.0,0.0,0.0,0.0,0.0,0.0,0.0,0.0,0.0,0.0,0.0,0.0,0.0,0.0,0.0,0.0,0.0,0.0,0.0,0.1672,0.172,0.1688,0.0,0.0,0.0,0.0,0.0,0.0,0.0,0.0,0.0,0.0,0.0,0.0,0.0,0.0,0.0,0.0,0.0,0.0,0.0,0.0,0.0,0.0,0.0,0.0,0.0,0.0,0.0,0.0,0.0,0.0,0.0,0.0,0.0,0.0,0.0,0.0,0.0,0.0,0.0,0.0,0.0,0.0,0.0,0.0,0.0,0.0,0.0,0.0,0.0,0.0,0.0,0.0,0.0,0.0,0.0,0.0,0.0,0.0,0.0,0.0,0.0,0.0,0.0,0.0,0.0,0.0,0.0,0.0,0.0,0.0,0.0,0.0,0.0,0.0,0.0,0.0,0.0,0.0,0.0,0.0,0.0,0.0,0.0,0.0,0.0,0.0,0.0,0.0,0.0,0.0,0.0,0.0,0.0,0.0,0.0,0.0,0.0,0.0,0.0,0.0,0.0,0.0,0.0,0.0,0.0,0.0,0.0,0.0,0.0,0.0,0.0,0.1566,0.1563,0.1675,0.0,0.1466,0.0,0.0,0.0,0.0,0.0,0.0,0.0,0.0,0.0,0.0,0.0,0.0,0.0,0.0,0.0,0.0,0.0,0.0,0.0,0.0,0.0,0.0,0.0,0.0,0.0,0.0,0.0,0.0,0.0,0.0,0.0,0.0,0.0,0.0,0.0,0.0,0.0,0.0,0.0,0.0,0.0,0.0,0.0,0.0,0.0,0.0,0.0,0.0,0.0,0.0,0.0,0.0,0.0,0.0,0.0,0.0,0.0,0.0,0.0,0.0,0.0,0.0,0.0,0.0,0.0,0.0,0.0,0.0,0.0,0.0,0.0,0.0,0.0,0.0,0.0,0.0,0.0,0.0,0.0,0.0,0.0,0.0,0.0,0.0,0.0,0.0,0.0,0.0,0.0,0.0,0.0,0.0,0.0,0.0,0.0,0.0,0.0,0.0,0.0,0.0,0.0,0.0,0.0,0.0,0.0,0.0,0.0,0.0,0.0,0.0,0.0,0.0,0.1667,0.1651,0.1399,0.0,0.0,0.0,0.0,0.0,0.0,0.0,0.0,0.0,0.0,0.0,0.0,0.0,0.0,0.0,0.0,0.0,0.0,0.0,0.0,0.0,0.0,0.0,0.0,0.0,0.0,0.0,0.0,0.0,0.0,0.0,0.0,0.0,0.0,0.0,0.0,0.0,0.0,0.0,0.0,0.0,0.0,0.0,0.0,0.0,0.0,0.0,0.0,0.0,0.0,0.0,0.0,0.0,0.0,0.0,0.0,0.0,0.0,0.0,0.0,0.0,0.0,0.0,0.0,0.0,0.0,0.0,0.0,0.0,0.0,0.0,0.0,0.0,0.0,0.0,0.0,0.0,0.0,0.0,0.0,0.0,0.0,0.0,0.0,0.0,0.0,0.0,0.0,0.0,0.0,0.0,0.0,0.0,0.0,0.0,0.0,0.0,0.0,0.0,0.0,0.0,0.0,0.0,0.0,0.0,0.0,0.0,0.0,0.0,0.0,0.1607,0.1498,0.1684,0.1626,0.1319,0.0,0.0,0.0,0.0,0.0,0.0,0.0,0.0,0.0,0.0,0.0,0.0,0.0,0.0,0.0,0.0,0.0,0.0,0.0,0.0,0.0,0.0,0.0,0.0,0.0,0.0,0.0,0.0,0.0,0.0,0.0,0.0,0.0,0.0,0.0,0.0,0.0,0.0,0.0,0.0,0.0,0.0,0.0,0.0,0.0,0.0,0.0,0.0,0.0,0.0,0.0,0.0,0.0,0.0,0.0,0.0,0.0,0.0,0.0,0.0,0.0,0.0,0.0,0.0,0.0,0.0,0.0,0.0,0.0,0.0,0.0,0.0,0.0,0.0,0.0,0.0,0.0,0.0,0.0,0.0,0.0,0.0,0.0,0.0,0.0,0.0,0.0,0.0,0.0,0.0,0.0,0.0,0.0,0.0,0.0,0.0,0.0,0.0,0.0,0.0,0.0,0.0,0.0,0.0,0.0,0.0,0.0,0.0,0.0,0.0,0.0,0.0,0.0,0.0,0.0894,0.0,0.0,0.0,0.0,0.0,0.0,0.0,0.0,0.0,0.0,0.0,0.0,0.0,0.0,0.0,0.0,0.0,0.0,0.0,0.0,0.0,0.0,0.0,0.0,0.0,0.0,0.0,0.0,0.0,0.0,0.0,0.0,0.0,0.0,0.0,0.0,0.0,0.0,0.0,0.0,0.0,0.0,0.0,0.0,0.0,0.0,0.0,0.0,0.0,0.0,0.0,0.0,0.0,0.0,0.0,0.0,0.0,0.0,0.0,0.0,0.0,0.0,0.0,0.0,0.0,0.0,0.0,0.0,0.0,0.0,0.0,0.0,0.0,0.0,0.0,0.0,0.0,0.0,0.0,0.0,0.0,0.0,0.0,0.0,0.0,0.0,0.0,0.0,0.0,0.0,0.0,0.0,0.0,0.0,0.0,0.0,0.0,0.0,0.0,0.0,0.0,0.0,0.0,0.0,0.0,0.0,0.0,0.0,0.0,0.0,0.0,0.0,0.0,0.0,0.0,0.0,0.0,0.0,0.0,0.0,0.0,0.0,0.0,0.0,0.0,0.0,0.0,0.0,0.0,0.0,0.0,0.0,0.0,0.0,0.0,0.0,0.0,0.0,0.0,0.0,0.0,0.0,0.0,0.0,0.0,0.0,0.0,0.0,0.0,0.0,0.0,0.0,0.0,0.0,0.0,0.0,0.0,0.0,0.0,0.0,0.0,0.0,0.0,0.0,0.0,0.0,0.0,0.0,0.0,0.0,0.0,0.0,0.0,0.0,0.0,0.0,0.0,0.0,0.0,0.0,0.0,0.0,0.0,0.0,0.0,0.0,0.0,0.0,0.0,0.0,0.0,0.0,0.0,0.0,0.0,0.0,0.0,0.0,0.0,0.0,0.0,0.0,0.0,0.0,0.0,0.0,0.0,0.0,0.0,0.0,0.0,0.0,0.0,0.0,0.0,0.0,0.0,0.0,0.0,0.0,0.0,0.0,0.0,0.0,0.0,0.0,0.0,0.0,0.0,0.0,0.0,0.0,0.0,0.0,0.0,0.0,0.0,0.0,0.0,0.0,0.0,0.0,0.0,0.0,0.0,0.0,0.0,0.0,0.0,0.0,0.0,0.0,0.0,0.0,0.0,0.0,0.0,0.0,0.0,0.0,0.0,0.0,0.0,0.0,0.0,0.0,0.0,0.0,0.0,0.0,0.0,0.0,0.0,0.0,0.0,0.0,0.0,0.0,0.0,0.0,0.0,0.0,0.0,0.0,0.0,0.0,0.0,0.0,0.0,0.0,0.0,0.0,0.0,0.0,0.0,0.0,0.0,0.0,0.0,0.0,0.0,0.0,0.0,0.0,0.0,0.0,0.0,0.0,0.0,0.0,0.0,0.0,0.0,0.0,0.0,0.0,0.0,0.0,0.0,0.0,0.0,0.0,0.0,0.0,0.0,0.0,0.0,0.0,0.0,0.0,0.0,0.0,0.0,0.0,0.0,0.0,0.0,0.0,0.0,0.0,0.0,0.0,0.0,0.0,0.0,0.0,0.0,0.0,0.0,0.0,0.0,0.0,0.0,0.0,0.0,0.0,0.0,0.0,0.0,0.0,0.0,0.0,0.0,0.0,0.0,0.0,0.0,0.0,0.0,0.0,0.0,0.0,0.0,0.0,0.0,0.0,0.0,0.0,0.0,0.0,0.0,0.0,0.0,0.0,0.0,0.0,0.0,0.0,0.0,0.0,0.0,0.0,0.0,0.0,0.0,0.0,0.0,0.0,0.0,0.0,0.0,0.0,0.0,0.0,0.0,0.0,0.0,0.0,0.0,0.0,0.0,0.0,0.0,0.0,0.0,0.0,0.0,0.0,0.0,0.0,0.0,0.0,0.0,0.0,0.0,0.0,0.0,0.0,0.0,0.0,0.0,0.0,0.0,0.0,0.0,0.0,0.0,0.0,0.0,0.0,0.0,0.0,0.0,0.0,0.0,0.0,0.0,0.0,0.0,0.0,0.0,0.0,0.0,0.0,0.0,0.0,0.0,0.0,0.0,0.0,0.0,0.0,0.0,0.0,0.0,0.0,0.0,0.0,0.0,0.0,0.0,0.0,0.0,0.0,0.0,0.0,0.0,0.0,0.0,0.0,0.0,0.0,0.0,0.0,0.0,0.0,0.0,0.0,0.0,0.0,0.0,0.0,0.0,0.0,0.0,0.0,0.0,0.0,0.0,0.0,0.0,0.0,0.0,0.0,0.0,0.0,0.0,0.0,0.0,0.0,0.0,0.0,0.0,0.0,0.0,0.0,0.0,0.0,0.0,0.0,0.0,0.0,0.0,0.0,0.0,0.0,0.0,0.0,0.0,0.0,0.0,0.0,0.0,0.0,0.0,0.0,0.0,0.0,0.0,0.0,0.0,0.0,0.0,0.0,0.0,0.0,0.0,0.0,0.0,0.0,0.0,0.0,0.0,0.0,0.0,0.0,0.0,0.0,0.0,0.0,0.0,0.0,0.0,0.0,0.0,0.0,0.0,0.0,0.0,0.0,0.0,0.0,0.0,0.0,0.0,0.0,0.0,0.0,0.0,0.0,0.0,0.0,0.0,0.0,0.0,0.0,0.0,0.0,0.0,0.0,0.0,0.0,0.0,0.0,0.0,0.0,0.0,0.0,0.0,0.0,0.0,0.0,0.0,0.0,0.0,0.0,0.0,0.0,0.0,0.0,0.0,0.0,0.0,0.0,0.0,0.0,0.0,0.0,0.0,0.0,0.0,0.0,0.0,0.0,0.0,0.0,0.0,0.0,0.0,0.0,0.0,0.0,0.0,0.0,0.0,0.0,0.0,0.0,0.0,0.0,0.0,0.0,0.0,0.0,0.0,0.0,0.0,0.0,0.0,0.0,0.0,0.0,0.0,0.0,0.0,0.0,0.0,0.0,0.0,0.0,0.0,0.0,0.0,0.0,0.0,0.0,0.0,0.0,0.0,0.0,0.0,0.0,0.0,0.0,0.0,0.0,0.0,0.0,0.0,0.0,0.0,0.0,0.0,0.0,0.0,0.0,0.0,0.0,0.0,0.0,0.0,0.0,0.0,0.0,0.0,0.0,0.0,0.0,0.0,0.0,0.0,0.0,0.0,0.0,0.0,0.0,0.0,0.0,0.0,0.0,0.0,0.0,0.0,0.0,0.0,0.0,0.0,0.0,0.0,0.0,0.0,0.0,0.0,0.0,0.0,0.0,0.0,0.0,0.0,0.0,0.0,0.0,0.0,0.0,0.0,0.0,0.0,0.0,0.0,0.0,0.0,0.0,0.0,0.0,0.0,0.0,0.0,0.0,0.0,0.0,0.0,0.0,0.0,0.0,0.0,0.0,0.0,0.0,0.0,0.0,0.0,0.0,0.0,0.0,0.0,0.0,0.0,0.0,0.0,0.0,0.0,0.0,0.0,0.0,0.0,0.0,0.0,0.0,0.0,0.0,0.0,0.0,0.0,0.0,0.0,0.0,0.0,0.0,0.0,0.0,0.0,0.0,0.0,0.0,0.0,0.0,0.0,0.0,0.0,0.0,0.0,0.0,0.0,0.0,0.0,0.0,0.0,0.0,0.0,0.0,0.0,0.0,0.0,0.0,0.0,0.0,0.0,0.0,0.0,0.0,0.0,0.0,0.0,0.0,0.0,0.0,0.0,0.0,0.0,0.0,0.0,0.0,0.0,0.0,0.0,0.0,0.0,0.0,0.0,0.0,0.0,0.0,0.0,0.0,0.0,0.0,0.0,0.0,0.0,0.0,0.0,0.0,0.0,0.0,0.0,0.0,0.0,0.0,0.0,0.0,0.0,0.0,0.0,0.0,0.0,0.0,0.0,0.0,0.0,0.0,0.0,0.0,0.0,0.0,0.0,0.0,0.0,0.0,0.0,0.0,0.0,0.0,0.0,0.0,0.0,0.0,0.0,0.0,0.0,0.0,0.0,0.0,0.0,0.0,0.0,0.0,0.0,0.0,0.0,0.0,0.0,0.0,0.0,0.0,0.0,0.0,0.0,0.0,0.0,0.0,0.0,0.0,0.0,0.0,0.0,0.0,0.0,0.0,0.0,0.0,0.0,0.0,0.0,0.0,0.0,0.0,0.0,0.0,0.0,0.0,0.0,0.0,0.0,0.0,0.0,0.0,0.0,0.0,0.0,0.0,0.0,0.0,0.0,0.0,0.0,0.0,0.0,0.0,0.0,0.0,0.0,0.0,0.0,0.0,0.0,0.0,0.0,0.0,0.0,0.0,0.0,0.0,0.0,0.0,0.0,0.0,0.0,0.0,0.0,0.0,0.0,0.0,0.0,0.0,0.0,0.0,0.0,0.0,0.0,0.0,0.0,0.0,0.0,0.0,0.0,0.0,0.0,0.0]}],[{"header":{"parameterUnit":"kt","parameterCategory":2,"dx":1,"dy":1,"la1":29.587661999999998,"la2":31.0,"lo1":-88.76705300000003,"lo2":-86.6583820000003,"nx":115,"ny":88,"refTime":"2022-10-09T06:00:00:Z","depth":0,"parameterNumber":2,"parameterNumberName":"V-component_of_WINDS"},"data":[11.2513,11.2513,11.2513,11.2513,11.2513,11.2513,11.2513,11.2513,11.2513,11.2513,11.2907,11.3828,11.4551,11.488,11.7444,11.8957,11.9286,12.0075,12.0667,12.1258,12.1324,12.1324,12.1324,12.1324,12.1324,12.1324,12.1324,12.1324,12.1324,12.1324,12.1324,12.1324,12.1324,12.1324,12.1324,12.1324,12.1324,12.1324,12.1324,12.1324,12.2113,12.2968,12.4612,12.6283,12.8169,12.9704,13.0763,13.1157,13.0754,12.9243,12.7248,12.6645,12.6041,12.5304,12.4566,12.4298,12.403,12.3695,12.3628,12.3628,12.3628,12.403,12.4365,12.5371,12.6846,12.8388,12.9192,12.993,13.0802,13.1338,13.1874,13.0869,12.993,12.8261,12.7414,12.7689,12.8009,12.8697,12.9381,13.0505,13.1573,13.1573,13.1573,13.1573,13.1573,13.1573,13.1573,13.1573,13.1573,13.1787,13.2001,13.3571,13.5283,13.5069,13.4784,13.7638,13.8994,13.8725,13.8867,13.9779,14.0492,14.0778,14.0992,14.0992,14.0992,14.0992,14.0992,14.0992,14.0992,14.0992,14.0992,14.0992,14.0992,14.0992,14.0992,11.2513,11.2513,11.2513,11.2513,11.2513,11.2513,11.2513,11.2513,11.2513,11.2513,11.2578,11.2776,11.3631,11.4354,11.5406,11.7181,11.8562,11.9483,12.0469,12.0995,12.1258,12.1324,12.1324,12.1324,12.1324,12.1324,12.1324,12.1324,12.1324,12.1324,12.1324,12.1324,12.1324,12.1324,12.1324,12.1324,12.1324,12.1324,12.1324,12.1324,12.139,12.1653,12.2837,12.4176,12.5662,12.7585,12.897,12.9491,12.9351,12.777,12.6108,12.5639,12.5103,12.4634,12.4164,12.3963,12.3762,12.3695,12.3628,12.3628,12.3628,12.3628,12.3695,12.4499,12.584,12.7047,12.7919,12.879,12.9863,13.0734,13.174,13.174,13.1003,12.9938,12.9781,12.9703,12.9957,13.0327,13.0765,13.1239,13.1573,13.1573,13.1573,13.1573,13.1573,13.1573,13.1573,13.1573,13.1645,13.2001,13.2643,13.4213,13.6068,13.6354,13.5997,13.7495,13.8725,13.8582,13.8653,13.9636,14.0349,14.0706,14.0992,14.0992,14.0992,14.0992,14.0992,14.0992,14.0992,14.0992,14.0992,14.0992,14.0992,14.0992,14.0992,11.2371,11.2513,11.2513,11.2513,11.2513,11.2513,11.2513,11.2513,11.2513,11.2513,11.2513,11.2578,11.2841,11.3367,11.442,11.6129,11.7642,11.8694,11.9878,12.0864,12.1324,12.1324,12.1324,12.1324,12.1324,12.1324,12.1324,12.1324,12.1324,12.1324,12.1324,12.1324,12.1324,12.1324,12.1324,12.1324,12.1324,12.1324,12.1324,12.1324,12.1324,12.2179,12.3034,12.3889,12.5572,12.7391,12.8512,12.8904,12.8502,12.727,12.5694,12.5164,12.4365,12.403,12.3695,12.3628,12.3628,12.3628,12.3628,12.3628,12.3628,12.3628,12.3695,12.3695,12.4969,12.584,12.6712,12.7718,12.8723,13.0131,13.1137,13.2219,13.1615,13.1396,13.124,13.0671,13.0593,13.1009,13.1528,13.188,13.193,13.193,13.2073,13.2073,13.1716,13.1716,13.1573,13.1573,13.193,13.2358,13.3428,13.4855,13.6925,13.7567,13.6996,13.7567,13.8439,13.8582,13.8582,13.9422,14.0207,14.0635,14.0992,14.0992,14.0992,14.0992,14.0992,14.0992,14.0992,14.0992,14.0992,14.0992,14.0992,14.0992,14.0992,11.2299,11.2513,11.2513,11.2513,11.2513,11.2513,11.2513,11.2513,11.2513,11.2513,11.2513,11.2513,11.2578,11.2776,11.3696,11.4814,11.6392,11.7642,11.9351,12.0272,12.1193,12.1258,12.1324,12.1324,12.1324,12.1324,12.1324,12.1324,12.1324,12.1324,12.1324,12.1324,12.1324,12.1324,12.1324,12.1324,12.1324,12.1324,12.1324,12.1324,12.1324,12.2376,12.3034,12.3757,12.5283,12.6823,12.7086,12.7597,12.7586,12.6845,12.5748,12.4762,12.3762,12.3695,12.3628,12.3628,12.3628,12.3628,12.3628,12.3628,12.3628,12.3628,12.3628,12.3628,12.3963,12.4768,12.5639,12.6578,12.7718,12.9125,13.0399,13.1548,13.2237,13.2241,13.2297,13.1379,13.0541,13.1281,13.2097,13.2339,13.2395,13.2501,13.2715,13.2501,13.2073,13.193,13.193,13.2001,13.2501,13.3999,13.5283,13.5854,13.7781,13.8511,13.7781,13.7923,13.8368,13.8582,13.8653,13.9279,14.0064,14.0492,14.0992,14.0992,14.0992,14.0992,14.0992,14.0992,14.0992,14.0992,14.0992,14.0992,14.0992,14.0992,14.0992,11.2513,11.2513,11.2513,11.2513,11.2513,11.2513,11.2513,11.2513,11.2513,11.2513,11.2513,11.2513,11.2513,11.2578,11.2841,11.3828,11.5274,11.6721,11.8234,11.9351,12.0601,12.1258,12.1324,12.1324,12.1324,12.1324,12.1324,12.1324,12.1324,12.1324,12.1324,12.1324,12.1324,12.1324,12.1324,12.1324,12.1324,12.1324,12.1324,12.1324,12.139,12.139,12.1522,12.2048,12.3835,12.5427,12.508,12.539,12.6018,12.5153,12.4324,12.3669,12.3484,12.3556,12.3628,12.3628,12.3628,12.3628,12.3628,12.3628,12.3628,12.3628,12.3628,12.3628,12.3628,12.4097,12.4701,12.5572,12.7248,12.879,12.9997,13.1146,13.2699,13.331,13.37,13.371,13.3516,13.418,13.456,13.4263,13.4285,13.4142,13.4285,13.3642,13.3286,13.3357,13.3286,13.3,13.3999,13.614,13.6782,13.6853,13.8637,13.9779,13.8994,13.8708,13.8867,13.8725,13.8796,13.9351,14.0064,14.0564,14.092,14.0992,14.0992,14.0992,14.0992,14.0992,14.0992,14.0992,14.0992,14.0992,14.0992,14.0992,14.0992,11.2299,11.2513,11.2299,11.2299,11.2513,11.2513,11.2513,11.2513,11.2513,11.2513,11.2513,11.2513,11.2513,11.2513,11.2578,11.3302,11.4683,11.6064,11.751,11.9023,12.0601,12.1061,12.1258,12.1324,12.1324,12.1324,12.1324,12.1324,12.1324,12.1324,12.1324,12.1324,12.1324,12.1324,12.1324,12.1324,12.1324,12.1324,12.1324,12.1324,12.1324,12.1324,12.1324,12.1785,12.3165,12.3967,12.3925,12.4365,12.4717,12.436,12.3341,12.2903,12.3195,12.3268,12.334,12.3628,12.3628,12.3628,12.3628,12.3628,12.3628,12.3628,12.3628,12.3628,12.3628,12.3628,12.403,12.4768,12.6645,12.8388,12.9595,13.0961,13.2672,13.4439,13.5225,13.5959,13.6617,13.7257,13.7042,13.653,13.6211,13.614,13.564,13.4998,13.4641,13.4855,13.4855,13.4713,13.5997,13.7781,13.8066,13.828,13.9707,14.0778,14.0564,14.0135,14.0064,13.9921,13.9565,13.9493,14.0135,14.0635,14.0849,14.0992,14.0992,14.0992,14.0992,14.0992,14.0992,14.0992,14.0992,14.0992,14.0992,14.0992,14.0992,11.2299,11.2513,11.2228,11.2299,11.2513,11.2513,11.2513,11.2513,11.2513,11.2513,11.2513,11.2513,11.2513,11.2513,11.2513,11.3104,11.4288,11.5603,11.7116,11.8497,11.9746,12.0667,12.1127,12.1324,12.1324,12.1324,12.1324,12.1324,12.1324,12.1324,12.1324,12.1324,12.1324,12.1324,12.1324,12.1324,12.1324,12.1324,12.1324,12.1324,12.1324,12.1324,12.1324,12.1653,12.2837,12.3034,12.3177,12.354,12.3562,12.3451,12.2628,12.2528,12.283,12.2977,12.3122,12.3412,12.3628,12.3628,12.3628,12.3628,12.3628,12.3628,12.3628,12.3628,12.3628,12.3628,12.3628,12.4499,12.584,12.7382,12.8723,13.0891,13.3133,13.5018,13.6583,13.7471,13.8491,13.9002,13.903,13.8566,13.8423,13.8209,13.7852,13.7067,13.614,13.6496,13.6782,13.6925,13.7781,13.8851,13.9422,13.9993,14.092,14.0849,14.0778,14.0207,14.0492,14.0706,14.0064,13.9707,14.0278,14.0706,14.0849,14.0992,14.0992,14.0992,14.0992,14.0992,14.0992,14.0992,14.0992,14.0992,14.0992,14.0992,14.0992,11.2513,11.2513,11.2513,11.2513,11.2513,11.2513,11.2513,11.2513,11.2513,11.2513,11.2513,11.2513,11.2513,11.2513,11.2513,11.2644,11.3104,11.4354,11.5669,11.705,11.8825,12.0009,12.0732,12.1193,12.1324,12.1324,12.1324,12.1324,12.1324,12.1324,12.1324,12.1324,12.1324,12.1324,12.1324,12.1324,12.1324,12.1324,12.1324,12.1324,12.1324,12.1324,12.1324,12.1587,12.2245,12.2376,12.2376,12.2519,12.2607,12.2364,12.1997,12.2231,12.2462,12.283,12.2977,12.3195,12.3484,12.3556,12.3628,12.3628,12.3628,12.3628,12.3628,12.3628,12.3628,12.3628,12.3628,12.4231,12.5237,12.6578,12.8208,13.0792,13.3361,13.5494,13.7501,13.8814,13.9868,14.0324,14.0294,14.0278,14.0064,13.9921,13.9422,13.8708,13.7567,13.7923,13.8209,13.8494,13.9136,14.0135,14.0421,14.092,14.092,14.092,14.0278,13.9565,13.9707,14.0064,13.9636,13.9707,14.0421,14.092,14.0992,14.0992,14.0992,14.0992,14.0992,14.0992,14.0992,14.0992,14.0992,14.0992,14.0992,14.0992,14.0992,11.2513,11.2513,11.2513,11.2513,11.2513,11.2513,11.2513,11.2513,11.2513,11.2513,11.2513,11.2513,11.2513,11.2513,11.2513,11.2513,11.2644,11.4025,11.5274,11.5669,11.7905,11.922,12.0141,12.0732,12.1193,12.1324,12.1324,12.1324,12.1324,12.1324,12.1324,12.1324,12.1324,12.1324,12.1324,12.1324,12.1324,12.1324,12.1324,12.1324,12.1324,12.1324,12.1324,12.1456,12.1653,12.185,12.1587,12.1587,12.1861,12.1674,12.1629,12.179,12.2313,12.2683,12.2903,12.3268,12.3556,12.3628,12.3628,12.3628,12.3556,12.3556,12.3628,12.3628,12.3628,12.3556,12.3628,12.403,12.5036,12.6444,12.8214,13.08,13.3367,13.6039,13.7827,13.9257,14.0254,14.0609,14.0706,14.0706,14.0635,14.0706,14.0492,13.9636,13.8851,13.9208,13.9565,14.0064,14.0564,14.0706,14.0849,14.092,14.0849,14.0278,13.9493,13.8637,13.8637,13.9224,13.9422,13.9422,14.0135,14.0992,14.0992,14.0992,14.0992,14.0992,14.0992,14.0992,14.0992,14.0992,14.0992,14.0992,14.0992,14.0992,14.0992,11.2513,11.2513,11.2513,11.2841,11.3236,11.3236,11.2973,11.2578,11.2513,11.2513,11.2513,11.2513,11.2513,11.2513,11.2513,11.2513,11.2644,11.3828,11.4551,11.4946,11.7116,11.8365,11.9549,12.0535,12.1258,12.1324,12.1324,12.1324,12.1324,12.1324,12.1324,12.1324,12.1324,12.1324,12.1324,12.1324,12.1324,12.1324,12.1324,12.1324,12.1324,12.1324,12.1324,12.1324,12.1324,12.139,12.1324,12.1324,12.1456,12.1401,12.1401,12.1639,12.209,12.2462,12.2757,12.3268,12.3628,12.3628,12.3628,12.334,12.334,12.334,12.3268,12.3195,12.3412,12.3412,12.3412,12.368,12.4427,12.5974,12.8103,13.0748,13.3507,13.616,13.8455,13.9862,14.0396,14.0752,14.0992,14.0992,14.0992,14.0992,14.0992,14.0207,13.9993,14.0278,14.0278,14.0778,14.0635,14.0706,14.0564,14.0564,14.0064,13.9351,13.8352,13.6925,13.6568,13.8066,13.878,13.9136,13.9993,14.0849,14.0992,14.0992,14.0992,14.0992,14.0992,14.0992,14.0992,14.0992,14.0992,14.0992,14.0992,14.0992,14.0992,11.2578,11.2513,11.2644,11.3499,11.4683,11.4748,11.3894,11.2907,11.2578,11.2513,11.2513,11.2513,11.2513,11.2513,11.2513,11.2513,11.2644,11.271,11.3302,11.4485,11.6064,11.7576,11.8891,12.0206,12.093,12.1193,12.1324,12.1324,12.1324,12.1324,12.1324,12.1324,12.1324,12.1324,12.1324,12.1324,12.1324,12.1324,12.1324,12.1324,12.1324,12.1324,12.1324,12.1324,12.1324,12.1324,12.1324,12.1324,12.1324,12.1324,12.1324,12.1553,12.1865,12.2239,12.261,12.2977,12.334,12.3484,12.3556,12.2903,12.283,12.2977,12.283,12.283,12.2977,12.305,12.3122,12.3195,12.3752,12.5237,12.8007,13.0764,13.37,13.6454,13.9154,14.0808,14.0752,14.0992,14.0992,14.0992,14.0992,14.0992,14.0992,14.0992,14.0992,14.0992,14.0992,14.0778,14.0421,14.0207,13.985,13.9493,13.878,13.7995,13.6996,13.5355,13.5212,13.6996,13.8209,13.8851,13.9636,14.0635,14.0992,14.0992,14.0992,14.0992,14.0992,14.0992,14.0992,14.0992,14.0992,14.0992,14.0992,14.0992,14.0992,11.3104,11.4025,11.4091,11.488,11.5998,11.5143,11.442,11.3894,11.2973,11.2513,11.2513,11.2513,11.2513,11.2513,11.2513,11.2513,11.2513,11.2578,11.2841,11.3631,11.4814,11.6129,11.7576,11.9023,12.0404,12.1193,12.1324,12.1324,12.1324,12.1324,12.1324,12.1324,12.1324,12.1324,12.1324,12.1324,12.1324,12.1324,12.1324,12.1324,12.1324,12.1324,12.1324,12.1324,12.1324,12.1324,12.1324,12.1324,12.1324,12.1324,12.1401,12.1553,12.178,12.2081,12.2239,12.2536,12.2757,12.2764,12.2757,12.261,12.2536,12.2536,12.2462,12.2462,12.2683,12.2903,12.3122,12.3122,12.3618,12.5271,12.932,13.1441,13.4003,13.7051,13.9732,14.0752,14.0752,14.0808,14.0864,14.0864,14.0992,14.0992,14.0992,14.0992,14.0992,14.0992,14.092,14.0706,14.0278,13.9707,13.9279,13.8494,13.7424,13.6425,13.5729,13.4855,13.4356,13.6068,13.721,13.8066,13.9422,14.0421,14.0992,14.0992,14.0992,14.0992,14.0992,14.0992,14.0992,14.0992,14.0992,14.0992,14.0992,14.0992,14.0992,11.3367,11.4748,11.534,11.5998,11.6787,11.5866,11.5209,11.4551,11.317,11.2513,11.2513,11.2513,11.2513,11.2513,11.2513,11.2513,11.2513,11.2513,11.2513,11.2973,11.3894,11.5077,11.6458,11.8036,11.9549,12.0338,12.1061,12.1324,12.1324,12.1324,12.1324,12.1324,12.1324,12.1324,12.1324,12.1324,12.1324,12.1324,12.1324,12.1324,12.1324,12.1324,12.1324,12.1324,12.1324,12.1324,12.1324,12.1324,12.1324,12.1324,12.1324,12.1553,12.1856,12.1865,12.209,12.2462,12.2536,12.2536,12.2536,12.2239,12.2015,12.2015,12.2015,12.209,12.2239,12.3056,12.3345,12.3977,12.4883,12.7142,13.049,13.2582,13.464,13.7542,13.9388,14.0224,14.0582,14.0638,14.0695,14.0695,14.0752,14.092,14.0992,14.0992,14.0992,14.092,14.0849,14.0635,13.9921,13.9279,13.8637,13.7923,13.5569,13.4285,13.457,13.4142,13.3642,13.4713,13.5926,13.7424,13.8994,14.0064,14.0992,14.0992,14.0992,14.0992,14.0992,14.0992,14.0992,14.0992,14.0992,14.0992,14.0992,14.0992,14.0992,11.3236,11.4683,11.6064,11.6655,11.6787,11.6721,11.5866,11.4617,11.317,11.2513,11.2513,11.2513,11.2513,11.2513,11.2513,11.2513,11.2513,11.2513,11.2513,11.2973,11.3828,11.4485,11.5669,11.7313,11.9023,11.9483,12.0667,12.1258,12.1324,12.1324,12.1324,12.1324,12.1324,12.1324,12.1324,12.1324,12.1324,12.1324,12.1324,12.1324,12.1324,12.1324,12.1324,12.1324,12.1324,12.1324,12.1324,12.1324,12.1324,12.1324,12.1324,12.1553,12.1704,12.178,12.1865,12.209,12.2164,12.2164,12.209,12.179,12.1411,12.1335,12.1411,12.1639,12.2388,12.3422,12.4267,12.4818,12.6735,12.9318,13.1763,13.3864,13.5806,13.8086,13.9448,14.005,14.0224,14.041,14.0525,14.0582,14.0695,14.0864,14.092,14.0879,14.0823,14.0864,14.0849,14.0737,13.9881,13.9208,13.8423,13.6211,13.3714,13.3214,13.3571,13.3571,13.3428,13.4142,13.5498,13.7067,13.8511,13.9779,14.092,14.0992,14.0992,14.0992,14.0992,14.0992,14.0992,14.0992,14.0992,14.0992,14.0992,14.0992,14.0992,11.1789,11.317,11.4617,11.5866,11.6721,11.5669,11.5011,11.4551,11.317,11.2513,11.2513,11.2513,11.2513,11.2513,11.2513,11.2513,11.2513,11.2513,11.2513,11.2578,11.2973,11.3762,11.488,11.6327,11.8036,11.922,12.0404,12.0995,12.1193,12.1324,12.1324,12.1324,12.1324,12.1324,12.1324,12.1324,12.1324,12.1324,12.1324,12.1324,12.1324,12.1324,12.1324,12.1324,12.1324,12.1324,12.1324,12.1324,12.1324,12.1324,12.1324,12.1401,12.1477,12.1553,12.1629,12.1639,12.1714,12.1714,12.1563,12.1553,12.1401,12.1324,12.1335,12.1714,12.2764,12.3565,12.4545,12.7075,12.8898,13.1267,13.3639,13.5128,13.7006,13.8532,13.9578,13.9756,13.9991,14.0295,14.0538,14.0467,14.0582,14.0808,14.0752,14.071,14.0766,14.0808,14.0808,14.0695,14.0166,13.9422,13.7424,13.407,13.2715,13.3072,13.2786,13.2429,13.3072,13.3714,13.5283,13.6782,13.8209,13.9493,14.0635,14.0992,14.0992,14.0992,14.0992,14.0992,14.0992,14.0992,14.0992,14.0992,14.0992,14.0992,14.0992,10.9751,11.1724,11.317,11.4617,11.5735,11.5077,11.4683,11.442,11.317,11.2513,11.2513,11.2513,11.2513,11.2513,11.2513,11.2513,11.2513,11.2513,11.2513,11.2513,11.2578,11.2973,11.4025,11.5274,11.6655,11.8102,11.9483,12.0404,12.0601,12.0864,12.1324,12.1324,12.1324,12.1324,12.1324,12.1324,12.1324,12.1324,12.1324,12.1324,12.1324,12.1324,12.1324,12.1324,12.1324,12.1324,12.1324,12.1324,12.1324,12.1324,12.1324,12.1324,12.1324,12.1324,12.1324,12.1324,12.1324,12.1324,12.1324,12.1324,12.1324,12.1324,12.1335,12.1714,12.275,12.4388,12.6872,12.9094,13.1045,13.3335,13.5558,13.6725,13.8059,13.8865,13.9339,13.9459,13.9519,14.0004,14.0366,14.041,14.0467,14.0467,14.041,14.0352,14.0352,14.0467,14.0467,14.0525,14.0211,13.9184,13.6191,13.2876,13.2805,13.2805,13.1896,13.1521,13.2377,13.2805,13.4374,13.6568,13.7923,13.9208,14.0421,14.0992,14.0992,14.0992,14.0992,14.0992,14.0992,14.0992,14.0992,14.0992,14.0992,14.0992,14.0992,10.7581,11.0014,11.1592,11.3039,11.4091,11.4354,11.442,11.4222,11.3039,11.2513,11.2513,11.2513,11.2513,11.2513,11.2513,11.2513,11.2513,11.2513,11.2513,11.2513,11.2513,11.2578,11.2841,11.4025,11.5603,11.6721,11.8431,11.9088,11.9549,12.0469,12.0995,12.1258,12.1324,12.1324,12.1324,12.1324,12.1324,12.1324,12.1324,12.1324,12.1324,12.1324,12.1324,12.1324,12.1324,12.1324,12.1324,12.1324,12.1324,12.1324,12.1324,12.1324,12.1324,12.1324,12.1324,12.1324,12.1324,12.1324,12.1324,12.1324,12.1324,12.1324,12.1324,12.1411,12.2809,12.5285,12.85,13.0403,13.4034,13.653,13.7163,13.8139,13.8763,13.9035,13.9096,13.9096,13.9096,13.9649,13.9886,14.0004,14.0062,14.0062,14.005,13.9991,13.9933,14.0121,14.0237,14.0423,14.0041,13.8348,13.5844,13.4087,13.3571,13.2182,13.1186,13.1363,13.1772,13.1682,13.3875,13.6354,13.7709,13.8994,14.0135,14.092,14.0992,14.0992,14.0992,14.0992,14.0992,14.0992,14.0992,14.0992,14.0992,14.0992,14.0992,10.6463,10.7186,10.9751,11.1,11.146,11.2447,11.2973,11.2907,11.2644,11.2513,11.2513,11.2513,11.2513,11.2513,11.2513,11.2513,11.2513,11.2513,11.2513,11.2513,11.2513,11.2513,11.2907,11.3894,11.4807,11.5669,11.7576,11.9154,11.9023,11.9549,12.0338,12.0995,12.1324,12.1324,12.1324,12.1324,12.1324,12.1324,12.1324,12.1324,12.1324,12.1324,12.1324,12.1324,12.1324,12.1324,12.1324,12.1324,12.1324,12.1324,12.1324,12.1324,12.1324,12.1324,12.1324,12.1324,12.1324,12.1324,12.1335,12.1335,12.1563,12.1563,12.1335,12.2024,12.3468,12.6254,12.9924,13.4392,13.6661,13.7284,13.7988,13.8763,13.8904,13.8904,13.8904,13.8974,13.9096,13.9349,13.9649,13.9649,13.972,13.9768,13.9815,13.9756,13.9638,13.9768,13.9886,14.0004,13.9966,13.8191,13.6189,13.4651,13.3213,13.1611,13.1026,13.1204,13.131,13.1505,13.3607,13.5783,13.721,13.8708,13.985,14.092,14.092,14.0992,14.0992,14.0992,14.0992,14.0992,14.0992,14.0992,14.0992,14.0992,14.0992,10.5476,10.6266,10.7712,10.9093,11.0408,11.1197,11.1855,11.2447,11.2513,11.2513,11.2513,11.2513,11.2513,11.2513,11.2513,11.2513,11.2513,11.2513,11.2513,11.2513,11.2513,11.2513,11.271,11.3236,11.3959,11.5011,11.6129,11.7181,11.8036,11.8694,11.9943,12.093,12.1324,12.1324,12.1324,12.1324,12.1324,12.1324,12.1324,12.1324,12.1324,12.1324,12.1324,12.1324,12.1324,12.1324,12.1324,12.1324,12.1324,12.1324,12.1324,12.1324,12.1324,12.1324,12.1324,12.1324,12.1324,12.1324,12.1335,12.2024,12.2247,12.2395,12.3067,12.3712,12.4961,12.7209,13.0446,13.4004,13.5822,13.7918,13.7918,13.8622,13.8552,13.827,13.8622,13.8904,13.9035,13.9349,13.9349,13.9349,13.9349,13.9469,13.9519,13.9459,13.9469,13.9469,13.9529,13.9708,14.0016,13.8019,13.5665,13.4217,13.2852,13.1465,13.081,13.1043,13.1328,13.1808,13.3215,13.4944,13.6496,13.8066,13.9351,14.0635,14.092,14.092,14.0992,14.0992,14.0992,14.0992,14.0992,14.0992,14.0992,14.0992,14.0992,10.4687,10.5805,10.6003,10.7449,10.9553,11.0277,11.1132,11.2118,11.2381,11.2513,11.2513,11.2513,11.2513,11.2513,11.2513,11.2513,11.2513,11.2513,11.2513,11.2513,11.2513,11.2513,11.2513,11.2776,11.3236,11.4091,11.4485,11.5274,11.6524,11.8036,11.922,12.0601,12.1127,12.1324,12.1324,12.1324,12.1324,12.1324,12.1324,12.1324,12.1324,12.1258,12.1193,12.0732,12.1127,12.1061,12.0995,12.1061,12.1324,12.1324,12.1324,12.1324,12.1324,12.1324,12.1487,12.1639,12.1563,12.1563,12.1865,12.255,12.2989,12.3641,12.4135,12.4898,12.638,12.8457,13.0605,13.3042,13.5603,13.7566,13.658,13.7636,13.7777,13.7636,13.7988,13.8974,13.8965,13.8946,13.8795,13.9096,13.9106,13.9035,13.9157,13.9157,13.9228,13.9228,13.8795,13.8622,13.8447,13.6796,13.4871,13.3582,13.2237,13.1316,13.0537,13.0826,13.1114,13.1594,13.2734,13.4463,13.614,13.7567,13.8994,14.0349,14.092,14.0992,14.0992,14.0992,14.0992,14.0992,14.0992,14.0992,14.0992,14.0992,14.0992,10.4161,10.4424,10.5608,10.6331,10.712,10.9356,11.0408,11.0934,11.1987,11.2315,11.2513,11.2513,11.2513,11.2513,11.2513,11.2513,11.2513,11.2513,11.2513,11.2513,11.2513,11.2513,11.2513,11.2513,11.2776,11.2776,11.2973,11.3828,11.5209,11.6524,11.8102,11.9483,12.0601,12.1127,12.1258,12.1324,12.1324,12.1324,12.1324,12.1324,12.1324,12.1258,12.0732,12.0272,12.0535,12.0601,12.0075,12.0404,12.1127,12.1324,12.1324,12.1324,12.1324,12.1335,12.1648,12.2989,12.2173,12.2247,12.2843,12.2624,12.2624,12.3422,12.3924,12.4966,12.7161,12.9147,13.0818,13.2476,13.3949,13.5383,13.502,13.6369,13.7003,13.7073,13.8059,13.8904,13.8763,13.7908,13.8251,13.8692,13.8974,13.8763,13.8763,13.8622,13.8833,13.8833,13.7838,13.7113,13.6456,13.5303,13.3878,13.2521,13.1348,13.036,13.0218,13.0386,13.0717,13.1307,13.2396,13.4195,13.6068,13.7281,13.8494,13.9921,14.0849,14.0992,14.0992,14.0992,14.0992,14.0992,14.0992,14.0992,14.0992,14.0992,14.0992,10.403,10.4096,10.4687,10.5411,10.6266,10.7515,10.8567,10.9488,11.0803,11.1395,11.1526,11.225,11.2513,11.2513,11.2513,11.2513,11.2513,11.2513,11.2513,11.2513,11.2513,11.2513,11.2513,11.2513,11.2513,11.2513,11.2513,11.3367,11.4485,11.5537,11.6918,11.9088,11.9746,12.0535,12.1193,12.1324,12.1324,12.1324,12.1324,12.1324,12.1324,12.1258,12.0798,12.0601,12.0075,11.9943,11.9088,11.9154,11.9417,11.9746,11.9351,11.922,12.0019,12.0898,12.1964,12.3226,12.3283,12.4065,12.4555,12.4624,12.483,12.5773,12.6494,12.758,12.8735,13.0275,13.1474,13.2321,13.3342,13.4105,13.3483,13.5243,13.6077,13.6218,13.6862,13.82,13.8692,13.8411,13.834,13.8763,13.8833,13.8552,13.8059,13.7707,13.7636,13.6862,13.5936,13.5703,13.5045,13.4115,13.2716,13.1799,13.057,12.9949,12.9936,13.0106,13.0371,13.1127,13.2057,13.3607,13.5498,13.6782,13.7995,13.9279,14.0421,14.0635,14.0992,14.0992,14.0992,14.0992,14.0992,14.0992,14.0992,14.0992,14.0992,10.403,10.403,10.403,10.4622,10.5608,10.6003,10.6792,10.7975,10.9356,10.9948,11.0211,11.1066,11.1658,11.1987,11.1921,11.225,11.2513,11.2513,11.2513,11.2513,11.2513,11.2513,11.2513,11.2513,11.2513,11.2513,11.2513,11.3104,11.4025,11.4683,11.5998,11.8036,11.8694,11.9746,12.0732,12.0995,12.1324,12.1324,12.1324,12.1324,12.1324,12.1258,12.1258,12.1061,11.9943,11.9154,11.8497,11.7444,11.7541,11.8382,11.8206,11.8421,11.9761,12.1077,12.245,12.381,12.4897,12.564,12.6038,12.6494,12.726,12.7323,12.8134,12.9534,12.9848,13.0832,13.1453,13.1934,13.2708,13.2638,13.2145,13.4468,13.5383,13.5443,13.6429,13.7848,13.8129,13.7777,13.7284,13.7636,13.7777,13.7566,13.644,13.6299,13.5866,13.4809,13.4446,13.4281,13.3634,13.2845,13.1997,13.149,13.06,13.0063,12.9936,12.9936,13.0274,13.0804,13.1488,13.2643,13.4641,13.614,13.7424,13.8637,13.985,14.0492,14.092,14.0992,14.0992,14.0992,14.0992,14.0992,14.0992,14.0992,14.0992,10.403,10.403,10.403,10.4096,10.4424,10.5542,10.6068,10.6594,10.791,10.8501,10.8633,10.8699,10.9685,11.0606,11.0606,11.1263,11.2447,11.225,11.2381,11.2513,11.2513,11.2513,11.2513,11.2513,11.2513,11.2513,11.2513,11.271,11.3104,11.4091,11.488,11.5866,11.7971,11.9023,11.9746,12.0601,12.1193,12.1258,12.1324,12.1324,12.1324,12.1324,12.1324,12.1127,12.0009,11.8891,11.7708,11.708,11.7353,11.8724,11.8715,11.9066,12.0488,12.2112,12.3518,12.4697,12.5407,12.6223,12.7065,12.6683,12.6559,12.7635,12.8012,12.8447,12.9662,13.0103,13.0385,13.0385,13.0244,13.0596,13.0737,13.2849,13.4246,13.502,13.6862,13.7777,13.6932,13.4609,13.3483,13.4739,13.502,13.4961,13.475,13.4809,13.4668,13.3401,13.2953,13.2787,13.2465,13.1758,13.1264,13.1023,13.0754,13.0162,12.9993,12.9949,13.0274,13.0537,13.1204,13.1949,13.3946,13.5212,13.6639,13.8138,13.9279,14.0135,14.0706,14.0992,14.0992,14.0992,14.0992,14.0992,14.0992,14.0992,14.0992,10.403,10.403,10.403,10.403,10.4096,10.4622,10.4885,10.5148,10.6397,10.7055,10.7252,10.7776,10.8633,10.9159,10.9225,11.0014,11.1197,11.1329,11.1789,11.2315,11.2447,11.2447,11.2513,11.2513,11.2513,11.2513,11.2513,11.2513,11.2644,11.3104,11.3959,11.4814,11.5998,11.751,11.8891,11.9812,12.0404,12.1203,12.1324,12.1324,12.1324,12.1324,12.1335,12.1127,12.0732,11.968,11.8251,11.7262,11.699,11.7424,11.7589,11.8203,11.9636,12.1083,12.2521,12.3985,12.5796,12.6872,12.7499,12.7959,12.8317,12.8747,12.8995,12.9289,12.9649,12.9892,12.9892,12.9892,12.9892,12.9892,13.0103,13.0948,13.2567,13.4187,13.5654,13.6017,13.5584,13.4246,13.3975,13.4246,13.4457,13.4246,13.3201,13.3201,13.2708,13.2062,13.1473,13.149,13.1432,13.081,13.0512,13.0875,13.0788,13.0442,13.0218,13.0274,13.0537,13.0646,13.1097,13.1487,13.2823,13.3785,13.5283,13.6782,13.8423,13.9707,14.0421,14.0992,14.0992,14.0992,14.0992,14.0992,14.0992,14.0992,14.0992,10.403,10.403,10.403,10.403,10.403,10.403,10.403,10.4161,10.5148,10.5542,10.5739,10.6726,10.7252,10.7712,10.7712,10.8501,10.9619,10.9882,11.0606,11.1789,11.1658,11.1592,11.1921,11.2315,11.2513,11.2513,11.2513,11.2513,11.2513,11.2578,11.3104,11.4157,11.4617,11.5932,11.7708,11.8299,11.9436,12.1072,12.1279,12.156,12.227,12.255,12.2403,12.2403,12.2477,12.1752,12.0288,11.8734,11.7986,11.8297,11.7909,11.8219,11.9364,12.0826,12.2056,12.3287,12.5317,12.7006,12.7583,12.8441,12.9342,12.9751,12.9707,12.9892,12.9892,12.9892,12.9892,12.9892,12.9892,12.9892,12.9892,12.9963,13.1159,13.3342,13.3905,13.4034,13.3952,13.3729,13.3376,13.3435,13.3235,13.2742,13.2037,13.1685,13.1275,13.0557,13.0374,13.0654,13.1001,13.0826,13.0881,13.1043,13.0989,13.0717,13.0482,13.0592,13.0701,13.0756,13.1043,13.1434,13.2039,13.2715,13.3928,13.5498,13.721,13.8796,13.9779,14.0818,14.092,14.0992,14.0992,14.0992,14.0992,14.1143,14.1198,10.403,10.403,10.403,10.403,10.403,10.403,10.403,10.403,10.4161,10.4293,10.4227,10.4556,10.5148,10.6068,10.6266,10.7055,10.8238,10.8436,10.9159,10.9751,10.9356,10.9422,11.054,11.1526,11.2052,11.2315,11.2447,11.2513,11.2513,11.2513,11.2578,11.312,11.4174,11.488,11.584,11.6539,11.8665,12.0865,12.1278,12.2513,12.4559,12.4966,12.4966,12.4899,12.4966,12.4355,12.2997,12.1622,12.1432,12.2193,12.0946,12.0201,12.0629,12.1915,12.2423,12.2704,12.4346,12.5809,12.7076,12.7498,12.8202,12.9399,12.9611,12.9892,12.9822,12.9892,12.9892,12.9892,12.9892,12.9892,12.9892,12.9892,13.0596,13.2004,13.2286,13.2402,13.2492,13.149,13.1249,13.1063,13.0669,13.043,13.0698,13.0501,13.043,13.033,13.0663,13.0826,13.1097,13.115,13.131,13.131,13.1204,13.0989,13.0772,13.0881,13.0989,13.1097,13.1257,13.1468,13.1859,13.193,13.2643,13.4285,13.5926,13.7583,13.8977,14.0126,14.0752,14.1042,14.1131,14.0976,14.1143,14.1454,14.1544,10.403,10.403,10.403,10.403,10.403,10.403,10.403,10.403,10.403,10.403,10.403,10.403,10.4293,10.4687,10.4819,10.5608,10.6857,10.6923,10.7252,10.7515,10.7055,10.7712,10.9027,10.9685,11.0277,11.1132,11.2052,11.2513,11.2513,11.2583,11.2939,11.3702,11.4302,11.531,11.7193,11.7866,11.8943,12.0696,12.1033,12.1571,12.2579,12.3597,12.414,12.4277,12.5096,12.5232,12.4819,12.414,12.3903,12.4012,12.286,12.1514,12.0669,12.1092,12.1373,12.1655,12.2781,12.3908,12.4542,12.5598,12.6724,12.7991,12.8414,12.8766,12.9611,12.9892,12.9892,12.9892,12.9892,12.9892,12.9892,12.9892,13.0103,13.0667,13.0737,13.0794,13.0839,13.0445,13.0386,13.0592,13.0592,13.0482,13.0482,13.0482,13.0482,13.0482,13.0701,13.0935,13.115,13.1257,13.1363,13.1416,13.1416,13.1257,13.1043,13.1097,13.1204,13.1521,13.1781,13.1965,13.2067,13.2067,13.2088,13.3735,13.4666,13.6294,13.7852,13.9104,14.0352,14.1267,14.1713,14.178,14.2068,14.2169,14.2256,10.403,10.403,10.403,10.403,10.403,10.403,10.403,10.403,10.403,10.403,10.403,10.403,10.403,10.403,10.403,10.4556,10.5477,10.5938,10.6261,10.6647,10.671,10.7443,10.8577,10.8844,10.951,11.0974,11.2371,11.3104,11.3238,11.3638,11.4176,11.4972,11.5167,11.6225,11.7877,11.8203,11.9137,12.0689,12.0889,12.1414,12.2274,12.3301,12.3915,12.3921,12.4817,12.5438,12.5426,12.4833,12.4416,12.4401,12.2993,12.1655,12.081,12.0599,12.0599,12.0669,12.1585,12.2218,12.2852,12.3908,12.5105,12.6372,12.6794,12.7569,12.8836,12.9047,12.9258,12.9822,12.9892,12.9892,12.9892,12.9892,12.9892,12.9892,12.9879,13.0134,13.019,13.033,13.0592,13.0864,13.0864,13.081,13.081,13.081,13.081,13.081,13.0918,13.1026,13.1257,13.1363,13.1416,13.1521,13.1573,13.1468,13.1363,13.1363,13.1894,13.2566,13.2806,13.3042,13.29,13.2853,13.2758,13.3359,13.3887,13.4968,13.6531,13.7832,13.9162,14.0148,14.1347,14.2233,14.2897,14.3171,14.3259,10.3964,10.4029,10.403,10.416,10.4355,10.4355,10.4161,10.429,10.4225,10.429,10.429,10.416,10.4225,10.403,10.4095,10.4161,10.4681,10.5566,10.6544,10.7434,10.7483,10.8299,10.9456,10.9405,11.0221,11.1655,11.3327,11.4007,11.402,11.5244,11.6112,11.6497,11.6429,11.6819,11.6819,11.727,11.8313,12.0255,12.0837,12.2183,12.4728,12.4757,12.4715,12.4827,12.4827,12.4912,12.5024,12.3713,12.3063,12.2852,12.1585,12.0616,12.0546,12.0599,12.0599,12.0546,12.0599,12.1373,12.25,12.2781,12.3556,12.4894,12.5175,12.5879,12.7217,12.771,12.8273,12.9329,12.9751,12.9892,12.9892,12.9949,12.9936,12.9879,13.0106,13.0204,13.0386,13.0772,13.1328,13.1416,13.131,13.1275,13.1221,13.1221,13.1292,13.1417,13.1505,13.1521,13.1521,13.1521,13.1573,13.1573,13.1781,13.1914,13.1761,13.1709,13.2806,13.3609,13.3742,13.3742,13.3564,13.3519,13.3429,13.3547,13.4082,13.4372,13.5941,13.7393,13.8579,13.9294,14.0593,14.1656,14.2277,14.281,14.3261,10.3313,10.5041,10.5174,10.5671,10.6462,10.6462,10.6462,10.6462,10.6462,10.5978,10.5424,10.61,10.5491,10.429,10.4799,10.561,10.6394,10.6811,10.7221,10.7693,10.7693,10.7898,10.8307,10.8376,10.9136,11.0432,11.1046,11.1797,11.2759,11.432,11.5489,11.6457,11.7482,11.8374,11.913,11.9242,11.9619,12.0371,12.0691,12.1011,12.197,12.3063,12.3626,12.3486,12.257,12.25,12.3556,12.3117,12.2852,12.2781,12.2359,12.1655,12.0669,12.0599,12.0599,12.0599,12.0599,12.0757,12.1233,12.1303,12.1937,12.3415,12.3626,12.426,12.5809,12.6865,12.7639,12.8343,12.9118,12.9892,12.9879,13.0092,13.0371,13.0371,13.0426,13.0482,13.0537,13.0935,13.1275,13.1381,13.1363,13.1986,13.268,13.211,13.2181,13.2984,13.2163,13.1573,13.1573,13.1573,13.1573,13.1677,13.2167,13.2492,13.2182,13.2675,13.381,13.4082,13.4166,13.4144,13.4089,13.4132,13.4174,13.4217,13.4405,13.4666,13.5491,13.7032,13.7894,13.838,13.964,14.0973,14.161,14.2203,14.2461,10.33,10.5585,10.6184,10.687,10.7693,10.7693,10.7693,10.7693,10.7693,10.7163,10.6692,10.7347,10.6819,10.5366,10.6573,10.7499,10.8122,10.8303,10.8525,10.8908,10.8908,10.8908,10.8908,10.8908,10.946,11.022,11.0303,11.1062,11.2593,11.4099,11.5327,11.6204,11.708,11.7952,11.8822,11.9349,11.9631,11.9701,12.0264,12.0599,12.074,12.1514,12.2007,12.1937,12.1021,12.0968,12.1937,12.2007,12.2007,12.2007,12.2007,12.1585,12.0616,12.0599,12.0599,12.0599,12.0599,12.0599,12.0599,12.0599,12.1021,12.1937,12.2007,12.2711,12.4174,12.5356,12.6256,12.6961,12.8286,12.8836,12.8806,12.9239,12.9796,12.9867,13.0401,13.0881,13.0864,13.115,13.131,13.1434,13.154,13.2215,13.3286,13.3571,13.3428,13.3785,13.3072,13.2424,13.218,13.2117,13.2295,13.2566,13.3016,13.3156,13.2433,13.3315,13.4378,13.4452,13.4819,13.4893,13.5228,13.5415,13.5192,13.5305,13.5452,13.5637,13.5711,13.7072,13.7292,13.7916,13.9092,14.0337,14.0968,14.1631,14.1848,10.3884,10.5385,10.6999,10.7728,10.7921,10.7978,10.7853,10.8022,10.7978,10.7796,10.7807,10.791,10.7921,10.7853,10.8922,10.9514,10.9514,10.9514,11.0037,11.0918,11.1018,11.1116,11.1165,11.1165,11.1116,11.1009,11.1079,11.1761,11.3267,11.4936,11.5741,11.5761,11.592,11.5972,11.6304,11.7501,11.8083,11.8276,11.949,12.0335,12.0335,12.0264,12.0247,12.0194,12.0335,12.0335,12.0405,12.0475,12.0599,12.0599,12.0669,12.0599,12.0546,12.0599,12.0599,12.0599,12.0599,12.0529,12.0335,12.0405,12.0529,12.0405,12.0546,12.1233,12.2641,12.3279,12.4145,12.5346,12.6959,12.7456,12.6393,12.7492,12.829,12.8414,12.9835,13.0581,13.0848,13.0917,13.143,13.1359,13.143,13.2144,13.3571,13.5194,13.4639,13.3886,13.362,13.3142,13.2445,13.2417,13.2668,13.3218,13.3457,13.3315,13.1514,13.2491,13.3923,13.4145,13.4572,13.6022,13.6522,13.666,13.6522,13.6384,13.5702,13.5628,13.6342,13.6522,13.631,13.7084,13.8188,13.9037,13.926,14.0671,14.0894,10.3068,10.4036,10.6254,10.842,11.0122,11.0243,11.0243,11.0243,11.0243,10.9777,10.9085,10.9882,11.0243,11.0243,11.0568,11.0719,11.0719,11.0719,11.0918,11.1116,11.1165,11.1165,11.1165,11.1165,11.1165,11.1165,11.1165,11.1376,11.194,11.3418,11.4122,11.4404,11.5319,11.5882,11.5882,11.6234,11.6516,11.6656,11.8065,11.8787,11.8698,11.7661,11.7149,11.722,11.8224,11.8839,11.8909,11.9912,12.0599,12.0529,12.0599,12.0599,12.0599,12.0599,12.0599,12.0599,12.0599,12.0053,11.8857,11.9842,12.0053,11.9121,11.9912,12.0687,12.1233,12.2362,12.3369,12.3899,12.49,12.5471,12.5165,12.6325,12.7251,12.7322,12.7659,12.8066,12.826,12.9238,12.9932,13.0003,13.0749,13.1787,13.2177,13.2239,13.2446,13.2359,13.1454,13.0486,13.0296,13.0411,13.0496,13.0601,13.1243,13.1477,13.1792,13.2334,13.247,13.2873,13.3095,13.3987,13.4878,13.3912,13.3467,13.4878,13.3838,13.3541,13.3987,13.3764,13.351,13.4952,13.6363,13.7477,13.7775,13.7849,13.8294,10.3778,10.4713,10.7136,10.9252,11.1046,11.1165,11.1165,11.1165,11.1165,11.0819,11.0243,11.0869,11.1165,11.1165,11.1165,11.1165,11.1165,11.1165,11.1165,11.1165,11.1165,11.1165,11.1095,11.0532,11.0602,11.1095,11.0532,11.0532,11.1236,11.2151,11.2573,11.2714,11.3488,11.3911,11.3981,11.4615,11.4896,11.4967,11.6445,11.7174,11.7107,11.6898,11.6756,11.6827,11.7608,11.7843,11.7276,11.7936,11.8149,11.7581,11.751,11.7363,11.7114,11.7699,11.7951,11.7713,11.8276,11.8205,11.729,11.8187,11.8361,11.7515,11.8394,11.9221,11.9857,12.0963,12.1612,12.1664,12.2239,12.294,12.3653,12.508,12.6008,12.6079,12.6579,12.7007,12.7007,12.7792,12.8291,12.8413,12.9359,13.0518,13.1671,13.1482,13.1314,13.1454,13.107,13.036,12.9954,12.9847,12.9963,13.0264,12.9553,12.9613,12.9854,13.0496,13.1016,13.1164,13.1536,13.213,13.317,13.2501,13.2204,13.3244,13.2724,13.2278,13.1833,13.2056,13.2501,13.4061,13.5472,13.6141,13.6809,13.6883,13.6851,10.5415,10.6748,10.8522,11.0052,11.1165,11.1165,11.1165,11.1165,11.1165,11.1095,11.0651,11.0932,11.0981,11.1148,11.1241,11.136,11.1457,11.1408,11.1408,11.1457,11.1219,11.1197,11.1033,10.9574,10.9526,11.0562,10.9763,10.9999,11.1081,11.1386,11.1408,11.1408,11.136,11.1598,11.162,11.289,11.3525,11.3546,11.4886,11.5573,11.553,11.6837,11.7555,11.7555,11.7654,11.7008,11.537,11.5386,11.4769,11.3264,11.3292,11.2931,11.2608,11.3654,11.4154,11.3715,11.4886,11.5592,11.5592,11.5983,11.6251,11.6011,11.6469,11.7466,11.8744,11.8943,11.8992,11.9443,11.9609,12.0487,12.1657,12.3205,12.4231,12.4423,12.5567,12.6657,12.664,12.6828,12.6971,12.6899,12.7957,12.9211,13.1255,13.1125,13.0757,13.0189,12.991,12.9892,12.9746,12.9778,13.006,13.0471,12.9129,12.7495,12.7525,12.8491,12.9233,12.953,13.057,13.1313,13.1536,13.1536,13.161,13.1461,13.1387,13.109,13.1164,13.1758,13.213,13.3095,13.4135,13.5026,13.6141,13.6735,13.6851,10.4848,10.5644,10.7977,10.9844,11.1165,11.1165,11.1165,11.1165,11.1165,11.0116,10.8626,10.908,10.9996,11.104,11.1805,11.2348,11.2843,11.2815,11.2815,11.2744,11.16,11.1028,11.0842,10.9298,10.8727,10.9155,11.0056,11.0671,11.1128,11.2243,11.2815,11.2815,11.2815,11.2887,11.2887,11.3173,11.3387,11.3387,11.3745,11.3877,11.3823,11.4225,11.4397,11.4469,11.5546,11.5358,11.3809,11.4813,11.4813,11.3264,11.312,11.3077,11.2947,11.3261,11.336,11.3299,11.354,11.3754,11.387,11.5155,11.543,11.4048,11.6123,11.7625,11.7859,11.6761,11.6623,11.8466,11.925,11.9519,11.9735,12.0856,12.2029,12.2738,12.369,12.4454,12.5132,12.6244,12.6928,12.7116,12.8145,12.8707,12.8323,12.7608,12.6848,12.6074,12.5934,12.6842,12.7666,12.7877,12.7907,12.8015,12.7674,12.7154,12.7154,12.7525,12.7748,12.7748,12.8193,12.901,12.9753,12.9085,12.8788,12.9827,12.9233,12.8639,12.8416,12.9233,13.0347,13.109,13.2873,13.4507,13.5101,13.6066,13.6777,10.4549,10.5009,10.7033,10.8349,10.9123,10.9123,10.9123,10.9171,10.9713,10.9147,10.8027,10.8462,10.9082,10.9865,11.0313,11.0714,11.1168,11.1885,11.2286,11.2215,11.1383,11.0952,11.0737,10.8471,10.8184,10.9547,10.9845,11.0635,11.2029,11.289,11.3321,11.3321,11.3321,11.3321,11.3321,11.3321,11.3321,11.3363,11.3874,11.4195,11.4195,11.4195,11.3906,11.3143,11.3938,11.332,11.0934,11.1618,11.169,11.0895,11.0172,10.9983,11.0428,11.0547,11.0475,11.0194,11.1004,11.1445,11.1445,11.2478,11.263,11.1756,11.3313,11.4452,11.4802,11.3539,11.3903,11.6578,11.7212,11.7908,11.9079,11.9869,12.0538,12.1049,12.1498,12.2217,12.3382,12.4336,12.5065,12.5834,12.6984,12.7433,12.6627,12.5838,12.494,12.4232,12.3665,12.4302,12.5817,12.604,12.6262,12.7005,12.7154,12.7154,12.7154,12.7154,12.7154,12.7154,12.7748,12.8342,12.8193,12.8713,12.8342,12.8416,12.7822,12.7154,12.7154,12.7896,12.8788,12.953,13.1758,13.3467,13.4507,13.5769,13.6703,10.4406,10.4477,10.6096,10.673,10.673,10.6824,10.687,10.6893,10.7499,10.7907,10.8028,10.8163,10.8275,10.8508,10.8603,10.8634,10.8859,11.0307,11.0954,0.0,11.0738,11.0594,11.045,10.7461,10.7605,11.0307,10.9483,11.0419,11.2969,11.3514,11.3658,11.3586,11.3544,11.3586,11.3616,11.3658,11.3616,11.3658,11.466,11.5178,11.4959,11.4959,11.4302,11.3061,11.2734,11.1236,10.8575,10.8283,10.8098,10.8132,10.6851,10.6431,10.7142,10.7535,10.7211,10.6452,10.8013,10.8993,10.8993,10.8993,10.9173,10.9746,11.0176,11.0472,11.0808,11.0447,11.137,11.4008,11.4514,11.5757,11.8134,11.8645,11.8865,11.9304,11.9487,12.0363,12.2121,12.2413,12.2889,12.4171,12.4968,12.5343,12.4786,12.4345,12.3754,12.3514,12.2372,12.24,12.3589,12.4034,12.4777,12.6337,12.6931,12.7154,12.7154,12.7154,12.7154,12.7154,12.8268,12.8491,12.7525,12.8491,12.9085,12.7822,12.8045,12.8045,12.8045,12.7971,12.9085,12.9976,13.1907,13.3318,13.4284,13.5472,13.6438,10.4406,10.4547,10.6096,10.673,10.6777,10.7189,10.7343,10.7219,0.0,0.0,0.0,10.6665,10.765,10.8677,10.9101,10.9642,11.019,11.0481,11.0627,11.0554,10.9244,10.8554,10.8516,10.6697,10.6769,10.8554,10.9681,11.1245,11.3029,11.4266,11.4958,11.4921,11.4958,11.4958,11.4921,11.4958,11.4921,11.4958,11.5142,11.4667,11.3426,11.3318,11.3207,11.2988,11.1674,11.0726,11.0142,10.8794,10.8232,10.8527,10.8265,10.7647,10.6599,10.773,10.7088,10.439,10.5674,10.6746,10.6746,10.6746,10.7585,10.9556,11.0601,11.0426,10.8454,10.9365,11.0598,11.1876,11.2625,11.2934,11.2905,11.3986,11.5566,11.7621,11.8345,11.9649,12.181,12.2271,12.2211,12.2568,12.2776,12.245,12.116,12.083,12.0172,11.9207,11.9726,12.0395,12.0543,12.0915,12.1955,12.4554,12.6114,12.7079,12.7079,12.7079,12.7154,12.7154,12.7451,12.7451,12.7451,12.8565,12.9456,12.901,13.0347,13.0719,13.109,13.1536,13.2798,13.1758,13.3912,13.5695,13.4804,13.4729,13.5249,10.321,0.0,10.4054,10.4336,0.0,10.4985,10.553,10.604,10.5182,10.5176,10.578,10.6452,10.708,10.7666,10.7958,10.8192,10.8364,10.9242,10.9508,10.9266,10.8429,10.8064,10.8064,10.6492,10.6565,10.8064,10.894,11.0215,11.1747,11.3353,11.4083,11.4083,11.4886,11.4886,11.4156,11.4886,11.5061,11.4549,11.4798,11.403,11.229,11.2359,11.2023,11.0896,0.0,0.0,0.0,0.0,0.0,0.0,0.0,0.0,0.0,0.0,0.0,10.658,10.6769,10.7649,10.9154,10.7825,10.7419,10.8576,10.8369,10.7756,10.6556,10.7917,10.9348,11.0562,11.1076,11.1426,11.1894,11.2651,11.3578,11.4771,11.5292,11.6318,11.8158,11.9281,11.9801,11.9801,12.0469,12.0395,11.8761,11.8538,11.8241,11.7573,11.8092,11.8835,11.9504,11.9726,12.0172,12.1955,12.4257,12.592,12.5965,12.6485,12.7154,12.7228,12.7896,12.7971,12.7302,12.8491,12.9382,12.8565,12.8936,12.953,12.953,12.9456,12.9605,12.9679,13.0793,13.1758,13.213,13.2056,13.2501,10.145,10.145,10.1776,10.1918,10.2005,10.2451,10.3145,10.4058,10.4708,10.5198,10.5431,10.577,10.5912,10.5969,10.5856,10.5859,10.5902,10.6913,10.7417,10.7413,10.7445,10.7413,10.7242,10.6485,10.6851,10.8152,10.8356,10.9227,11.0912,11.2231,11.2817,11.2783,11.4062,11.4062,11.2963,0.0,0.0,0.0,11.3387,11.2888,11.1222,11.1568,11.0927,10.9182,10.9296,0.0,10.6233,10.6212,10.631,10.6403,10.4975,0.0,0.0,0.0,0.0,0.0,0.0,0.0,0.0,0.0,0.0,0.0,10.3954,10.3607,10.4299,10.5788,10.7397,10.8883,10.9106,10.9551,11.0591,11.0888,11.1259,11.1557,11.1928,11.2671,11.4305,11.5641,11.6485,11.6458,11.7573,11.787,11.6681,11.6756,11.6904,11.683,11.7201,11.787,11.9132,11.9207,11.9429,11.9875,12.2029,12.384,12.4257,12.5297,12.5891,12.6337,12.7451,12.7525,12.6411,12.7451,12.8045,12.7005,12.6931,12.7228,12.7228,12.6411,12.6559,12.7005,12.7525,12.7955,12.9067,12.9394,12.9914,9.9491,9.9634,10.0961,10.1534,10.1507,10.1266,10.1246,10.1404,10.2066,10.2511,10.2708,10.2809,10.2942,10.314,10.2655,10.3312,10.4663,10.3377,10.3543,10.4991,10.5053,10.4843,10.4623,10.6396,10.7803,10.8803,10.9331,11.0461,11.1958,11.2289,11.2336,11.2254,11.2586,11.2612,11.2464,11.2671,11.1287,10.8387,10.97,11.0394,11.0197,11.0269,11.0195,10.9849,10.8557,10.764,10.7248,10.6057,10.6123,10.7646,10.6206,10.5333,10.5398,10.5473,10.4193,0.0,10.2722,0.0,0.0,0.0,0.0,0.0,0.0,0.0,0.0,10.251,10.3981,10.5689,10.5763,10.5243,10.3981,10.5243,10.6729,10.814,10.9477,11.1037,11.2596,11.3042,11.319,11.319,11.3339,11.3413,11.3339,11.4379,11.5196,11.5419,11.6384,11.7228,11.7647,11.7674,11.8167,11.9578,12.0172,12.1138,12.2326,12.2846,12.3069,12.2994,12.344,12.3143,12.3069,12.4434,12.54,12.5252,12.6098,12.6989,12.7154,12.8074,12.8297,12.7138,12.7732,12.8409,12.8069,12.7841,12.9335,9.9514,9.9478,10.0271,10.0511,10.038,10.1125,10.1405,10.1435,10.1708,10.2091,10.2449,10.2473,10.2733,10.3147,10.2934,10.3196,10.3643,10.2836,10.3336,10.4822,10.3954,10.4402,10.5911,10.6131,10.6851,10.8061,10.752,10.764,10.8238,10.8262,10.8238,10.8189,11.0023,11.0377,10.927,10.9306,10.9076,10.8568,10.7975,10.7721,10.7775,10.8968,10.9437,10.9068,10.7769,10.6773,10.6243,10.4918,10.4519,10.5192,10.3731,10.2894,10.3049,10.1289,10.1157,0.0,0.0,0.0,0.0,0.0,0.0,0.0,0.0,0.0,0.0,0.0,10.2018,10.2623,10.4225,10.4127,10.1781,10.4597,10.606,10.5021,10.6357,10.7249,10.71,10.8734,10.9477,10.8586,10.9997,11.1185,11.1185,11.1779,11.2819,11.4676,11.4824,11.4676,11.475,11.5493,11.6236,11.6978,11.7795,11.8984,12.0618,12.1657,12.2252,12.2252,12.2252,12.2336,12.2555,12.3278,12.3805,12.3935,12.4483,12.4931,12.4931,12.4931,12.4856,12.4632,12.4159,12.3311,12.2811,12.3401,12.4997,9.9103,9.8939,9.8567,9.8146,9.7847,9.9258,9.9827,9.9778,9.9827,10.0077,10.0506,10.0506,10.0757,10.1267,10.0817,10.0782,10.0914,10.0839,10.1808,10.3574,10.24,10.3254,10.5824,10.4927,10.513,10.6443,10.545,10.4743,10.4329,10.4628,10.4831,10.4885,10.687,10.7113,10.562,10.6074,10.6779,10.7609,10.6282,10.5403,10.5037,10.7021,10.7864,10.7308,10.6569,10.5634,10.4449,10.3495,10.3,10.2727,10.0443,9.9462,10.0003,9.6531,0.0,0.0,0.0,0.0,0.0,0.0,0.0,0.0,0.0,8.9186,9.1271,0.0,9.8256,0.0,10.122,10.2198,10.0335,10.371,0.0,0.0,10.4248,10.4793,10.3454,10.5515,10.6432,10.4723,10.71,10.8734,10.8289,10.9279,11.0962,11.3265,11.2373,11.1705,11.2522,11.364,11.4435,11.4536,11.558,11.6822,11.7938,11.9327,12.0023,12.0146,12.0071,12.025,12.0549,12.0896,12.1215,12.1462,12.1752,12.2052,12.2052,12.1398,12.1044,12.0831,11.9199,11.7471,11.7941,11.9368,12.1341,9.7219,9.7005,9.5047,9.3801,9.3097,9.3753,9.401,9.3935,9.401,9.4109,9.4378,9.4378,9.4412,9.4371,9.2872,0.0,9.4742,9.4528,9.6312,9.9386,9.9404,10.0137,10.1399,10.1887,10.2699,10.3704,10.4235,10.3613,10.2111,10.3613,10.4367,10.4234,10.3079,10.2414,10.2311,10.3758,10.3909,10.2474,10.3809,10.3797,10.2275,10.3885,10.4728,10.4703,10.464,10.3797,10.2163,10.2037,10.1973,10.181,9.7508,9.5697,9.7079,0.0,0.0,0.0,0.0,0.0,0.0,0.0,0.0,0.0,0.0,0.0,0.0,0.0,0.0,0.0,9.4886,0.0,9.8252,10.0334,0.0,0.0,0.0,10.5504,10.5324,10.5309,10.4723,10.3015,0.0,0.0,10.3461,10.7174,11.0145,11.0368,10.9106,10.918,11.2151,11.2775,11.3064,11.304,11.346,11.3778,11.424,11.4486,11.471,11.4614,11.4003,11.4453,11.4569,11.5563,11.6408,11.6715,11.7744,11.8815,11.8815,11.966,11.9555,11.5837,11.4853,11.5093,11.6513,11.8083,11.9804,9.4177,9.318,9.2142,9.1566,9.1372,9.0655,9.1588,9.3468,9.2495,9.2197,9.2429,9.2429,9.1913,9.1067,9.0464,0.0,0.0,0.0,9.2976,9.6192,9.5236,9.6644,9.988,9.9271,10.0176,10.2304,10.0717,10.0539,10.1785,10.0539,9.8879,9.6881,0.0,0.0,9.8874,9.9606,10.0049,10.0453,10.1107,10.2097,10.3317,10.3078,10.3392,10.4299,10.3392,10.2097,10.0511,10.0435,9.9529,9.749,9.652,9.4934,0.0,0.0,0.0,0.0,0.0,0.0,0.0,0.0,0.0,0.0,0.0,7.5857,7.828,0.0,0.0,0.0,8.9157,9.1174,9.2518,9.6862,0.0,0.0,0.0,0.0,0.0,0.0,0.0,9.8964,10.2626,10.5148,10.453,10.543,10.5782,10.4736,10.5803,10.7073,10.8418,0.0,11.177,11.1749,11.2675,11.3335,11.3335,11.418,11.448,11.3505,11.3335,11.3395,11.3659,11.4164,11.4686,11.4896,11.5472,11.5924,11.594,11.5623,11.4797,11.3233,11.2895,11.3046,11.3739,11.5161,11.6822,8.8761,0.0,0.0,0.0,0.0,8.6443,8.7172,8.9442,8.8241,8.7859,8.8141,8.8141,0.0,0.0,0.0,0.0,0.0,0.0,8.9637,9.228,9.2129,9.4157,9.8019,9.6358,9.7037,9.9605,9.7426,9.6973,9.8106,9.5026,9.2502,9.0686,0.0,0.0,0.0,0.0,9.6662,9.8658,9.8806,10.0133,10.2927,10.1795,10.1795,10.2939,10.1342,9.9982,9.885,9.7922,9.6291,9.3948,9.3117,0.0,0.0,0.0,0.0,0.0,0.0,0.0,0.0,0.0,0.0,0.0,0.0,0.0,0.0,0.0,0.0,0.0,0.0,0.0,8.6258,9.1735,9.5373,0.0,0.0,0.0,0.0,0.0,0.0,0.0,0.0,0.0,10.3008,10.2093,10.1585,0.0,0.0,10.4752,10.5183,10.7825,10.9681,10.9681,11.1087,0.0,11.2192,11.3244,11.362,11.2418,11.2267,11.2337,11.2534,11.2264,11.2083,11.278,11.2971,11.2593,11.1687,11.0554,10.9799,10.9812,11.0189,11.0479,11.063,11.1763,11.3424,0.0,0.0,0.0,0.0,0.0,0.0,0.0,0.0,7.9601,7.9715,0.0,7.9952,0.0,0.0,0.0,0.0,0.0,8.2463,0.0,0.0,9.0316,9.2884,9.4329,9.2808,9.3035,9.4621,9.448,9.2819,8.9743,8.6679,0.0,0.0,0.0,0.0,0.0,0.0,9.382,9.694,9.7087,9.7955,9.968,9.968,9.968,9.968,9.8094,9.7124,9.6973,9.4117,9.2374,9.2147,8.6255,0.0,0.0,0.0,0.0,0.0,0.0,0.0,0.0,0.0,0.0,0.0,0.0,0.0,0.0,0.0,0.0,0.0,0.0,0.0,0.0,8.4416,0.0,0.0,0.0,0.0,0.0,0.0,0.0,0.0,0.0,0.0,9.7088,9.6725,9.8136,10.2784,0.0,0.0,0.0,0.0,10.6659,10.6659,10.8295,10.9547,10.9547,10.9623,10.9698,10.9547,0.0,0.0,10.956,10.8201,10.7748,10.9271,10.9573,10.8515,10.5419,10.4903,10.4827,10.4827,10.6023,10.7005,10.7156,10.8213,10.9875,0.0,0.0,0.0,0.0,0.0,0.0,0.0,0.0,0.0,7.4632,0.0,7.4685,0.0,0.0,0.0,0.0,0.0,0.0,0.0,0.0,8.3491,8.5829,8.6528,8.8036,8.9103,0.0,8.7519,8.4179,0.0,0.0,0.0,0.0,0.0,0.0,0.0,0.0,9.2249,9.5483,9.662,9.7879,9.944,9.9507,9.9526,9.9529,9.7879,9.5979,9.3898,9.2737,9.115,0.0,0.0,0.0,0.0,0.0,0.0,0.0,0.0,0.0,0.0,0.0,0.0,0.0,0.0,0.0,0.0,0.0,0.0,0.0,0.0,0.0,0.0,0.0,8.3038,0.0,0.0,0.0,0.0,0.0,0.0,0.0,0.0,0.0,9.2232,9.3779,9.6153,9.8928,10.0585,10.1805,10.2394,0.0,0.0,0.0,0.0,0.0,0.0,0.0,10.7458,10.6338,10.7081,10.7458,10.6338,10.5646,10.5507,10.6023,0.0,0.0,10.3154,10.2713,10.2788,10.2701,10.2399,10.2399,10.338,10.3305,10.406,0.0,0.0,0.0,0.0,0.0,0.0,0.0,0.0,0.0,6.7964,6.7972,0.0,0.0,0.0,0.0,0.0,0.0,0.0,0.0,0.0,0.0,0.0,8.0638,8.3385,0.0,0.0,0.0,0.0,0.0,0.0,0.0,0.0,0.0,0.0,0.0,0.0,8.9735,9.3091,9.5264,9.7099,9.8697,9.9297,9.9636,9.9524,9.7926,9.5789,9.3082,0.0,0.0,0.0,0.0,0.0,0.0,0.0,0.0,0.0,0.0,0.0,0.0,0.0,0.0,0.0,0.0,0.0,0.0,0.0,0.0,0.0,0.0,0.0,0.0,0.0,7.7026,0.0,0.0,0.0,0.0,0.0,0.0,0.0,0.0,0.0,0.0,0.0,9.3186,9.652,9.8396,9.9756,10.0964,10.2474,10.3531,0.0,0.0,0.0,0.0,0.0,0.0,0.0,0.0,0.0,0.0,0.0,0.0,0.0,0.0,9.9012,9.7868,9.7717,9.7868,9.8472,0.0,0.0,0.0,0.0,0.0,0.0,0.0,0.0,0.0,0.0,0.0,0.0,0.0,0.0,0.0,0.0,0.0,0.0,5.9518,0.0,0.0,0.0,0.0,0.0,0.0,0.0,0.0,0.0,0.0,0.0,0.0,0.0,0.0,0.0,0.0,0.0,0.0,0.0,0.0,0.0,0.0,8.641,8.975,9.3145,9.5546,9.7205,9.8878,9.9713,9.9557,9.804,9.6294,9.4473,0.0,0.0,0.0,0.0,0.0,0.0,0.0,0.0,0.0,0.0,0.0,0.0,0.0,0.0,0.0,0.0,0.0,0.0,0.0,0.0,0.0,0.0,0.0,0.0,0.0,0.0,7.0245,7.4316,7.8545,0.0,0.0,0.0,0.0,0.0,0.0,0.0,0.0,0.0,0.0,9.5462,9.5689,9.9012,10.0824,10.1806,10.1795,10.3166,10.4223,10.4223,10.4223,10.4299,0.0,0.0,0.0,0.0,0.0,0.0,0.0,0.0,0.0,0.0,0.0,0.0,0.0,0.0,0.0,0.0,0.0,0.0,0.0,0.0,0.0,0.0,0.0,0.0,0.0,0.0,0.0,0.0,0.0,0.0,0.0,0.0,0.0,0.0,0.0,0.0,0.0,0.0,0.0,0.0,0.0,0.0,0.0,0.0,0.0,0.0,0.0,0.0,0.0,0.0,0.0,0.0,0.0,0.0,8.4791,8.8131,9.2546,9.5596,9.7338,9.9008,9.9225,9.7968,9.6294,9.4094,0.0,0.0,0.0,0.0,0.0,0.0,0.0,0.0,0.0,0.0,0.0,0.0,0.0,0.0,0.0,0.0,0.0,0.0,0.0,0.0,0.0,0.0,0.0,0.0,0.0,0.0,0.0,0.0,7.4896,7.7602,7.8469,0.0,0.0,0.0,0.0,0.0,0.0,0.0,0.0,0.0,0.0,9.4041,9.7312,9.9146,10.0236,10.0232,10.0641,10.0992,10.0987,10.0964,10.0586,9.9389,0.0,0.0,0.0,0.0,0.0,0.0,0.0,0.0,0.0,0.0,0.0,0.0,0.0,0.0,0.0,0.0,0.0,0.0,0.0,0.0,0.0,0.0,0.0,0.0,0.0,0.0,0.0,0.0,0.0,0.0,0.0,0.0,0.0,0.0,0.0,0.0,0.0,0.0,0.0,0.0,0.0,0.0,0.0,0.0,0.0,0.0,0.0,0.0,0.0,0.0,0.0,0.0,0.0,8.347,8.5595,9.1138,9.48,9.6347,9.7411,9.7721,9.7265,9.4379,9.1948,0.0,0.0,0.0,0.0,0.0,0.0,0.0,0.0,0.0,0.0,0.0,0.0,0.0,0.0,0.0,0.0,0.0,0.0,0.0,0.0,0.0,0.0,0.0,0.0,0.0,0.0,0.0,0.0,7.1429,7.3409,7.3407,0.0,0.0,0.0,0.0,0.0,0.0,0.0,0.0,0.0,0.0,9.1844,9.6334,9.7857,0.0,0.0,9.8959,9.8566,9.8592,9.8019,9.7264,9.6217,9.6066,0.0,0.0,0.0,0.0,0.0,0.0,0.0,0.0,0.0,0.0,0.0,0.0,0.0,0.0,0.0,0.0,0.0,0.0,0.0,0.0,0.0,0.0,0.0,0.0,0.0,0.0,0.0,0.0,0.0,0.0,0.0,0.0,0.0,0.0,0.0,0.0,0.0,0.0,0.0,0.0,0.0,0.0,0.0,0.0,0.0,0.0,0.0,0.0,0.0,0.0,0.0,0.0,0.0,8.2487,8.8934,9.3111,9.4629,9.478,9.5539,9.675,9.2428,8.9775,0.0,0.0,0.0,0.0,0.0,0.0,0.0,0.0,0.0,0.0,0.0,0.0,0.0,0.0,0.0,0.0,0.0,0.0,0.0,0.0,0.0,0.0,0.0,0.0,0.0,0.0,0.0,0.0,0.0,0.0,0.0,0.0,0.0,0.0,0.0,0.0,0.0,0.0,0.0,0.0,0.0,8.9002,9.5592,9.6591,9.7303,0.0,0.0,9.6781,9.6669,9.5257,9.4113,9.3983,0.0,0.0,0.0,0.0,0.0,0.0,0.0,0.0,0.0,0.0,0.0,0.0,0.0,0.0,0.0,0.0,0.0,0.0,0.0,0.0,0.0,0.0,0.0,0.0,0.0,0.0,0.0,0.0,0.0,0.0,0.0,0.0,0.0,0.0,0.0,0.0,0.0,0.0,0.0,0.0,0.0,0.0,0.0,0.0,0.0,0.0,0.0,0.0,0.0,0.0,0.0,0.0,0.0,0.0,8.059,8.7192,9.1441,9.3031,9.4249,9.3946,9.1897,9.0683,0.0,0.0,0.0,0.0,0.0,0.0,0.0,0.0,0.0,0.0,0.0,0.0,0.0,0.0,0.0,0.0,0.0,0.0,0.0,0.0,0.0,0.0,0.0,0.0,0.0,0.0,0.0,5.7853,0.0,0.0,0.0,0.0,0.0,0.0,0.0,0.0,0.0,0.0,0.0,0.0,0.0,0.0,8.4087,9.0718,9.2666,9.4022,0.0,0.0,9.4814,9.3554,9.1942,9.0382,0.0,0.0,0.0,0.0,0.0,0.0,0.0,0.0,0.0,0.0,0.0,0.0,0.0,0.0,0.0,0.0,0.0,0.0,0.0,0.0,0.0,0.0,0.0,0.0,0.0,0.0,0.0,0.0,0.0,0.0,0.0,0.0,0.0,0.0,0.0,0.0,0.0,0.0,0.0,0.0,0.0,0.0,0.0,0.0,0.0,0.0,0.0,0.0,0.0,0.0,0.0,0.0,0.0,0.0,7.7479,7.9986,8.5146,8.9013,9.129,9.0834,9.0075,8.8937,8.7495,8.4536,0.0,0.0,0.0,0.0,0.0,0.0,0.0,0.0,0.0,0.0,0.0,0.0,0.0,0.0,0.0,0.0,0.0,0.0,0.0,0.0,0.0,0.0,0.0,0.0,0.0,0.0,0.0,0.0,0.0,0.0,0.0,0.0,0.0,0.0,0.0,0.0,0.0,0.0,0.0,0.0,0.0,0.0,8.7981,9.0201,0.0,0.0,0.0,9.223,9.1279,0.0,0.0,0.0,0.0,0.0,0.0,0.0,0.0,0.0,0.0,0.0,0.0,0.0,0.0,0.0,0.0,0.0,0.0,0.0,0.0,0.0,0.0,0.0,0.0,0.0,0.0,0.0,0.0,0.0,0.0,0.0,0.0,0.0,0.0,0.0,0.0,0.0,0.0,0.0,0.0,0.0,0.0,0.0,0.0,0.0,0.0,0.0,0.0,0.0,0.0,0.0,0.0,0.0,0.0,0.0,0.0,0.0,7.9606,8.2945,8.6205,8.9089,8.6512,8.5598,8.6809,8.4005,8.1425,0.0,0.0,0.0,0.0,0.0,0.0,0.0,0.0,0.0,0.0,0.0,0.0,0.0,0.0,0.0,0.0,0.0,0.0,0.0,0.0,0.0,0.0,0.0,0.0,0.0,0.0,0.0,0.0,0.0,0.0,0.0,0.0,0.0,0.0,0.0,0.0,0.0,0.0,0.0,0.0,0.0,8.2765,8.5953,8.7852,8.8914,0.0,0.0,8.8989,8.8958,8.6133,0.0,0.0,0.0,0.0,0.0,0.0,0.0,0.0,0.0,0.0,0.0,0.0,0.0,0.0,0.0,0.0,0.0,0.0,0.0,0.0,0.0,0.0,0.0,0.0,0.0,0.0,0.0,0.0,0.0,0.0,0.0,0.0,0.0,0.0,0.0,0.0,0.0,0.0,0.0,0.0,0.0,0.0,0.0,0.0,0.0,0.0,0.0,0.0,0.0,0.0,0.0,0.0,0.0,0.0,0.0,0.0,7.7858,8.1197,8.3929,8.5826,8.5298,8.446,8.347,8.2791,8.0438,0.0,0.0,0.0,0.0,0.0,0.0,0.0,0.0,0.0,0.0,0.0,0.0,0.0,0.0,0.0,0.0,0.0,0.0,0.0,0.0,0.0,0.0,0.0,0.0,0.0,0.0,0.0,0.0,0.0,0.0,0.0,0.0,0.0,0.0,0.0,0.0,0.0,0.0,0.0,0.0,0.0,7.774,8.0943,8.2833,0.0,0.0,0.0,0.0,8.3891,8.1094,0.0,0.0,0.0,0.0,0.0,0.0,0.0,0.0,0.0,0.0,0.0,0.0,0.0,0.0,0.0,0.0,0.0,0.0,0.0,0.0,0.0,0.0,0.0,0.0,0.0,0.0,0.0,0.0,0.0,0.0,0.0,0.0,0.0,0.0,0.0,0.0,0.0,0.0,0.0,0.0,0.0,0.0,0.0,0.0,0.0,0.0,0.0,0.0,0.0,0.0,0.0,0.0,0.0,0.0,0.0,0.0,7.8389,8.0286,8.2032,8.3625,8.3777,8.2942,8.1273,8.1956,8.0135,0.0,0.0,0.0,0.0,0.0,0.0,0.0,0.0,0.0,0.0,0.0,0.0,0.0,0.0,0.0,0.0,0.0,0.0,0.0,0.0,0.0,0.0,0.0,0.0,0.0,0.0,0.0,0.0,0.0,0.0,0.0,0.0,0.0,0.0,0.0,0.0,0.0,0.0,0.0,0.0,7.5053,7.5901,7.8351,0.0,0.0,0.0,0.0,0.0,0.0,8.0236,7.9107,0.0,0.0,0.0,0.0,0.0,0.0,0.0,0.0,0.0,0.0,0.0,0.0,0.0,0.0,0.0,0.0,0.0,0.0,0.0,0.0,0.0,0.0,0.0,0.0,0.0,0.0,0.0,0.0,0.0,0.0,0.0,0.0,0.0,0.0,0.0,0.0,0.0,0.0,0.0,0.0,0.0,0.0,0.0,0.0,0.0,0.0,0.0,0.0,0.0,0.0,0.0,0.0,0.0,0.0,0.0,7.8544,7.9224,8.0286,8.1956,8.1728,8.1045,7.9986,8.1045,7.9376,7.4825,0.0,0.0,0.0,0.0,0.0,0.0,0.0,0.0,0.0,0.0,0.0,0.0,0.0,0.0,0.0,0.0,0.0,0.0,0.0,0.0,0.0,0.0,0.0,0.0,0.0,0.0,0.0,0.0,0.0,0.0,0.0,0.0,0.0,0.0,0.0,0.0,0.0,0.0,0.0,7.4446,7.5053,0.0,0.0,0.0,0.0,0.0,0.0,0.0,0.0,7.93,0.0,0.0,0.0,0.0,0.0,0.0,0.0,0.0,0.0,0.0,0.0,0.0,0.0,0.0,0.0,0.0,0.0,0.0,0.0,0.0,0.0,0.0,0.0,0.0,0.0,0.0,0.0,0.0,0.0,0.0,0.0,0.0,0.0,0.0,0.0,0.0,0.0,0.0,0.0,0.0,0.0,0.0,0.0,0.0,0.0,0.0,0.0,0.0,0.0,0.0,0.0,0.0,0.0,0.0,0.0,0.0,7.634,7.8541,8.0138,7.8845,7.8693,7.9834,7.8769,7.6492,7.3001,0.0,0.0,0.0,0.0,0.0,0.0,0.0,0.0,0.0,0.0,0.0,0.0,0.0,0.0,0.0,0.0,0.0,0.0,0.0,0.0,0.0,0.0,0.0,0.0,0.0,0.0,0.0,0.0,0.0,0.0,0.0,0.0,0.0,0.0,0.0,0.0,0.0,0.0,6.9887,7.2015,0.0,0.0,0.0,0.0,0.0,0.0,0.0,0.0,7.5581,0.0,0.0,0.0,0.0,0.0,0.0,0.0,0.0,0.0,0.0,0.0,0.0,0.0,0.0,0.0,0.0,0.0,0.0,0.0,0.0,0.0,0.0,0.0,0.0,0.0,0.0,0.0,0.0,0.0,0.0,0.0,0.0,0.0,0.0,0.0,0.0,0.0,0.0,0.0,0.0,0.0,0.0,0.0,0.0,0.0,0.0,0.0,0.0,0.0,0.0,0.0,0.0,0.0,0.0,0.0,0.0,0.0,0.0,7.7706,7.8541,7.9527,7.9527,7.8465,7.5199,7.3153,0.0,0.0,0.0,0.0,0.0,0.0,0.0,0.0,0.0,0.0,0.0,0.0,0.0,0.0,0.0,0.0,0.0,0.0,0.0,0.0,0.0,0.0,0.0,0.0,0.0,0.0,0.0,0.0,0.0,0.0,0.0,0.0,0.0,0.0,0.0,0.0,0.0,0.0,0.0,0.0,0.0,0.0,0.0,0.0,0.0,0.0,0.0,0.0,0.0,0.0,0.0,0.0,0.0,0.0,0.0,0.0,0.0,0.0,0.0,0.0,0.0,0.0,0.0,0.0,0.0,0.0,0.0,0.0,0.0,0.0,0.0,0.0,0.0,0.0,0.0,0.0,0.0,0.0,0.0,0.0,0.0,0.0,0.0,0.0,0.0,0.0,0.0,0.0,0.0,0.0,0.0,0.0,0.0,0.0,0.0,0.0,0.0,0.0,0.0,0.0,0.0,0.0,0.0,0.0,0.0,0.0,0.0,0.0,7.7175,7.7934,7.9831,7.9907,7.7934,7.3457,7.1028,0.0,0.0,0.0,0.0,0.0,0.0,0.0,0.0,0.0,0.0,0.0,0.0,0.0,0.0,0.0,0.0,0.0,0.0,0.0,0.0,0.0,0.0,0.0,0.0,0.0,0.0,0.0,0.0,0.0,0.0,0.0,0.0,0.0,0.0,0.0,0.0,0.0,0.0,0.0,0.0,0.0,0.0,0.0,0.0,0.0,0.0,0.0,0.0,7.3535,0.0,0.0,0.0,0.0,0.0,0.0,0.0,0.0,0.0,0.0,0.0,0.0,0.0,0.0,0.0,0.0,0.0,0.0,0.0,0.0,0.0,0.0,0.0,0.0,0.0,0.0,0.0,0.0,0.0,0.0,0.0,0.0,0.0,0.0,0.0,0.0,0.0,0.0,0.0,0.0,0.0,0.0,0.0,0.0,0.0,0.0,0.0,0.0,0.0,0.0,0.0,0.0,0.0,0.0,0.0,0.0,0.0,0.0,0.0,7.6723,7.9455,7.7178,7.7026,7.9379,7.6267,7.179,0.0,0.0,0.0,0.0,0.0,0.0,0.0,0.0,0.0,0.0,0.0,0.0,0.0,0.0,0.0,0.0,0.0,0.0,0.0,0.0,0.0,0.0,0.0,0.0,0.0,0.0,0.0,0.0,0.0,0.0,0.0,0.0,0.0,0.0,0.0,0.0,0.0,0.0,0.0,0.0,0.0,0.0,0.0,0.0,0.0,0.0,0.0,0.0,0.0,0.0,0.0,0.0,0.0,0.0,0.0,0.0,0.0,0.0,0.0,0.0,0.0,0.0,0.0,0.0,0.0,0.0,0.0,0.0,0.0,0.0,0.0,0.0,0.0,0.0,0.0,0.0,0.0,0.0,0.0,0.0,0.0,0.0,0.0,0.0,0.0,0.0,0.0,0.0,0.0,0.0,0.0,0.0,0.0,0.0,0.0,0.0,0.0,0.0,0.0,0.0,0.0,0.0,0.0,0.0,0.0,0.0,0.0,0.0,7.4218,7.5581,7.7026,7.7102,7.5581,7.1484,6.8296,0.0,0.0,0.0,0.0,0.0,0.0,0.0,0.0,0.0,0.0,0.0,0.0,0.0,0.0,0.0,0.0,0.0,0.0,0.0,0.0,0.0,0.0,0.0,0.0,0.0,0.0,0.0,0.0,0.0,0.0,0.0,0.0,0.0,0.0,0.0,0.0,0.0,0.0,0.0,0.0,0.0,0.0,0.0,0.0,0.0,0.0,0.0,0.0,0.0,0.0,0.0,0.0,0.0,0.0,0.0,0.0,0.0,0.0,0.0,0.0,0.0,0.0,0.0,0.0,0.0,0.0,0.0,0.0,0.0,0.0,0.0,0.0,0.0,0.0,0.0,0.0,0.0,0.0,0.0,0.0,0.0,0.0,0.0,0.0,0.0,0.0,0.0,0.0,0.0,0.0,0.0,0.0,0.0,0.0,0.0,0.0,0.0,0.0,0.0,0.0,0.0,0.0,0.0,0.0,0.0,0.0,0.0,0.0,0.0,7.2015,7.6267,7.6495,7.1939,6.7763,6.5565,0.0,0.0,0.0,0.0,0.0,0.0,0.0,0.0,0.0,0.0,0.0,0.0,0.0,0.0,0.0,0.0,0.0,0.0,0.0,0.0,0.0,0.0,0.0,0.0,0.0,0.0,0.0,0.0,0.0,0.0,0.0,0.0,0.0,0.0,0.0,0.0,0.0,0.0,0.0,0.0,0.0,0.0,0.0,0.0,0.0,0.0,0.0,0.0,0.0,0.0,0.0,0.0,0.0,0.0,0.0,0.0,0.0,0.0,0.0,0.0,0.0,0.0,0.0,0.0,0.0,0.0,0.0,0.0,0.0,0.0,0.0,0.0,0.0,0.0,0.0,0.0,0.0,0.0,0.0,0.0,0.0,0.0,0.0,0.0,0.0,0.0,0.0,0.0,0.0,0.0,0.0,0.0,0.0,0.0,0.0,0.0,0.0,0.0,0.0,0.0,0.0,0.0,0.0,0.0,0.0,0.0,0.0,0.0,0.0,7.0115,7.3457,7.3608,7.0191,6.8221,6.5109,0.0,0.0,0.0,0.0,0.0,0.0,0.0,0.0,0.0,0.0,0.0,0.0,0.0,0.0,0.0,0.0,0.0,0.0,0.0,0.0,0.0,0.0,0.0,0.0,0.0,0.0,0.0,0.0,0.0,0.0,0.0,0.0,0.0,0.0,0.0,0.0,0.0,0.0,0.0,0.0,0.0,0.0,0.0,0.0,0.0,0.0,0.0,0.0,0.0,0.0,0.0,0.0,0.0,0.0,0.0,0.0,0.0,0.0,0.0,0.0,0.0,0.0,0.0,0.0,0.0,0.0,0.0,0.0,0.0,0.0,0.0,0.0,0.0,0.0,0.0,0.0,0.0,0.0,0.0,0.0,0.0,0.0,0.0,0.0,0.0,0.0,0.0,0.0,0.0,0.0,0.0,0.0,0.0,0.0,0.0,0.0,0.0,0.0,0.0,0.0,0.0,0.0,0.0,0.0,0.0,0.0,0.0,0.0,0.0,6.3969,6.6931,6.8069,6.6852,6.5185,6.3364,6.1391,0.0,0.0,0.0,0.0,0.0,0.0,0.0,0.0,0.0,0.0,0.0,0.0,0.0,0.0,0.0,0.0,0.0,0.0,0.0,0.0,0.0,0.0,0.0,0.0,0.0,0.0,0.0,0.0,0.0,0.0,0.0,0.0,0.0,0.0,0.0,0.0,0.0,0.0,0.0,0.0,0.0,0.0,0.0,0.0,0.0,0.0,0.0,0.0,0.0,0.0,0.0,0.0,0.0,0.0,0.0,0.0,0.0,0.0,0.0,0.0,0.0,0.0,0.0,0.0,0.0,0.0,0.0,0.0,0.0,0.0,0.0,0.0,0.0,0.0,0.0,0.0,0.0,0.0,0.0,0.0,0.0,0.0,0.0,0.0,0.0,0.0,0.0,0.0,0.0,0.0,0.0,0.0,0.0,0.0,0.0,0.0,0.0,0.0,0.0,0.0,0.0,0.0,0.0,0.0,0.0,0.0,0.0,0.0,5.9266,6.2906,6.4424,6.3362,6.2757,6.1469,0.0,0.0,0.0,0.0,0.0,0.0,0.0,0.0,0.0,0.0,0.0,0.0,0.0,0.0,0.0,0.0,0.0,0.0,0.0,0.0,0.0,0.0,0.0,0.0,0.0,0.0,0.0,0.0,0.0,0.0,0.0,0.0,0.0,0.0,0.0,0.0,0.0,0.0,0.0,0.0,0.0,0.0,0.0,0.0,0.0,0.0,0.0,0.0,0.0,0.0,0.0,0.0,0.0,0.0,0.0,0.0,0.0,0.0,0.0,0.0,0.0,0.0,0.0,0.0,0.0,0.0,0.0,0.0,0.0,0.0,0.0,0.0,0.0,0.0,0.0,0.0,0.0,0.0,0.0,0.0,0.0,0.0,0.0,0.0,0.0,0.0,0.0,0.0,0.0,0.0,0.0,0.0,0.0,0.0,0.0,0.0,0.0,0.0,0.0,0.0,0.0,0.0,0.0,0.0,0.0,0.0,0.0,0.0,5.0993,5.7371,6.2302,6.3286,6.0099,6.1543,5.9344,0.0,0.0,0.0,0.0,0.0,0.0,0.0,0.0,0.0,0.0,0.0,0.0,0.0,0.0,0.0,0.0,0.0,0.0,0.0,0.0,0.0,0.0,0.0,0.0,0.0,0.0,0.0,0.0,0.0,0.0,0.0,0.0,0.0,0.0,0.0,0.0,0.0,0.0,0.0,0.0,0.0,0.0,0.0,0.0,0.0,0.0,0.0,0.0,0.0,0.0,0.0,0.0,0.0,0.0,0.0,0.0,0.0,0.0,0.0,0.0,0.0,0.0,0.0,0.0,0.0,0.0,0.0,0.0,0.0,0.0,0.0,0.0,0.0,0.0,0.0,0.0,0.0,0.0,0.0,0.0,0.0,0.0,0.0,0.0,0.0,0.0,0.0,0.0,0.0,0.0,0.0,0.0,0.0,0.0,0.0,0.0,0.0,0.0,0.0,0.0,0.0,0.0,0.0,0.0,0.0,0.0,0.0,0.0,0.0,5.2437,0.0,6.1543,0.0,6.1012,5.8659,0.0,0.0,0.0,0.0,0.0,0.0,0.0,0.0,0.0,0.0,0.0,0.0,0.0,0.0,0.0,0.0,0.0,0.0,0.0,0.0,0.0,0.0,0.0,0.0,0.0,0.0,0.0,0.0,0.0,0.0,0.0,0.0,0.0,0.0,0.0,0.0,0.0,0.0,0.0,0.0,0.0,0.0,0.0,0.0,0.0,0.0,0.0,0.0,0.0,0.0,0.0,0.0,0.0,0.0,0.0,0.0,0.0,0.0,0.0,0.0,0.0,0.0,0.0,0.0,0.0,0.0,0.0,0.0,0.0,0.0,0.0,0.0,0.0,0.0,0.0,0.0,0.0,0.0,0.0,0.0,0.0,0.0,0.0,0.0,0.0,0.0,0.0,0.0,0.0,0.0,0.0,0.0,0.0,0.0,0.0,0.0,0.0,0.0,0.0,0.0,0.0,0.0,0.0,0.0,0.0,0.0,0.0,0.0,0.0,4.9932,5.3497,5.676,5.957,5.8659,5.6304,0.0,0.0,0.0,0.0,0.0,0.0,0.0,0.0,0.0,0.0,0.0,0.0,0.0,0.0,0.0,0.0,0.0,0.0,0.0,0.0,0.0,0.0,0.0,0.0,0.0,0.0,0.0,0.0,0.0,0.0,0.0,0.0,0.0,0.0,0.0,0.0,0.0,0.0,0.0,0.0,0.0,0.0,0.0,0.0,0.0,0.0,0.0,0.0,0.0,0.0,0.0,0.0,0.0,0.0,0.0,0.0,0.0,0.0,0.0,0.0,0.0,0.0,0.0,0.0,0.0,0.0,0.0,0.0,0.0,0.0,0.0,0.0,0.0,0.0,0.0,0.0,0.0,0.0,0.0,0.0,0.0,0.0,0.0,0.0,0.0,0.0,0.0,0.0,0.0,0.0,0.0,0.0,0.0,0.0,0.0,0.0,0.0,0.0,0.0,0.0,0.0,0.0,0.0,0.0,0.0,0.0,0.0,0.0,0.0,0.0,4.8261,4.9855,5.4635,5.4787,5.2435,0.0,0.0,0.0,0.0,0.0,0.0,0.0,0.0,0.0,0.0,0.0,0.0,0.0,0.0,0.0,0.0,0.0,0.0,0.0,0.0,0.0,0.0,0.0,0.0,0.0,0.0,0.0,0.0,0.0,0.0,0.0,0.0,0.0,0.0,0.0,0.0,0.0,0.0,0.0,0.0,0.0,0.0,0.0,0.0,0.0,0.0,0.0,0.0,0.0,0.0,0.0,0.0,0.0,0.0,0.0,0.0,0.0,0.0,0.0,0.0,0.0,0.0,0.0,0.0,0.0,0.0,0.0,0.0,0.0,0.0,0.0,0.0,0.0,0.0,0.0,0.0,0.0,0.0,0.0,0.0,0.0,0.0,0.0,0.0,0.0,0.0,0.0,0.0,0.0,0.0,0.0,0.0,0.0,0.0,0.0,0.0,0.0,0.0,0.0,0.0,0.0,0.0,0.0,0.0,0.0,0.0,0.0,0.0,0.0,0.0,4.6438,0.0,5.1146,5.1374,4.9551,4.5759,0.0,0.0,0.0,0.0,0.0,0.0,0.0,0.0,0.0,0.0,0.0,0.0,0.0,0.0,0.0,0.0,0.0,0.0,0.0,0.0,0.0,0.0,0.0,0.0,0.0,0.0,0.0,0.0,0.0,0.0,0.0,0.0,0.0,0.0,0.0,0.0,0.0,0.0,0.0,0.0,0.0,0.0,0.0,0.0,0.0,0.0,0.0,0.0,0.0,0.0,0.0,0.0,0.0,0.0,0.0,0.0,0.0,0.0,0.0,0.0,0.0,0.0,0.0,0.0,0.0,0.0,0.0,0.0,0.0,0.0,0.0,0.0,0.0,0.0,0.0,0.0,0.0,0.0,0.0,0.0,0.0,0.0,0.0,0.0,0.0,0.0,0.0,0.0,0.0,0.0,0.0,0.0,0.0,0.0,0.0,0.0,0.0,0.0,0.0,0.0,0.0,0.0,0.0,0.0,0.0,0.0,0.0,0.0,0.0,0.0,0.0,4.7883,4.9249,4.8339,0.0,0.0,0.0,0.0,0.0,0.0,0.0,0.0,0.0,0.0,0.0,0.0,0.0,0.0,0.0,0.0,0.0,0.0,0.0,0.0,0.0,0.0,0.0,0.0,0.0,0.0,0.0,0.0,0.0,0.0,0.0,0.0,0.0,0.0,0.0,0.0,0.0,0.0,0.0,0.0,0.0,0.0,0.0,0.0,0.0,0.0,0.0,0.0,0.0,0.0,0.0,0.0,0.0,0.0,0.0,0.0,0.0,0.0,0.0,0.0,0.0,0.0,0.0,0.0,0.0,0.0,0.0,0.0,0.0,0.0,0.0,0.0,0.0,0.0,0.0,0.0,0.0,0.0,0.0,0.0,0.0,0.0,0.0,0.0,0.0,0.0,0.0,0.0,0.0,0.0,0.0,0.0,0.0,0.0,0.0,0.0,0.0,0.0,0.0,0.0,0.0,0.0,0.0,0.0,0.0,0.0,0.0,0.0,0.0,0.0,0.0,4.4848,4.4772,4.7959,0.0,4.4775,0.0,0.0,0.0,0.0,0.0,0.0,0.0,0.0,0.0,0.0,0.0,0.0,0.0,0.0,0.0,0.0,0.0,0.0,0.0,0.0,0.0,0.0,0.0,0.0,0.0,0.0,0.0,0.0,0.0,0.0,0.0,0.0,0.0,0.0,0.0,0.0,0.0,0.0,0.0,0.0,0.0,0.0,0.0,0.0,0.0,0.0,0.0,0.0,0.0,0.0,0.0,0.0,0.0,0.0,0.0,0.0,0.0,0.0,0.0,0.0,0.0,0.0,0.0,0.0,0.0,0.0,0.0,0.0,0.0,0.0,0.0,0.0,0.0,0.0,0.0,0.0,0.0,0.0,0.0,0.0,0.0,0.0,0.0,0.0,0.0,0.0,0.0,0.0,0.0,0.0,0.0,0.0,0.0,0.0,0.0,0.0,0.0,0.0,0.0,0.0,0.0,0.0,0.0,0.0,0.0,0.0,0.0,0.0,0.0,0.0,0.0,0.0,4.6288,4.5833,4.1359,0.0,0.0,0.0,0.0,0.0,0.0,0.0,0.0,0.0,0.0,0.0,0.0,0.0,0.0,0.0,0.0,0.0,0.0,0.0,0.0,0.0,0.0,0.0,0.0,0.0,0.0,0.0,0.0,0.0,0.0,0.0,0.0,0.0,0.0,0.0,0.0,0.0,0.0,0.0,0.0,0.0,0.0,0.0,0.0,0.0,0.0,0.0,0.0,0.0,0.0,0.0,0.0,0.0,0.0,0.0,0.0,0.0,0.0,0.0,0.0,0.0,0.0,0.0,0.0,0.0,0.0,0.0,0.0,0.0,0.0,0.0,0.0,0.0,0.0,0.0,0.0,0.0,0.0,0.0,0.0,0.0,0.0,0.0,0.0,0.0,0.0,0.0,0.0,0.0,0.0,0.0,0.0,0.0,0.0,0.0,0.0,0.0,0.0,0.0,0.0,0.0,0.0,0.0,0.0,0.0,0.0,0.0,0.0,0.0,0.0,4.4619,4.1583,4.5376,4.515,4.0298,0.0,0.0,0.0,0.0,0.0,0.0,0.0,0.0,0.0,0.0,0.0,0.0,0.0,0.0,0.0,0.0,0.0,0.0,0.0,0.0,0.0,0.0,0.0,0.0,0.0,0.0,0.0,0.0,0.0,0.0,0.0,0.0,0.0,0.0,0.0,0.0,0.0,0.0,0.0,0.0,0.0,0.0,0.0,0.0,0.0,0.0,0.0,0.0,0.0,0.0,0.0,0.0,0.0,0.0,0.0,0.0,0.0,0.0,0.0,0.0,0.0,0.0,0.0,0.0,0.0,0.0,0.0,0.0,0.0,0.0,0.0,0.0,0.0,0.0,0.0,0.0,0.0,0.0,0.0,0.0,0.0,0.0,0.0,0.0,0.0,0.0,0.0,0.0,0.0,0.0,0.0,0.0,0.0,0.0,0.0,0.0,0.0,0.0,0.0,0.0,0.0,0.0,0.0,0.0,0.0,0.0,0.0,0.0,0.0,0.0,0.0,0.0,0.0,0.0,4.0993,0.0,0.0,0.0,0.0,0.0,0.0,0.0,0.0,0.0,0.0,0.0,0.0,0.0,0.0,0.0,0.0,0.0,0.0,0.0,0.0,0.0,0.0,0.0,0.0,0.0,0.0,0.0,0.0,0.0,0.0,0.0,0.0,0.0,0.0,0.0,0.0,0.0,0.0,0.0,0.0,0.0,0.0,0.0,0.0,0.0,0.0,0.0,0.0,0.0,0.0,0.0,0.0,0.0,0.0,0.0,0.0,0.0,0.0,0.0,0.0,0.0,0.0,0.0,0.0,0.0,0.0,0.0,0.0,0.0,0.0,0.0,0.0,0.0,0.0,0.0,0.0,0.0,0.0,0.0,0.0,0.0,0.0,0.0,0.0,0.0,0.0,0.0,0.0,0.0,0.0,0.0,0.0,0.0,0.0,0.0,0.0,0.0,0.0,0.0,0.0,0.0,0.0,0.0,0.0,0.0,0.0,0.0,0.0,0.0,0.0,0.0,0.0,0.0,0.0,0.0,0.0,0.0,0.0,0.0,0.0,0.0,0.0,0.0,0.0,0.0,0.0,0.0,0.0,0.0,0.0,0.0,0.0,0.0,0.0,0.0,0.0,0.0,0.0,0.0,0.0,0.0,0.0,0.0,0.0,0.0,0.0,0.0,0.0,0.0,0.0,0.0,0.0,0.0,0.0,0.0,0.0,0.0,0.0,0.0,0.0,0.0,0.0,0.0,0.0,0.0,0.0,0.0,0.0,0.0,0.0,0.0,0.0,0.0,0.0,0.0,0.0,0.0,0.0,0.0,0.0,0.0,0.0,0.0,0.0,0.0,0.0,0.0,0.0,0.0,0.0,0.0,0.0,0.0,0.0,0.0,0.0,0.0,0.0,0.0,0.0,0.0,0.0,0.0,0.0,0.0,0.0,0.0,0.0,0.0,0.0,0.0,0.0,0.0,0.0,0.0,0.0,0.0,0.0,0.0,0.0,0.0,0.0,0.0,0.0,0.0,0.0,0.0,0.0,0.0,0.0,0.0,0.0,0.0,0.0,0.0,0.0,0.0,0.0,0.0,0.0,0.0,0.0,0.0,0.0,0.0,0.0,0.0,0.0,0.0,0.0,0.0,0.0,0.0,0.0,0.0,0.0,0.0,0.0,0.0,0.0,0.0,0.0,0.0,0.0,0.0,0.0,0.0,0.0,0.0,0.0,0.0,0.0,0.0,0.0,0.0,0.0,0.0,0.0,0.0,0.0,0.0,0.0,0.0,0.0,0.0,0.0,0.0,0.0,0.0,0.0,0.0,0.0,0.0,0.0,0.0,0.0,0.0,0.0,0.0,0.0,0.0,0.0,0.0,0.0,0.0,0.0,0.0,0.0,0.0,0.0,0.0,0.0,0.0,0.0,0.0,0.0,0.0,0.0,0.0,0.0,0.0,0.0,0.0,0.0,0.0,0.0,0.0,0.0,0.0,0.0,0.0,0.0,0.0,0.0,0.0,0.0,0.0,0.0,0.0,0.0,0.0,0.0,0.0,0.0,0.0,0.0,0.0,0.0,0.0,0.0,0.0,0.0,0.0,0.0,0.0,0.0,0.0,0.0,0.0,0.0,0.0,0.0,0.0,0.0,0.0,0.0,0.0,0.0,0.0,0.0,0.0,0.0,0.0,0.0,0.0,0.0,0.0,0.0,0.0,0.0,0.0,0.0,0.0,0.0,0.0,0.0,0.0,0.0,0.0,0.0,0.0,0.0,0.0,0.0,0.0,0.0,0.0,0.0,0.0,0.0,0.0,0.0,0.0,0.0,0.0,0.0,0.0,0.0,0.0,0.0,0.0,0.0,0.0,0.0,0.0,0.0,0.0,0.0,0.0,0.0,0.0,0.0,0.0,0.0,0.0,0.0,0.0,0.0,0.0,0.0,0.0,0.0,0.0,0.0,0.0,0.0,0.0,0.0,0.0,0.0,0.0,0.0,0.0,0.0,0.0,0.0,0.0,0.0,0.0,0.0,0.0,0.0,0.0,0.0,0.0,0.0,0.0,0.0,0.0,0.0,0.0,0.0,0.0,0.0,0.0,0.0,0.0,0.0,0.0,0.0,0.0,0.0,0.0,0.0,0.0,0.0,0.0,0.0,0.0,0.0,0.0,0.0,0.0,0.0,0.0,0.0,0.0,0.0,0.0,0.0,0.0,0.0,0.0,0.0,0.0,0.0,0.0,0.0,0.0,0.0,0.0,0.0,0.0,0.0,0.0,0.0,0.0,0.0,0.0,0.0,0.0,0.0,0.0,0.0,0.0,0.0,0.0,0.0,0.0,0.0,0.0,0.0,0.0,0.0,0.0,0.0,0.0,0.0,0.0,0.0,0.0,0.0,0.0,0.0,0.0,0.0,0.0,0.0,0.0,0.0,0.0,0.0,0.0,0.0,0.0,0.0,0.0,0.0,0.0,0.0,0.0,0.0,0.0,0.0,0.0,0.0,0.0,0.0,0.0,0.0,0.0,0.0,0.0,0.0,0.0,0.0,0.0,0.0,0.0,0.0,0.0,0.0,0.0,0.0,0.0,0.0,0.0,0.0,0.0,0.0,0.0,0.0,0.0,0.0,0.0,0.0,0.0,0.0,0.0,0.0,0.0,0.0,0.0,0.0,0.0,0.0,0.0,0.0,0.0,0.0,0.0,0.0,0.0,0.0,0.0,0.0,0.0,0.0,0.0,0.0,0.0,0.0,0.0,0.0,0.0,0.0,0.0,0.0,0.0,0.0,0.0,0.0,0.0,0.0,0.0,0.0,0.0,0.0,0.0,0.0,0.0,0.0,0.0,0.0,0.0,0.0,0.0,0.0,0.0,0.0,0.0,0.0,0.0,0.0,0.0,0.0,0.0,0.0,0.0,0.0,0.0,0.0,0.0,0.0,0.0,0.0,0.0,0.0,0.0,0.0,0.0,0.0,0.0,0.0,0.0,0.0,0.0,0.0,0.0,0.0,0.0,0.0,0.0,0.0,0.0,0.0,0.0,0.0,0.0,0.0,0.0,0.0,0.0,0.0,0.0,0.0,0.0,0.0,0.0,0.0,0.0,0.0,0.0,0.0,0.0,0.0,0.0,0.0,0.0,0.0,0.0,0.0,0.0,0.0,0.0,0.0,0.0,0.0,0.0,0.0,0.0,0.0,0.0,0.0,0.0,0.0,0.0,0.0,0.0,0.0,0.0,0.0,0.0,0.0,0.0,0.0,0.0,0.0,0.0,0.0,0.0,0.0,0.0,0.0,0.0,0.0,0.0,0.0,0.0,0.0,0.0,0.0,0.0,0.0,0.0,0.0,0.0,0.0,0.0,0.0,0.0,0.0,0.0,0.0,0.0,0.0,0.0,0.0,0.0,0.0,0.0,0.0,0.0,0.0,0.0,0.0,0.0,0.0,0.0,0.0,0.0,0.0,0.0,0.0,0.0,0.0,0.0,0.0,0.0,0.0,0.0,0.0,0.0,0.0,0.0,0.0,0.0,0.0,0.0,0.0,0.0,0.0,0.0,0.0,0.0,0.0,0.0,0.0,0.0,0.0,0.0,0.0,0.0,0.0,0.0,0.0,0.0,0.0,0.0,0.0,0.0,0.0,0.0,0.0,0.0,0.0,0.0,0.0,0.0,0.0,0.0,0.0,0.0,0.0,0.0,0.0,0.0,0.0,0.0,0.0,0.0,0.0,0.0,0.0,0.0,0.0,0.0,0.0,0.0,0.0,0.0,0.0,0.0,0.0,0.0,0.0,0.0,0.0,0.0,0.0,0.0,0.0,0.0,0.0,0.0,0.0,0.0,0.0,0.0,0.0,0.0,0.0,0.0,0.0,0.0,0.0,0.0,0.0,0.0,0.0,0.0,0.0,0.0,0.0,0.0,0.0,0.0,0.0,0.0,0.0,0.0,0.0,0.0,0.0,0.0,0.0,0.0,0.0,0.0,0.0,0.0,0.0,0.0,0.0,0.0,0.0,0.0,0.0,0.0,0.0,0.0,0.0,0.0,0.0,0.0,0.0,0.0,0.0,0.0,0.0,0.0,0.0,0.0,0.0,0.0,0.0,0.0,0.0,0.0,0.0,0.0,0.0,0.0,0.0,0.0,0.0,0.0,0.0,0.0,0.0,0.0,0.0,0.0,0.0,0.0,0.0,0.0,0.0,0.0,0.0,0.0,0.0,0.0,0.0,0.0,0.0,0.0,0.0,0.0,0.0,0.0,0.0,0.0,0.0,0.0,0.0,0.0,0.0,0.0,0.0,0.0,0.0,0.0,0.0,0.0,0.0,0.0,0.0,0.0,0.0,0.0,0.0,0.0,0.0,0.0,0.0,0.0,0.0,0.0,0.0,0.0,0.0,0.0,0.0,0.0,0.0,0.0,0.0]}]]]